[[{"header":{"parameterUnit":"m.s-1","parameterCategory":1,"la1":30.6,"la2":28.766,"lo1":-90.7593,"lo2":-88.6598,"dy":0.0162,"dx":0.0183,"nx":116,"ny":114,"refTime":"2024-04-09T18:00:00:Z","depth":0,"parameterNumber":2,"parameterNumberName":"U-component_of_WINDS"},"data":[0.0,0.0,0.0,0.0,0.0,0.0,0.0,0.0,0.0,0.0,0.0,0.0,0.0,0.0,0.0,0.0,0.0,0.0,0.0,0.0,0.0,0.0,0.0,0.0,0.0,0.0,0.0,0.0,0.0,0.0,0.0,0.0,0.0,0.0,0.0,0.0,0.0,0.0,0.0,0.0,0.0,0.0,0.0,0.0,0.0,0.0,0.0,0.0,0.0,0.0,0.0,0.0,0.0,0.0,0.0,0.0,0.0,0.0,0.0,0.0,0.0,0.0,0.0,0.0,0.0,0.0,0.0,0.0,0.0,0.0,0.0,0.0,0.0,0.0,0.0,0.0,0.0,0.0,0.0,0.0,0.0,0.0,0.0,0.0,0.0,0.0,0.0,0.0,0.0,0.0,0.0,0.0,0.0,0.0,0.0,0.0,0.0,0.0,0.0,0.0,0.0,0.0,0.0,0.0,0.0,0.0,0.0,0.0,0.0,0.0,0.0,0.0,0.0,0.0,0.0,0.0,0.0,0.0,0.0,0.0,0.0,0.0,0.0,0.0,0.0,0.0,0.0,0.0,0.0,0.0,0.0,0.0,0.0,0.0,0.0,0.0,0.0,0.0,0.0,0.0,0.0,0.0,0.0,0.0,0.0,0.0,0.0,0.0,0.0,0.0,0.0,0.0,0.0,0.0,0.0,0.0,0.0,0.0,0.0,0.0,0.0,0.0,0.0,0.0,0.0,0.0,0.0,0.0,0.0,0.0,0.0,0.0,0.0,0.0,0.0,0.0,0.0,0.0,0.0,0.0,0.0,0.0,0.0,0.0,0.0,0.0,0.0,0.0,0.0,0.0,0.0,0.0,0.0,0.0,0.0,0.0,0.0,0.0,0.0,0.0,0.0,0.0,0.0,0.0,0.0,0.0,0.0,0.0,0.0,0.0,0.0,0.0,0.0,0.0,0.0,0.0,0.0,0.0,0.0,0.0,0.0,0.0,0.0,0.0,0.0,0.0,0.0,0.0,0.0,0.0,0.0,0.0,0.0,0.0,0.0,0.0,0.0,0.0,0.0,0.0,0.0,0.0,0.0,0.0,0.0,0.0,0.0,0.0,0.0,0.0,0.0,0.0,0.0,0.0,0.0,0.0,0.0,0.0,0.0,0.0,0.0,0.0,0.0,0.0,0.0,0.0,0.0,0.0,0.0,0.0,0.0,0.0,0.0,0.0,0.0,0.0,0.0,0.0,0.0,0.0,0.0,0.0,0.0,0.0,0.0,0.0,0.0,0.0,0.0,0.0,0.0,0.0,0.0,0.0,0.0,0.0,0.0,0.0,0.0,0.0,0.0,0.0,0.0,0.0,0.0,0.0,0.0,0.0,0.0,0.0,0.0,0.0,0.0,0.0,0.0,0.0,0.0,0.0,0.0,0.0,0.0,0.0,0.0,0.0,0.0,0.0,0.0,0.0,0.0,0.0,0.0,0.0,0.0,0.0,0.0,0.0,0.0,0.0,0.0,0.0,0.0,0.0,0.0,0.0,0.0,0.0,0.0,0.0,0.0,0.0,0.0,0.0,0.0,0.0,0.0,0.0,0.0,0.0,0.0,0.0,0.0,0.0,0.0,0.0,0.0,0.0,0.0,0.0,0.0,0.0,0.0,0.0,0.0,0.0,0.0,0.0,0.0,0.0,0.0,0.0,0.0,0.0,0.0,0.0,0.0,0.0,0.0,0.0,0.0,0.0,0.0,0.0,0.0,0.0,0.0,0.0,0.0,0.0,0.0,0.0,0.0,0.0,0.0,0.0,0.0,0.0,0.0,0.0,0.0,0.0,0.0,0.0,0.0,0.0,0.0,0.0,0.0,0.0,0.0,0.0,0.0,0.0,0.0,0.0,0.0,0.0,0.0,0.0,0.0,0.0,0.0,0.0,0.0,0.0,0.0,0.0,0.0,0.0,0.0,0.0,0.0,0.0,0.0,0.0,0.0,0.0,0.0,0.0,0.0,0.0,0.0,0.0,0.0,0.0,0.0,0.0,0.0,0.0,0.0,0.0,0.0,0.0,0.0,0.0,0.0,0.0,0.0,0.0,0.0,0.0,0.0,0.0,0.0,0.0,0.0,0.0,0.0,0.0,0.0,0.0,0.0,0.0,0.0,0.0,0.0,0.0,0.0,0.0,0.0,0.0,0.0,0.0,0.0,0.0,0.0,0.0,0.0,0.0,0.0,0.0,0.0,0.0,0.0,0.0,0.0,0.0,0.0,0.0,0.0,0.0,0.0,0.0,0.0,0.0,0.0,0.0,0.0,0.0,0.0,0.0,0.0,0.0,0.0,0.0,0.0,0.0,0.0,0.0,0.0,0.0,0.0,0.0,0.0,0.0,0.0,0.0,0.0,0.0,0.0,0.0,0.0,0.0,0.0,0.0,0.0,0.0,0.0,0.0,0.0,0.0,0.0,0.0,0.0,0.0,0.0,0.0,0.0,0.0,0.0,0.0,0.0,0.0,0.0,0.0,0.0,0.0,0.0,0.0,0.0,0.0,0.0,0.0,0.0,0.0,0.0,0.0,0.0,0.0,0.0,0.0,0.0,0.0,0.0,0.0,0.0,0.0,0.0,0.0,0.0,0.0,0.0,0.0,0.0,0.0,0.0,0.0,0.0,0.0,0.0,0.0,0.0,0.0,0.0,0.0,0.0,0.0,0.0,0.0,0.0,0.0,0.0,0.0,0.0,0.0,0.0,0.0,0.0,0.0,0.0,0.0,0.0,0.0,0.0,0.0,0.0,0.0,0.0,0.0,0.0,0.0,0.0,0.0,0.0,0.0,0.0,0.0,0.0,0.0,0.0,0.0,0.0,0.0,0.0,0.0,0.0,0.0,0.0,0.0,0.0,0.0,0.0,0.0,0.0,0.0,0.0,0.0,0.0,0.0,0.0,0.0,0.0,0.0,0.0,0.0,0.0,0.0,0.0,0.0,0.0,0.0,0.0,0.0,0.0,0.0,0.0,0.0,0.0,0.0,0.0,0.0,0.0,0.0,0.0,0.0,0.0,0.0,0.0,0.0,0.0,0.0,0.0,0.0,0.0,0.0,0.0,0.0,0.0,0.0,0.0,0.0,0.0,0.0,0.0,0.0,0.0,0.0,0.0,0.0,0.0,0.0,0.0,0.0,0.0,0.0,0.0,0.0,0.0,0.0,0.0,0.0,0.0,0.0,0.0,0.0,0.0,0.0,0.0,0.0,0.0,0.0,0.0,0.0,0.0,0.0,0.0,0.0,0.0,0.0,0.0,0.0,0.0,0.0,0.0,0.0,0.0,0.0,0.0,0.0,0.0,0.0,0.0,0.0,0.0,0.0,0.0,0.0,0.0,0.0,0.0,0.0,0.0,0.0,0.0,0.0,0.0,0.0,0.0,0.0,0.0,0.0,0.0,0.0,0.0,0.0,0.0,0.0,0.0,0.0,0.0,0.0,0.0,0.0,0.0,0.0,0.0,0.0,0.0,0.0,0.0,0.0,0.0,0.0,0.0,0.0,0.0,0.0,0.0,0.0,0.0,0.0,0.0,0.0,0.0,0.0,0.0,0.0,0.0,0.0,0.0,0.0,0.0,0.0,0.0,0.0,0.0,0.0,0.0,0.0,0.0,0.0,0.0,0.0,0.0,0.0,0.0,0.0,0.0,0.0,0.0,0.0,0.0,0.0,0.0,0.0,0.0,0.0,0.0,0.0,0.0,0.0,0.0,0.0,0.0,0.0,0.0,0.0,0.0,0.0,0.0,0.0,0.0,0.0,0.0,0.0,0.0,0.0,0.0,0.0,0.0,0.0,0.0,0.0,0.0,0.0,0.0,0.0,0.0,0.0,0.0,0.0,0.0,0.0,0.0,0.0,0.0,0.0,0.0,0.0,0.0,0.0,0.0,0.0,0.0,0.0,0.0,0.0,0.0,0.0,0.0,0.0,0.0,0.0,0.0,0.0,0.0,0.0,0.0,0.0,0.0,0.0,0.0,0.0,0.0,0.0,0.0,0.0,0.0,0.0,0.0,0.0,0.0,0.0,0.0,0.0,0.0,0.0,0.0,0.0,0.0,0.0,0.0,0.0,0.0,0.0,0.0,0.0,0.0,0.0,0.0,0.0,0.0,0.0,0.0,0.0,0.0,0.0,0.0,0.0,0.0,0.0,0.0,0.0,0.0,0.0,0.0,0.0,0.0,0.0,0.0,0.0,0.0,0.0,0.0,0.0,0.0,0.0,0.0,0.0,0.0,0.0,0.0,0.0,0.0,0.0,0.0,0.0,0.0,0.0,0.0,0.0,0.0,0.0,0.0,0.0,0.0,0.0,0.0,0.0,0.0,0.0,0.0,0.0,0.0,0.0,0.0,0.0,0.0,0.0,0.0,0.0,0.0,0.0,0.0,0.0,0.0,0.0,0.0,0.0,0.0,0.0,0.0,0.0,0.0,0.0,0.0,0.0,0.0,0.0,0.0,0.0,0.0,0.0,0.0,0.0,0.0,0.0,0.0,0.0,0.0,0.0,0.0,0.0,0.0,0.0,0.0,0.0,0.0,0.0,0.0,0.0,0.0,0.0,0.0,0.0,0.0,0.0,0.0,0.0,0.0,0.0,0.0,0.0,0.0,0.0,0.0,0.0,0.0,0.0,0.0,0.0,0.0,0.0,0.0,0.0,0.0,0.0,0.0,0.0,0.0,0.0,0.0,0.0,0.0,0.0,0.0,0.0,0.0,0.0,0.0,0.0,0.0,0.0,0.0,0.0,0.0,0.0,0.0,0.0,0.0,0.0,0.0,0.0,0.0,0.0,0.0,0.0,0.0,0.0,0.0,0.0,0.0,0.0,0.0,0.0,0.0,0.0,0.0,0.0,0.0,0.0,0.0,0.0,0.0,0.0,0.0,0.0,0.0,0.0,0.0,0.0,0.0,0.0,0.0,0.0,0.0,0.0,0.0,0.0,0.0,0.0,0.0,0.0,0.0,0.0,0.0,0.0,0.0,0.0,0.0,0.0,0.0,0.0,0.0,0.0,0.0,0.0,0.0,0.0,0.0,0.0,0.0,0.0,0.0,0.0,0.0,0.0,0.0,0.0,0.0,0.0,0.0,0.0,0.0,0.0,0.0,0.0,0.0,0.0,0.0,0.0,0.0,0.0,0.0,0.0,0.0,0.0,0.0,0.0,0.0,0.0,0.0,0.0,0.0,0.0,0.0,0.0,0.0,0.0,0.0,0.0,0.0,0.0,0.0,0.0,0.0,0.0,0.0,0.0,0.0,0.0,0.0,0.0,0.0,0.0,0.0,0.0,0.0,0.0,0.0,0.0,0.0,0.0,0.0,0.0,0.0,0.0,0.0,0.0,0.0,0.0,0.0,0.0,0.0,0.0,0.0,0.0,0.0,0.0,0.0,0.0,0.0,0.0,0.0,0.0,0.0,0.0,0.0,0.0,0.0,0.0,0.0,0.0,0.0,0.0,0.0,0.0,0.0,0.0,0.0,0.0,0.0,0.0,0.0,0.0,0.0,0.0,0.0,0.0,0.0,0.0,0.0,0.0,0.0,0.0,0.0,0.0,0.0,0.0,0.0,0.0,0.0,0.0,0.0,0.0,0.0,0.0,0.0,0.0,0.0,0.0,0.0,0.0,0.0,0.0,0.0,0.0,0.0,0.0,0.0,0.0,0.0,0.0,0.0,0.0,0.0,0.0,0.0,0.0,0.0,0.0,0.0,0.0,0.0,0.0,0.0,0.0,0.0,0.0,0.0,0.0,0.0,0.0,0.0,0.0,0.0,0.0,0.0,0.0,0.0,0.0,0.0,0.0,0.0,0.0,0.0,0.0,0.0,0.0,0.0,0.0,0.0,0.0,0.0,0.0,0.0,0.0,0.0,0.0,0.0,0.0,0.0,0.0,0.0,0.0,0.0,0.0,0.0,0.0,0.0,0.0,0.0,0.0,0.0,0.0,0.0,0.0,0.0,0.0,0.0,0.0,0.0,0.0,0.0,0.0,0.0,0.0,0.0,0.0,0.0,0.0,0.0,0.0,0.0,0.0,0.0,0.0,0.0,0.0,0.0,0.0,0.0,0.0,0.0,0.0,0.0,0.0,0.0,0.0,0.0,0.0,-5.4333,-5.424,0.0,0.0,0.0,0.0,0.0,0.0,0.0,0.0,0.0,0.0,0.0,0.0,0.0,0.0,0.0,0.0,0.0,0.0,0.0,0.0,0.0,0.0,0.0,-5.7684,-5.7511,-5.7088,-5.6626,-5.6387,-5.6387,0.0,0.0,0.0,0.0,0.0,-5.564,-5.5618,-5.5596,-5.5596,-5.5596,-5.5629,-5.5703,-5.5703,-5.5703,-5.5684,0.0,0.0,0.0,0.0,0.0,0.0,0.0,0.0,0.0,0.0,0.0,0.0,0.0,0.0,0.0,0.0,0.0,0.0,0.0,0.0,0.0,0.0,0.0,0.0,0.0,0.0,0.0,0.0,0.0,0.0,0.0,0.0,0.0,0.0,0.0,0.0,0.0,0.0,0.0,0.0,0.0,0.0,0.0,0.0,0.0,0.0,0.0,0.0,0.0,0.0,0.0,0.0,0.0,0.0,0.0,0.0,0.0,0.0,0.0,0.0,0.0,0.0,0.0,0.0,0.0,0.0,0.0,0.0,0.0,0.0,-5.3813,-5.359,0.0,0.0,0.0,0.0,0.0,0.0,0.0,0.0,0.0,0.0,0.0,0.0,0.0,0.0,0.0,0.0,0.0,0.0,0.0,0.0,0.0,-5.7569,-5.6849,-5.6772,-5.6483,-5.5761,-5.5703,-5.5703,-5.5703,-5.5703,0.0,0.0,0.0,-5.5682,-5.5596,-5.5585,-5.5562,-5.5516,-5.5573,-5.5618,-5.5671,-5.5682,-5.5673,-5.5673,-5.5684,0.0,0.0,0.0,0.0,0.0,0.0,0.0,0.0,0.0,0.0,0.0,0.0,0.0,0.0,0.0,0.0,0.0,0.0,0.0,0.0,0.0,0.0,0.0,0.0,0.0,0.0,0.0,0.0,0.0,0.0,0.0,0.0,0.0,0.0,0.0,0.0,0.0,0.0,0.0,0.0,0.0,0.0,0.0,0.0,0.0,0.0,0.0,0.0,0.0,0.0,0.0,0.0,0.0,0.0,0.0,0.0,0.0,0.0,0.0,0.0,0.0,0.0,0.0,-5.3499,-5.3558,-5.3656,-5.3656,-5.3622,-5.3532,-5.3552,-5.3199,-5.2587,-5.2457,0.0,0.0,0.0,0.0,0.0,0.0,0.0,0.0,0.0,0.0,0.0,0.0,0.0,0.0,0.0,0.0,0.0,0.0,0.0,-5.5992,-5.5876,-5.5857,-5.5818,-5.5703,-5.5703,-5.5703,-5.5703,-5.5703,-5.5703,-5.5703,-5.5703,-5.5682,-5.5596,-5.5539,-5.5539,-5.5585,-5.5596,-5.5573,-5.5527,-5.5585,-5.5607,-5.5607,-5.5662,-5.5703,-5.5703,0.0,0.0,0.0,0.0,0.0,0.0,0.0,0.0,0.0,0.0,0.0,0.0,0.0,0.0,0.0,0.0,0.0,0.0,0.0,0.0,0.0,0.0,0.0,0.0,0.0,0.0,0.0,0.0,0.0,0.0,0.0,0.0,0.0,0.0,0.0,0.0,0.0,0.0,0.0,0.0,0.0,-5.4591,-5.4604,0.0,0.0,0.0,0.0,0.0,0.0,0.0,0.0,0.0,0.0,0.0,0.0,0.0,-5.3499,-5.3499,-5.3499,-5.3499,-5.3499,-5.3499,-5.3519,-5.3519,-5.3519,-5.3151,-5.2486,-5.2545,0.0,-5.2549,-5.1844,0.0,0.0,0.0,0.0,0.0,0.0,0.0,0.0,0.0,0.0,0.0,0.0,0.0,0.0,0.0,0.0,0.0,0.0,0.0,0.0,0.0,-5.5703,-5.5703,-5.5703,-5.5703,-5.5703,-5.5703,-5.5703,-5.5703,-5.5703,-5.5703,-5.5682,-5.5596,-5.5573,-5.5551,-5.5539,-5.5504,-5.5492,-5.5504,-5.5527,-5.5539,-5.5551,-5.5573,-5.5629,-5.5703,-5.5703,0.0,0.0,0.0,0.0,0.0,0.0,0.0,0.0,0.0,0.0,0.0,0.0,0.0,0.0,0.0,0.0,0.0,0.0,0.0,0.0,0.0,0.0,0.0,0.0,0.0,0.0,0.0,0.0,0.0,0.0,0.0,0.0,0.0,0.0,0.0,0.0,0.0,0.0,0.0,-5.3237,-5.314,-5.2868,-5.3046,-5.3103,0.0,0.0,0.0,0.0,0.0,0.0,0.0,0.0,0.0,-5.3334,-5.3334,-5.3334,-5.3334,-5.3334,-5.3334,-5.3334,-5.3334,-5.3336,-5.338,-5.338,-5.3236,-5.2945,-5.2523,-5.2378,-5.2324,-5.1157,-5.0395,-4.9968,0.0,0.0,0.0,0.0,-4.8909,-4.8909,0.0,0.0,0.0,0.0,0.0,0.0,0.0,0.0,0.0,0.0,0.0,0.0,-5.5703,-5.5703,-5.5703,-5.5703,-5.5703,-5.5703,-5.5703,-5.5703,-5.5684,-5.5682,-5.5662,-5.5629,-5.5551,-5.5551,-5.5516,-5.5476,-5.542,-5.5439,-5.5476,-5.5468,-5.548,-5.548,-5.5492,-5.5562,-5.5662,-5.5662,-5.5673,0.0,0.0,0.0,0.0,0.0,0.0,0.0,0.0,0.0,0.0,0.0,0.0,0.0,0.0,0.0,0.0,0.0,0.0,0.0,0.0,0.0,0.0,0.0,0.0,0.0,0.0,0.0,0.0,0.0,0.0,0.0,0.0,0.0,0.0,0.0,0.0,0.0,0.0,-5.2076,-5.2203,-5.1651,-5.254,-5.2995,0.0,0.0,0.0,0.0,0.0,0.0,-5.3185,-5.3185,-5.3185,-5.3185,-5.3185,-5.3185,-5.3185,-5.3185,-5.3185,-5.3185,-5.3185,-5.323,-5.3256,-5.3256,-5.3226,-5.3068,-5.2498,-5.213,-5.1835,-5.0565,-4.9692,-4.9153,-4.8913,-4.8838,-4.8874,-4.8839,-4.882,-4.882,0.0,0.0,0.0,0.0,0.0,0.0,0.0,0.0,0.0,0.0,0.0,-5.5703,-5.5703,-5.5703,-5.5703,-5.5703,-5.5703,-5.5703,-5.5703,-5.5703,-5.5662,-5.5607,-5.5607,-5.5539,-5.542,-5.5408,-5.5421,-5.5403,-5.539,-5.539,-5.5416,-5.5421,-5.5408,-5.5408,-5.5468,-5.5539,-5.5607,-5.5607,-5.564,-5.5703,0.0,0.0,0.0,0.0,0.0,0.0,0.0,0.0,0.0,0.0,0.0,0.0,0.0,0.0,0.0,0.0,0.0,0.0,0.0,0.0,0.0,0.0,0.0,0.0,0.0,0.0,0.0,0.0,0.0,0.0,0.0,0.0,0.0,0.0,0.0,0.0,0.0,0.0,0.0,-5.1651,-5.254,0.0,0.0,0.0,0.0,-5.3185,-5.3185,-5.3185,-5.3185,-5.3185,-5.3185,-5.3185,-5.3185,-5.3185,-5.3185,-5.3185,-5.3185,-5.3185,-5.3185,-5.3206,-5.3206,-5.3206,-5.2784,-5.2071,-5.2099,-5.1698,-5.0925,-5.0137,-4.988,-4.9861,-4.8956,-4.8678,-4.8787,-4.866,-4.8605,-4.8623,0.0,0.0,0.0,0.0,0.0,-5.6328,-5.6416,-5.6122,-5.5923,-5.5952,-5.5798,-5.5703,-5.5703,-5.5703,-5.5703,-5.5703,-5.5703,-5.5703,-5.5703,-5.5703,-5.5662,-5.5596,-5.5596,-5.5562,-5.5468,-5.542,-5.5395,-5.5409,-5.5403,-5.5409,-5.5403,-5.5409,-5.539,-5.539,-5.5415,-5.5446,-5.548,-5.5562,-5.5607,-5.5649,-5.5649,-5.5406,0.0,0.0,0.0,0.0,0.0,0.0,0.0,0.0,0.0,0.0,0.0,0.0,0.0,0.0,0.0,0.0,0.0,0.0,0.0,0.0,0.0,0.0,0.0,0.0,0.0,0.0,0.0,0.0,0.0,0.0,0.0,0.0,0.0,0.0,0.0,0.0,0.0,-5.1651,-5.254,0.0,-5.2454,-5.289,-5.3185,-5.3185,-5.3185,-5.3185,-5.3185,-5.3185,-5.3185,-5.3185,-5.3185,-5.3185,-5.3185,-5.3185,-5.3185,-5.3185,-5.3185,-5.3185,-5.3185,-5.3185,-5.3041,-5.2766,-5.2787,-5.2642,-5.2312,-5.1546,-5.102,-5.0619,-4.9713,-4.94,-4.9381,-4.8808,-4.8605,-4.8605,0.0,0.0,0.0,0.0,0.0,-5.6407,-5.6482,-5.6173,-5.5945,-5.599,-5.5827,-5.5703,-5.5703,-5.5703,-5.5703,-5.5703,-5.5703,-5.5703,-5.5703,-5.5692,-5.5649,-5.5573,-5.5547,-5.5499,-5.547,-5.5434,-5.5409,-5.5409,-5.5396,-5.5403,-5.5403,-5.5403,-5.5403,-5.5403,-5.5403,-5.5409,-5.5421,-5.5492,-5.5551,-5.5562,-5.5562,-5.5382,-5.5086,0.0,0.0,0.0,0.0,0.0,0.0,0.0,0.0,0.0,0.0,0.0,0.0,0.0,0.0,0.0,0.0,0.0,0.0,0.0,0.0,0.0,0.0,0.0,0.0,0.0,0.0,0.0,0.0,0.0,0.0,0.0,0.0,0.0,0.0,-5.1449,-5.1939,-5.1373,-5.2449,-5.2995,-5.2454,-5.289,-5.3185,-5.3185,-5.3463,-5.361,-5.361,-5.3867,-5.4014,-5.4014,-5.4014,-5.4014,-5.4014,-5.4014,-5.4014,-5.4014,-5.4014,-5.3867,-5.361,-5.361,-5.3463,-5.3185,-5.3185,-5.3185,-5.317,-5.2619,-5.2169,-5.1701,-5.0577,-5.0154,-5.0062,-4.9232,-4.8937,-4.8901,0.0,0.0,0.0,0.0,0.0,-5.6508,-5.6508,-5.6222,-5.6005,-5.6005,-5.5827,-5.5703,-5.5703,-5.5703,-5.5703,-5.5703,-5.5703,-5.5703,-5.5703,-5.5629,-5.5573,-5.5504,-5.544,-5.5403,-5.5403,-5.5403,-5.5403,-5.5403,-5.5403,-5.5403,-5.5403,-5.5403,-5.5403,-5.5403,-5.5403,-5.5403,-5.5403,-5.539,-5.5444,-5.5504,-5.5504,-5.5456,-5.5351,0.0,0.0,0.0,0.0,0.0,0.0,0.0,0.0,0.0,0.0,0.0,0.0,0.0,0.0,0.0,0.0,0.0,0.0,0.0,0.0,0.0,0.0,0.0,0.0,0.0,0.0,0.0,0.0,0.0,0.0,0.0,0.0,0.0,-5.0109,-5.0937,-5.1398,-5.091,-5.2244,-5.2995,-5.2477,-5.2908,-5.3243,-5.3243,-5.3977,-5.4436,-5.4436,-5.517,-5.5614,-5.5614,-5.5614,-5.5614,-5.5614,-5.5614,-5.5614,-5.5614,-5.5614,-5.5188,-5.4436,-5.4418,-5.3977,-5.3243,-5.3203,-5.3185,-5.3185,-5.3185,-5.3185,-5.3038,-5.1463,-5.0881,-5.083,-4.9961,-4.9629,-4.95,0.0,0.0,0.0,-5.6894,-5.6532,-5.6508,-5.6508,-5.6222,-5.6005,-5.6005,-5.5827,-5.5703,-5.5703,-5.5703,-5.5703,-5.5703,-5.5703,-5.5703,-5.5703,-5.5673,-5.564,-5.5573,0.0,0.0,-5.539,-5.539,-5.5403,-5.5403,-5.5403,-5.5403,-5.5403,-5.5403,-5.5403,-5.5403,-5.5403,-5.5409,-5.539,-5.5395,-5.5444,-5.5492,-5.5456,-5.542,-5.5371,0.0,0.0,0.0,0.0,0.0,0.0,0.0,0.0,0.0,0.0,0.0,0.0,0.0,0.0,0.0,0.0,0.0,0.0,0.0,0.0,0.0,0.0,0.0,0.0,0.0,0.0,0.0,0.0,0.0,0.0,0.0,-5.012,-5.0302,-5.0564,-5.1158,-5.1694,-5.1939,-5.2361,-5.2698,-5.2974,-5.3634,-5.4069,-5.4069,-5.4821,-5.5262,-5.5262,-5.5464,-5.5614,-5.5614,-5.5614,-5.5614,-5.5614,-5.5614,-5.5614,-5.5614,-5.5614,-5.5464,-5.5244,-5.4675,-5.4289,-5.4051,-5.3463,-5.3185,-5.3185,-5.3185,-5.3185,-5.3093,-5.2068,-5.1685,-5.1595,-5.0785,-5.0086,-4.9574,0.0,0.0,0.0,-5.7383,-5.6813,-5.6527,-5.6491,-5.6261,-5.6057,-5.6013,-5.5827,-5.5703,-5.5703,-5.5703,-5.5703,-5.5703,-5.5703,-5.5703,-5.5703,-5.5662,-5.5618,0.0,0.0,-5.548,-5.5444,-5.5444,-5.5439,-5.544,-5.544,-5.544,-5.544,-5.544,-5.544,-5.544,-5.544,-5.5446,-5.5444,-5.5444,-5.5468,-5.5492,-5.5456,-5.5432,-5.5364,-5.5138,-5.4746,-5.4281,-5.4034,-5.3622,-5.3185,-5.3185,0.0,0.0,0.0,0.0,0.0,0.0,0.0,0.0,0.0,0.0,0.0,0.0,0.0,0.0,0.0,0.0,0.0,0.0,0.0,0.0,0.0,0.0,0.0,0.0,-4.983,-4.9988,-5.0296,-5.1061,-5.1719,-5.2036,-5.2744,-5.3361,-5.3659,-5.4436,-5.4895,-5.4895,-5.5647,-5.6106,-5.6106,-5.6418,-5.6602,-5.6602,-5.6602,-5.6602,-5.6602,-5.6602,-5.6602,-5.6602,-5.6602,-5.6418,-5.6088,-5.5629,-5.5042,-5.4363,-5.3922,-5.3518,-5.3185,-5.3185,-5.3185,-5.3148,0.0,0.0,0.0,0.0,-5.0784,-5.0086,0.0,0.0,0.0,-5.8047,-5.7168,-5.6558,-5.6487,-5.6312,-5.6128,-5.6017,-5.5808,-5.5703,-5.5703,-5.5703,-5.5703,-5.5703,-5.5703,-5.5703,-5.5703,-5.564,0.0,-5.5527,-5.5527,-5.5516,-5.5516,-5.5516,-5.5504,-5.5504,-5.5504,-5.5504,-5.5504,-5.5504,-5.5504,-5.5504,-5.5504,-5.5504,-5.5516,-5.5516,-5.5516,-5.5527,-5.5527,-5.548,-5.5408,-5.5408,-5.4952,-5.4296,-5.4296,-5.3833,-5.3185,-5.3185,0.0,0.0,0.0,0.0,0.0,0.0,0.0,0.0,0.0,0.0,0.0,0.0,0.0,0.0,0.0,0.0,0.0,0.0,0.0,0.0,0.0,0.0,0.0,0.0,-4.959,-4.9679,-4.9679,-5.0784,-5.1617,-5.1643,-5.3103,-5.418,-5.4316,-5.5115,-5.5636,-5.5636,-5.6451,-5.695,-5.695,-5.7611,0.0,0.0,0.0,-5.7997,-5.7997,-5.7997,-5.7997,-5.7997,-5.7997,-5.7629,-5.6932,-5.684,-5.5978,-5.4528,-5.4436,-5.394,-5.3185,-5.3185,-5.3185,-5.3185,-5.3185,-5.3185,-5.3115,-5.2399,-5.1628,-5.0949,0.0,0.0,0.0,-5.8047,-5.7122,-5.6487,-5.6367,-5.6164,-5.6009,-5.5922,-5.5797,-5.5703,-5.5703,-5.5703,-5.5703,-5.5703,-5.5703,-5.5703,-5.5703,-5.5692,-5.5662,-5.5651,-5.5651,-5.5649,-5.5585,-5.5573,-5.5551,-5.5504,-5.5504,-5.5504,-5.5504,-5.5504,-5.5504,-5.5504,-5.5504,-5.5527,-5.5573,-5.5573,-5.5607,-5.5651,-5.5651,-5.5585,-5.548,-5.542,-5.4981,-5.4378,-5.4313,-5.3833,-5.3185,-5.3185,-5.3185,-5.3185,-5.3185,-5.3143,0.0,0.0,0.0,0.0,0.0,0.0,0.0,0.0,0.0,0.0,0.0,0.0,0.0,0.0,0.0,0.0,0.0,0.0,0.0,-4.9518,-4.9518,-4.9547,-4.9547,-5.0771,-5.1726,-5.1835,-5.2147,-5.2785,-5.3823,-5.5074,-5.5849,-5.5849,-5.7032,-5.7776,-5.7776,-5.7923,-5.7997,-5.7997,-5.7997,-5.7997,-5.7997,-5.7997,-5.7997,-5.7997,-5.7997,0.0,-5.7758,-5.7097,-5.629,-5.5317,-5.4675,-5.394,-5.3185,-5.3185,-5.3185,-5.3185,-5.3185,-5.3185,-5.3167,-5.3041,-5.2454,-5.1756,0.0,0.0,0.0,-5.8633,-5.7411,-5.6453,-5.6324,-5.6128,-5.5982,-5.5904,-5.5776,-5.5703,-5.5703,-5.5703,-5.5703,-5.5703,-5.5703,-5.5703,-5.5703,-5.5703,-5.5703,-5.5703,-5.5703,-5.5673,-5.564,-5.564,-5.5629,-5.5596,-5.5596,-5.5596,-5.5596,-5.5596,-5.5596,-5.5596,-5.5596,-5.5618,-5.564,-5.564,-5.5662,-5.5703,-5.5703,-5.5629,-5.5539,-5.548,-5.499,-5.4347,-5.4313,-5.3833,-5.3185,-5.3185,-5.3185,-5.3185,-5.3185,-5.3185,-5.3143,0.0,0.0,0.0,0.0,0.0,0.0,0.0,0.0,0.0,0.0,0.0,0.0,0.0,0.0,-4.9602,-4.9307,0.0,-4.9246,-4.9246,-4.9307,-4.935,-4.935,-5.0403,-5.1292,-5.1749,-5.2805,-5.3869,-5.475,-5.5855,-5.6617,-5.6921,-5.7601,-5.7997,-5.7997,-5.7997,-5.7997,-5.7997,-5.7997,-5.7997,-5.7997,-5.7997,-5.7997,-5.7997,-5.7997,-5.7997,-5.7997,-5.7574,-5.673,-5.5596,-5.517,-5.4326,-5.3185,-5.3185,-5.3185,-5.3185,-5.3185,-5.3185,-5.3185,-5.3185,-5.2949,-5.2601,0.0,0.0,0.0,-5.9198,-5.7793,-5.6608,-5.6309,-5.6104,-5.596,-5.5885,-5.5785,-5.5703,-5.5703,-5.5703,-5.5703,-5.5703,-5.5703,-5.5703,0.0,-5.5703,-5.5703,-5.5703,-5.5703,-5.5703,-5.5703,-5.5703,-5.5703,-5.5703,-5.5703,-5.5703,-5.5703,-5.5703,-5.5703,-5.5703,-5.5703,-5.5703,-5.5703,-5.5703,-5.5703,-5.5703,-5.5703,-5.5651,-5.5585,-5.5527,-5.5045,-5.4413,-5.4332,-5.387,-5.3293,-5.3227,-5.3185,-5.3185,-5.3185,-5.3185,-5.3185,-5.3185,-5.3164,0.0,0.0,0.0,0.0,0.0,0.0,0.0,0.0,-5.0442,-5.0017,-4.9919,-4.9988,-4.9844,-4.9138,-4.9094,-4.9138,-4.9032,-4.9094,-4.9168,-4.9168,-5.0073,-5.1003,-5.1605,-5.3451,-5.499,-5.5723,-5.649,-5.7209,-5.7774,-5.7932,-5.7997,-5.7997,-5.7997,-5.7997,-5.7997,-5.7997,-5.7997,-5.7997,-5.7997,-5.7997,-5.7997,-5.7997,-5.7997,-5.7997,-5.7997,-5.7116,-5.5596,-5.5262,-5.4399,-5.3185,-5.3185,-5.3185,-5.3185,-5.3185,-5.3185,-5.3185,-5.3185,-5.3185,-5.3185,0.0,0.0,0.0,0.0,0.0,-5.7166,-5.6259,-5.5996,-5.5895,-5.5826,-5.5745,-5.5703,-5.5703,-5.5703,-5.5703,-5.5703,-5.5703,-5.5703,-5.5703,-5.5703,-5.5703,-5.5703,-5.5703,-5.5703,-5.5703,-5.5703,-5.5703,-5.5703,-5.5703,-5.5703,-5.5703,-5.5703,-5.5703,-5.5703,-5.5703,-5.5703,-5.5703,-5.5703,-5.5703,-5.5703,-5.5703,-5.5651,-5.5585,-5.5527,-5.5211,-5.4787,-5.443,-5.4016,-5.3603,-5.3314,-5.3185,-5.3185,-5.3185,-5.3185,-5.3185,-5.3185,-5.3039,-5.2846,-5.2846,-5.2645,-5.241,-5.2322,-5.186,-5.1424,0.0,-5.1034,-5.047,-4.9988,-5.0293,-5.0276,-4.9182,-4.9453,-4.9615,-4.9094,-4.9001,-4.9032,-4.9032,-5.0408,-5.1418,-5.1495,-5.2588,-5.3901,-5.532,-5.6029,-5.6625,-5.7166,-5.7703,-5.7997,-5.7997,-5.7997,-5.7997,-5.7997,-5.7997,-5.7997,-5.7997,-5.7997,-5.7997,-5.7997,-5.7997,-5.7997,-5.7997,-5.7997,-5.7116,-5.5522,-5.4087,-5.3369,-5.3185,-5.3185,-5.3185,-5.3185,-5.3185,-5.3185,-5.3185,-5.3185,-5.3185,-5.3185,0.0,0.0,0.0,0.0,0.0,-5.7269,-5.6246,-5.6001,-5.5885,-5.5816,-5.5745,-5.5703,-5.5703,-5.5703,-5.5703,-5.5703,-5.5703,0.0,-5.5703,-5.5703,-5.5703,-5.5703,-5.5703,-5.5703,-5.5703,-5.5703,-5.5703,-5.5703,-5.5703,-5.5703,-5.5703,-5.5703,-5.5703,-5.5703,-5.5703,-5.5703,-5.5703,-5.5703,-5.5703,-5.5703,-5.5703,-5.5651,-5.5585,-5.5527,-5.5376,-5.5151,-5.4746,-5.4209,0.0,0.0,-5.3359,-5.3185,-5.3185,-5.3185,-5.3185,-5.3185,-5.306,-5.2872,-5.2739,-5.2599,-5.2498,-5.2498,-5.2048,-5.1694,-5.2048,-5.1651,-5.1157,-5.0938,-5.1052,-5.0867,-4.9744,-4.9715,-4.9686,-4.9077,-4.9001,-4.9154,-4.9576,-5.0621,-5.1515,-5.2102,-5.2912,-5.3908,-5.5094,-5.5766,-5.6403,-5.7047,-5.766,-5.7997,-5.7997,-5.7997,-5.7997,-5.7997,-5.7997,-5.7997,-5.7997,-5.7997,-5.7997,-5.7997,-5.7997,-5.7997,-5.7997,-5.7997,-5.7116,-5.55,-5.3904,-5.3185,-5.3185,-5.3185,-5.3185,-5.3185,-5.3185,-5.3185,-5.3185,-5.3185,-5.3185,-5.3185,0.0,0.0,0.0,0.0,0.0,-5.7495,-5.626,-5.5995,-5.5895,-5.5797,-5.5756,-5.5724,-5.5714,-5.5703,-5.5703,-5.5703,-5.5703,0.0,0.0,-5.5703,-5.5703,-5.5703,-5.5703,-5.5703,-5.5703,-5.5703,-5.5703,-5.5703,-5.5703,-5.5703,-5.5703,-5.5703,-5.5703,-5.5703,-5.5703,-5.5703,-5.5703,-5.5703,-5.5703,-5.5703,-5.5703,-5.5662,-5.5618,-5.5551,-5.5504,-5.5376,-5.4866,-5.4328,0.0,0.0,-5.34,-5.3185,-5.3185,-5.3185,-5.3185,-5.3185,-5.3082,-5.2893,-5.2658,-5.2536,-5.2498,-5.2498,-5.2162,-5.1957,-5.241,-5.2162,-5.1811,-5.1626,-5.1719,-5.15,-5.0321,-5.0113,-4.993,-4.9333,-4.9107,-4.9249,-4.9943,-5.0687,-5.1549,-5.2445,-5.3205,-5.4044,-5.4991,-5.5634,-5.6304,-5.7047,-5.766,-5.7997,-5.7997,-5.7997,-5.7997,-5.7997,-5.7997,-5.7997,-5.7997,-5.7997,-5.7997,-5.7997,-5.7997,-5.7997,-5.7978,-5.7538,-5.6693,-5.55,-5.3904,-5.3185,-5.3185,-5.3185,-5.3185,-5.3185,-5.3185,-5.3185,-5.3185,-5.3185,-5.3185,-5.3185,0.0,0.0,0.0,0.0,0.0,-5.8069,-5.6276,-5.5999,-5.5962,-5.5826,-5.5787,-5.5766,-5.5714,-5.5703,-5.5703,-5.5703,-5.5703,-5.5703,-5.5703,-5.5703,-5.5703,-5.5703,-5.5703,-5.5703,-5.5703,-5.5703,-5.5703,-5.5703,-5.5703,-5.5703,-5.5703,-5.5703,-5.5703,-5.5703,-5.5703,-5.5703,-5.5703,-5.5703,-5.5703,-5.5703,-5.5703,-5.5703,-5.5692,-5.5618,-5.5596,-5.5485,-5.462,0.0,0.0,0.0,-5.3206,-5.3185,-5.3185,-5.3185,-5.3185,-5.3185,-5.3017,-5.2783,-5.2654,-5.2536,-5.2498,-5.2498,-5.2498,-5.2475,-5.2498,-5.2498,-5.2298,-5.1719,-5.2066,-5.2096,-5.0885,-5.0697,-5.0497,-4.9959,-4.9394,-4.9199,-4.9808,-5.0659,-5.1488,-5.2321,-5.3043,-5.3931,-5.4991,-5.5634,-5.6304,-5.7047,-5.766,-5.7997,-5.7997,-5.7997,-5.7997,-5.7997,-5.7997,-5.7997,-5.7997,-5.7997,-5.7997,-5.7997,-5.7997,-5.7997,-5.7941,-5.6363,-5.5669,-5.55,-5.3904,-5.3185,-5.3185,-5.3185,-5.3185,-5.3185,-5.3185,-5.3185,-5.3185,-5.3185,-5.3185,-5.3185,0.0,0.0,0.0,0.0,0.0,0.0,-5.7135,-5.6338,-5.5905,-5.5797,-5.5756,0.0,0.0,0.0,0.0,0.0,-5.5703,-5.5703,-5.5703,-5.5703,-5.5703,-5.5703,-5.5703,-5.5703,-5.5703,-5.5703,-5.5703,-5.5703,-5.5703,-5.5703,-5.5703,-5.5703,-5.5703,-5.5703,-5.5703,-5.5703,-5.5703,-5.5703,-5.5703,-5.5703,-5.5703,-5.5703,-5.5684,-5.5618,-5.5596,-5.552,0.0,0.0,0.0,0.0,-5.3601,-5.3185,-5.3185,-5.3185,-5.3185,-5.3103,-5.2999,-5.2872,-5.2676,-5.2586,-5.2559,-5.2503,-5.2498,-5.2498,-5.2498,-5.2498,-5.2434,-5.2251,-5.2364,-5.2251,-5.1432,-5.0982,-5.0507,-4.9988,-4.9394,-4.9369,-5.0462,-5.1331,-5.2321,-5.3579,-5.3942,-5.4485,-5.5478,-5.5702,-5.6159,-5.7022,-5.766,-5.7997,-5.7997,-5.7997,-5.7997,-5.7997,-5.7997,-5.7997,-5.7997,-5.7997,-5.7997,-5.7997,-5.7997,-5.7721,-5.7171,-5.6088,-5.5299,-5.473,-5.3683,-5.3185,-5.3185,-5.3185,-5.3185,-5.3185,-5.3185,-5.3185,-5.3185,-5.3185,-5.3185,-5.3185,0.0,0.0,0.0,0.0,0.0,0.0,0.0,0.0,0.0,0.0,0.0,0.0,0.0,0.0,0.0,0.0,0.0,-5.5703,-5.5703,0.0,-5.5703,-5.5703,-5.5703,-5.5703,-5.5703,-5.5703,-5.5703,-5.5703,-5.5703,-5.5703,-5.5703,-5.5703,-5.5703,-5.5703,-5.5703,-5.5703,-5.5703,-5.5703,-5.5703,-5.5703,-5.5703,-5.5703,-5.5703,-5.564,-5.5649,0.0,0.0,0.0,0.0,0.0,-5.3889,-5.338,-5.338,-5.3314,-5.3185,-5.3103,-5.3042,-5.2937,-5.2721,-5.2654,-5.2586,-5.2503,-5.2498,-5.2498,-5.2498,-5.2498,-5.2498,-5.2498,-5.2498,-5.2387,-5.2,-5.1432,-5.0849,-5.0265,-4.9855,-4.9928,-5.0772,-5.1605,-5.266,-5.4166,-5.4367,-5.4839,-5.6002,-5.6122,-5.6394,-5.6971,-5.7637,-5.7997,-5.7997,-5.7997,-5.7997,-5.7997,-5.7997,-5.7997,-5.7997,-5.7997,-5.7997,-5.7997,-5.7703,-5.7299,-5.6767,-5.5666,-5.4876,-5.4363,-5.3555,-5.3185,-5.3185,-5.3185,-5.3185,-5.3185,-5.3185,-5.3185,-5.3185,-5.3185,-5.3185,-5.3185,0.0,0.0,0.0,0.0,0.0,0.0,0.0,0.0,0.0,0.0,0.0,0.0,0.0,0.0,0.0,0.0,0.0,0.0,0.0,0.0,0.0,-5.5703,-5.5703,-5.5703,-5.5703,-5.5703,-5.5703,-5.5703,-5.5703,-5.5703,-5.5703,-5.5703,-5.5703,-5.5703,-5.5703,-5.5703,-5.5703,-5.5703,-5.5703,-5.5703,-5.5703,-5.5703,-5.5703,-5.5703,0.0,0.0,0.0,0.0,0.0,-5.4476,-5.4052,-5.3701,-5.3701,-5.3482,-5.3185,-5.3185,-5.3103,-5.2977,-5.285,-5.2698,-5.2586,-5.2526,-5.2498,-5.2498,-5.2498,-5.2498,-5.2498,-5.2498,-5.2498,-5.2498,-5.2498,-5.2,-5.1406,-5.0832,-5.0724,-5.0724,-5.0751,-5.1445,-5.2527,-5.4059,-5.4366,-5.5056,-5.658,-5.6835,-5.6912,-5.6938,-5.7589,-5.7997,-5.7997,-5.7997,-5.7997,-5.7997,-5.7997,-5.7997,-5.7997,-5.7997,-5.7997,-5.7997,-5.7189,-5.6785,-5.6693,-5.5115,-5.4381,-5.4308,-5.3537,-5.3185,-5.3185,-5.3185,-5.3185,-5.3185,-5.3185,-5.3185,-5.3185,-5.3185,-5.3185,-5.3185,0.0,0.0,0.0,0.0,0.0,0.0,0.0,0.0,0.0,0.0,0.0,0.0,0.0,0.0,0.0,0.0,0.0,0.0,0.0,0.0,0.0,0.0,0.0,0.0,0.0,0.0,0.0,0.0,0.0,-5.5703,-5.5703,-5.5703,-5.5703,-5.5703,-5.5703,-5.5703,-5.5703,-5.5703,-5.5703,-5.5703,0.0,-5.5703,-5.5703,0.0,0.0,0.0,0.0,0.0,-5.5307,-5.489,-5.4292,-5.3701,-5.3701,-5.3482,-5.3185,-5.3185,-5.3185,-5.3124,-5.2977,-5.285,-5.2717,-5.2586,-5.2531,-5.2498,-5.2498,-5.2498,-5.2498,-5.2498,-5.2498,-5.2498,-5.2498,-5.2,-5.1551,-5.1406,-5.1008,-5.0858,-5.1329,-5.2074,-5.3133,-5.461,-5.4948,-5.5632,-5.7098,-5.693,-5.693,-5.7394,-5.7792,-5.7997,-5.7997,-5.7997,-5.7997,-5.7997,-5.7997,-5.7997,-5.7997,-5.7997,-5.7997,-5.7997,-5.7189,-5.6492,-5.5868,-5.4858,-5.4069,-5.35,-5.3277,-5.3185,-5.3185,-5.3185,-5.3185,-5.3185,-5.3185,-5.3185,-5.3185,-5.3185,-5.3185,-5.3185,0.0,0.0,0.0,0.0,0.0,0.0,0.0,0.0,0.0,0.0,0.0,0.0,0.0,0.0,0.0,0.0,0.0,0.0,0.0,0.0,0.0,0.0,0.0,0.0,0.0,0.0,0.0,0.0,0.0,0.0,0.0,-5.5703,-5.5703,-5.5703,-5.5703,-5.5703,-5.5703,-5.5703,0.0,0.0,0.0,0.0,0.0,0.0,0.0,0.0,0.0,0.0,-5.5449,-5.5217,-5.4601,-5.3925,-5.3758,-5.3482,-5.3185,-5.3185,-5.3185,-5.3164,-5.3042,-5.2955,-5.285,-5.2721,-5.2627,-5.2554,-5.2554,-5.2526,-5.2498,-5.2498,-5.2498,-5.2498,-5.2498,-5.2209,-5.1909,-5.1626,-5.1551,-5.1508,-5.1576,-5.2229,-5.3116,-5.4308,-5.4857,-5.5584,-5.669,-5.6978,-5.7202,-5.7486,-5.7768,-5.795,-5.7997,-5.7997,-5.7997,-5.7997,-5.7997,-5.7997,-5.7997,-5.7997,-5.7813,-5.7464,-5.6657,-5.5849,-5.5042,-5.4234,-5.3628,-5.3185,-5.3185,-5.3185,-5.3185,-5.3185,-5.3185,-5.3185,-5.3185,-5.3185,-5.3185,-5.3185,-5.3185,-5.3185,0.0,0.0,0.0,0.0,0.0,0.0,0.0,0.0,0.0,0.0,-5.5912,-5.5818,0.0,0.0,0.0,0.0,0.0,0.0,0.0,0.0,0.0,0.0,0.0,0.0,0.0,0.0,0.0,0.0,0.0,0.0,0.0,0.0,0.0,0.0,0.0,0.0,0.0,0.0,0.0,0.0,0.0,0.0,0.0,0.0,0.0,0.0,0.0,0.0,-5.5456,-5.542,-5.4909,-5.4228,-5.3888,-5.3522,-5.3185,-5.3185,-5.3227,-5.323,-5.3063,-5.3063,-5.3045,-5.2872,-5.2739,-5.2613,-5.259,-5.2559,-5.2503,-5.2498,-5.2498,-5.2498,-5.2498,-5.2498,-5.2322,-5.1793,-5.2162,-5.234,-5.1793,-5.2162,-5.2788,-5.3603,-5.4392,-5.5159,-5.5927,-5.6849,-5.7401,-5.7412,-5.7625,-5.7815,-5.7973,-5.7997,-5.7997,-5.7997,-5.7997,-5.7997,-5.7997,-5.7886,-5.7483,-5.6804,-5.5868,-5.5078,-5.4363,-5.3573,-5.3185,-5.3185,-5.3185,-5.3185,-5.3185,-5.3185,-5.3185,-5.3185,-5.3185,-5.3185,-5.3185,-5.3185,-5.3185,-5.3185,0.0,0.0,0.0,0.0,0.0,0.0,0.0,0.0,0.0,0.0,-5.7021,-5.6503,0.0,0.0,0.0,0.0,0.0,0.0,0.0,0.0,0.0,0.0,0.0,0.0,0.0,0.0,0.0,-5.5703,-5.5703,0.0,0.0,0.0,0.0,0.0,0.0,0.0,0.0,0.0,0.0,0.0,0.0,0.0,0.0,0.0,0.0,0.0,0.0,0.0,0.0,0.0,-5.4909,-5.4298,-5.421,-5.3738,-5.3185,-5.3185,-5.34,-5.3563,-5.3251,-5.3281,-5.3348,-5.3027,-5.285,-5.2739,-5.2631,-5.259,-5.2581,-5.2503,-5.2498,-5.2498,-5.2498,-5.2498,-5.2475,-5.2364,-5.2434,-5.2457,-5.2364,-5.2434,-5.2788,-5.3603,-5.3938,-5.4578,-5.5873,-5.6267,-5.6703,-5.7351,-5.7553,-5.7697,-5.7815,-5.795,-5.7997,-5.7997,-5.7997,-5.7997,-5.7997,-5.7336,-5.695,-5.6785,-5.5317,-5.4546,-5.4363,-5.3573,-5.3185,-5.3185,-5.3185,-5.3185,-5.3185,-5.3185,-5.3185,-5.3185,-5.3185,-5.3185,-5.3185,-5.3185,-5.3185,-5.3185,0.0,0.0,0.0,0.0,0.0,0.0,0.0,-6.0076,-5.9543,-5.8517,-5.8031,-5.7306,-5.5994,-5.6001,-5.5945,0.0,0.0,0.0,0.0,0.0,0.0,0.0,0.0,0.0,0.0,-5.5703,-5.5703,-5.5703,0.0,-5.5703,-5.5703,-5.5703,-5.5703,-5.5703,-5.5703,-5.5703,0.0,0.0,0.0,0.0,0.0,0.0,0.0,0.0,0.0,0.0,0.0,0.0,0.0,0.0,-5.4952,-5.4572,-5.4364,-5.3907,-5.344,-5.3251,-5.3422,-5.3642,-5.3293,-5.3402,-5.3527,-5.3191,-5.2999,-5.2893,-5.2809,-5.2698,-5.2586,-5.2559,-5.2526,-5.2498,-5.2498,-5.2498,-5.2498,-5.2498,-5.2498,-5.2498,-5.2498,-5.2498,-5.2643,-5.3023,-5.3487,-5.4235,-5.5305,-5.5831,-5.6418,-5.7234,-5.7412,-5.7577,-5.7792,-5.7927,-5.7997,-5.7997,-5.7997,-5.7795,-5.7373,-5.6987,-5.6381,-5.5537,-5.4766,-5.4179,-5.3775,-5.339,-5.3185,-5.3185,-5.3185,-5.3185,-5.3185,-5.3185,-5.3185,-5.3185,-5.3185,-5.3185,-5.3185,-5.3185,-5.3185,-5.3185,0.0,0.0,0.0,0.0,0.0,0.0,-6.09,-6.0559,-6.0017,-5.9278,-5.8927,-5.8157,-5.65,-5.6519,-5.6341,0.0,0.0,0.0,0.0,0.0,0.0,0.0,0.0,0.0,0.0,0.0,0.0,-5.5703,-5.5703,0.0,0.0,0.0,0.0,0.0,-5.5703,-5.5703,-5.5703,-5.5703,0.0,0.0,0.0,-5.5703,0.0,0.0,0.0,0.0,0.0,-5.5223,-5.5116,-5.5121,-5.5083,-5.4976,-5.4557,-5.4087,-5.3662,-5.338,-5.3484,-5.3642,-5.3293,-5.3442,-5.3623,-5.3293,-5.3124,-5.3042,-5.2999,-5.285,-5.2676,-5.2654,-5.2581,-5.2526,-5.2526,-5.2503,-5.2498,-5.2498,-5.2498,-5.2498,-5.2498,-5.2498,-5.2498,-5.2498,-5.3059,-5.3766,-5.4562,-5.5323,-5.6084,-5.688,-5.7223,-5.7528,-5.7792,-5.7927,-5.7997,-5.7997,-5.7831,-5.7446,-5.6822,-5.6473,-5.5647,-5.4399,-5.4234,-5.3812,-5.3185,-5.3185,-5.3185,-5.3185,-5.3185,-5.3185,-5.3185,-5.3185,-5.3185,-5.3185,-5.3185,-5.3185,-5.3185,-5.3185,-5.3185,-5.3185,0.0,0.0,0.0,0.0,0.0,0.0,-6.0823,-6.052,-6.0156,-5.9792,-5.9693,-5.9086,-5.7542,-5.7234,-5.6815,0.0,0.0,0.0,0.0,0.0,0.0,0.0,0.0,0.0,0.0,0.0,0.0,-5.5703,-5.5703,0.0,0.0,0.0,0.0,0.0,0.0,-5.5703,-5.5703,-5.5703,0.0,0.0,0.0,0.0,0.0,0.0,0.0,0.0,0.0,-5.5097,-5.4866,-5.5116,-5.5339,-5.5442,-5.499,-5.4307,-5.3701,-5.3662,-5.3682,-5.3642,-5.3293,-5.3442,-5.3623,-5.3293,-5.3185,-5.3164,-5.302,-5.2999,-5.2915,-5.2806,-5.2676,-5.2586,-5.2586,-5.2554,-5.2498,-5.2498,-5.2498,-5.2498,-5.2498,-5.2498,-5.2498,-5.2498,-5.257,-5.2933,-5.3729,-5.4526,-5.5305,-5.6047,-5.6914,-5.7528,-5.7792,-5.7927,-5.7997,-5.7997,-5.7299,-5.6877,-5.6804,-5.5354,-5.4546,-5.4399,-5.3665,-5.328,-5.3185,-5.3185,-5.3185,-5.3185,-5.3185,-5.3185,-5.3185,-5.3185,-5.3185,-5.3185,-5.3185,-5.3185,-5.3185,-5.3185,-5.3185,-5.3185,0.0,0.0,0.0,0.0,0.0,0.0,-6.0546,-6.0223,-5.9852,-5.9485,-5.9252,-5.8912,-5.8293,-5.8161,-5.764,-5.6517,-5.5781,0.0,0.0,0.0,0.0,0.0,0.0,0.0,0.0,0.0,-5.5703,-5.5703,-5.5703,0.0,0.0,0.0,0.0,0.0,0.0,-5.5703,-5.5703,-5.5703,0.0,0.0,0.0,0.0,0.0,0.0,0.0,0.0,0.0,0.0,-5.4544,-5.4806,-5.5097,-5.5339,-5.523,-5.4842,-5.4324,-5.3851,-5.387,-5.3944,-5.3357,-5.3442,-5.3623,-5.3293,-5.3185,-5.3185,-5.3124,-5.306,-5.2999,-5.2915,-5.2743,-5.259,-5.259,-5.2554,-5.2498,-5.2498,-5.2498,-5.2498,-5.2498,-5.2498,-5.2498,-5.2498,-5.2498,-5.2824,-5.3621,-5.4001,-5.4671,-5.5903,-5.6406,-5.6752,-5.6961,-5.7536,-5.7689,-5.7299,-5.6969,-5.6345,-5.5372,-5.473,-5.4161,-5.3683,-5.3353,-5.3185,-5.3185,-5.3185,-5.3185,-5.3185,-5.3185,-5.3185,-5.3185,-5.3185,-5.3185,-5.3185,-5.3185,-5.3185,-5.3185,-5.3185,-5.3185,-5.3185,0.0,0.0,0.0,0.0,0.0,-6.0746,-6.0368,-6.003,-5.9658,-5.9233,-5.8906,-5.8716,-5.8716,-5.8716,-5.8317,-5.736,-5.6347,0.0,0.0,0.0,0.0,0.0,0.0,0.0,0.0,0.0,-5.5703,-5.5703,-5.5703,-5.5703,0.0,0.0,-5.5703,-5.5703,0.0,0.0,0.0,0.0,0.0,0.0,0.0,0.0,0.0,0.0,0.0,0.0,0.0,0.0,0.0,0.0,0.0,-5.5223,-5.5191,0.0,0.0,-5.4189,-5.4069,-5.3998,-5.3482,-5.3442,-5.3502,-5.3251,-5.3185,-5.3185,-5.3185,-5.3143,-5.306,-5.306,-5.2872,-5.2721,-5.2676,-5.2581,-5.2526,-5.2498,-5.2498,-5.2498,-5.2498,-5.2498,-5.2498,-5.2498,-5.2498,-5.2715,-5.3295,-5.3566,-5.4255,-5.5577,-5.5765,-5.5861,-5.598,-5.6604,-5.6799,-5.6473,-5.6216,-5.5556,-5.4418,-5.4161,-5.3736,-5.3143,-5.3185,-5.3185,-5.3143,-5.3185,-5.3185,-5.3185,-5.3185,-5.3185,-5.3185,-5.3185,-5.3185,-5.3185,-5.3185,-5.3185,-5.3185,-5.3185,-5.3185,-5.3185,0.0,0.0,0.0,0.0,0.0,-6.0697,-6.0349,-6.003,-5.9658,-5.9233,-5.8906,-5.8716,-5.8716,-5.8716,-5.8698,-5.8679,-5.7936,0.0,0.0,0.0,0.0,0.0,0.0,0.0,0.0,0.0,-5.5703,-5.5703,-5.5703,-5.5703,-5.5703,-5.5703,-5.5703,-5.5703,0.0,0.0,0.0,0.0,-5.5703,-5.5703,0.0,0.0,0.0,0.0,0.0,0.0,0.0,0.0,0.0,0.0,0.0,0.0,0.0,-5.4847,-5.4971,0.0,-5.4276,-5.3701,-5.3701,-5.3462,-5.3206,-5.3185,-5.3185,-5.3185,-5.3185,-5.3185,-5.3185,-5.3185,-5.3082,-5.2955,-5.2828,-5.2698,-5.2586,-5.2503,-5.2498,-5.2498,-5.2498,-5.2498,-5.2498,-5.2498,-5.2498,-5.2498,-5.2498,-5.3222,-5.4037,-5.4852,-5.4907,-5.4937,-5.5002,-5.5025,-5.5207,-5.5592,-5.484,-5.4418,-5.4399,-5.361,-5.3143,-5.2999,-5.3143,-5.3124,-5.2999,-5.3143,-5.3185,-5.3185,-5.3185,-5.3185,-5.3185,-5.3185,-5.3185,-5.3185,-5.3185,-5.3185,-5.3185,-5.3185,-5.3185,-5.3185,0.0,0.0,0.0,0.0,0.0,0.0,-6.0011,-5.9639,-5.9252,-5.8906,-5.8781,-5.8716,-5.8716,-5.8716,-5.8716,-5.8716,-5.7973,0.0,0.0,0.0,0.0,0.0,0.0,0.0,0.0,-5.5703,-5.5703,-5.5703,-5.5703,-5.5703,-5.5703,-5.5703,-5.5703,-5.5703,-5.5703,-5.5703,0.0,-5.5703,-5.5703,-5.5703,0.0,0.0,-5.5275,0.0,0.0,0.0,0.0,0.0,0.0,0.0,0.0,0.0,0.0,0.0,0.0,-5.4538,-5.4121,-5.3643,-5.3402,-5.3293,-5.3185,-5.3185,-5.3185,-5.3185,-5.3185,-5.3185,-5.3185,-5.3185,-5.3103,-5.2955,-5.2828,-5.2698,-5.2586,-5.2503,-5.2498,-5.2498,-5.2498,-5.2498,-5.2498,-5.2498,-5.2498,-5.2498,-5.2498,-5.2733,-5.3204,-5.4019,-5.4092,-5.4103,-5.4166,-5.4189,-5.4328,-5.4635,-5.4397,-5.4037,-5.3592,-5.3231,-5.3042,-5.2999,-5.3042,-5.3042,-5.2999,-5.3143,-5.3185,-5.3185,-5.3185,-5.3185,-5.3185,-5.3185,-5.3185,-5.3185,-5.3185,-5.3185,-5.3185,-5.3185,-5.3185,-5.3185,0.0,0.0,0.0,0.0,0.0,0.0,-5.9839,-5.9467,-5.9083,-5.8739,-5.8716,-5.8716,-5.8716,-5.8716,-5.8716,-5.8716,-5.8252,0.0,0.0,0.0,0.0,0.0,0.0,0.0,-5.5703,-5.5703,-5.5703,-5.5703,-5.5703,-5.5703,-5.5703,-5.5703,-5.5703,-5.5703,-5.5703,-5.5703,0.0,-5.5703,-5.5703,-5.5703,0.0,0.0,-5.5064,0.0,0.0,0.0,0.0,0.0,0.0,0.0,0.0,0.0,0.0,0.0,0.0,0.0,-5.3795,-5.3484,-5.342,-5.3314,-5.3185,-5.3185,-5.3185,-5.3185,-5.3185,-5.3185,-5.3185,-5.3124,-5.306,-5.2937,-5.2761,-5.2654,-5.2586,-5.2503,-5.2498,-5.2498,-5.2498,-5.2498,-5.2498,-5.2498,-5.2498,-5.2498,-5.2498,-5.2498,-5.2715,-5.3204,-5.3241,-5.3287,-5.3321,-5.3303,-5.3395,-5.3598,-5.3661,-5.3489,-5.3143,-5.3042,-5.2959,-5.2934,-5.2977,-5.2977,-5.2934,-5.306,-5.3164,-5.3185,-5.3185,-5.3185,0.0,-5.3185,-5.3185,-5.3185,-5.3185,-5.3185,-5.3185,-5.3185,-5.3185,-5.3185,0.0,0.0,0.0,0.0,0.0,0.0,0.0,-5.9415,-5.9045,-5.8739,-5.8716,-5.8716,-5.8716,-5.8716,-5.8716,-5.8716,-5.8716,0.0,0.0,0.0,0.0,0.0,0.0,0.0,-5.5722,-5.5703,-5.5703,-5.5703,-5.5703,-5.5703,-5.5703,-5.5703,-5.5703,-5.5703,-5.5703,-5.5703,-5.5703,-5.5703,-5.5692,-5.564,-5.5401,-5.5064,0.0,0.0,0.0,0.0,0.0,0.0,0.0,0.0,0.0,0.0,0.0,0.0,0.0,0.0,0.0,0.0,0.0,-5.3422,-5.3185,-5.3185,-5.3185,-5.3185,-5.3185,-5.3185,0.0,-5.3042,-5.2999,-5.2915,-5.2658,-5.2613,-5.2586,-5.2503,-5.2498,-5.2498,-5.2498,-5.2498,-5.2498,-5.2498,-5.2498,-5.2498,-5.2498,-5.2498,-5.2498,-5.2498,-5.2498,-5.2498,-5.2498,-5.2498,-5.2526,-5.2586,-5.2698,-5.285,-5.2999,-5.2999,-5.2915,-5.2806,-5.2934,-5.2934,-5.2783,-5.2915,-5.3082,-5.3185,-5.3185,-5.3185,-5.3185,-5.3185,-5.3185,-5.3185,-5.3185,-5.3185,-5.3185,-5.3185,-5.3185,-5.3185,0.0,0.0,0.0,0.0,0.0,0.0,0.0,0.0,0.0,0.0,-5.8716,-5.8716,-5.8716,-5.8716,-5.8716,0.0,0.0,0.0,0.0,0.0,0.0,0.0,0.0,0.0,-5.5703,-5.5703,-5.5703,-5.5703,-5.5703,-5.5703,-5.5703,-5.5703,-5.5703,-5.5703,-5.5703,-5.5703,-5.5703,-5.5703,-5.5585,-5.5389,-5.5326,-5.4952,0.0,0.0,0.0,0.0,-5.3813,-5.3813,0.0,0.0,0.0,0.0,0.0,0.0,0.0,0.0,-5.338,-5.3277,-5.3316,0.0,-5.3185,-5.3185,-5.3185,-5.3185,0.0,-5.3185,-5.3185,0.0,-5.3082,-5.2955,-5.2783,-5.2676,-5.2586,-5.2503,-5.2498,-5.2498,-5.2498,-5.2498,-5.2498,-5.2498,-5.2498,-5.2498,-5.2498,-5.2498,-5.2498,-5.2498,-5.2498,-5.2498,-5.2498,-5.2498,-5.2521,-5.2526,-5.2549,-5.2708,-5.2999,-5.2893,-5.2828,-5.2806,-5.2828,-5.2783,-5.2654,-5.2893,-5.302,-5.3042,-5.3164,-5.3185,-5.3185,-5.3185,-5.3185,-5.3185,-5.3185,-5.3185,-5.3185,-5.3185,-5.3185,-5.3185,0.0,0.0,0.0,0.0,0.0,0.0,0.0,0.0,0.0,0.0,-5.8716,-5.8716,-5.8716,-5.8716,-5.8716,0.0,0.0,0.0,0.0,0.0,0.0,0.0,0.0,-5.6622,-5.6079,-5.5719,-5.5585,-5.5703,-5.5703,-5.5703,-5.5703,-5.5703,-5.5703,-5.5703,-5.5703,-5.5703,-5.5684,-5.5573,-5.5425,-5.5275,-5.4966,0.0,0.0,0.0,0.0,0.0,-5.3813,-5.3813,0.0,-5.3813,-5.3813,-5.3813,0.0,0.0,0.0,0.0,-5.34,-5.3277,-5.3227,-5.3185,-5.3185,-5.3185,-5.3185,-5.3185,-5.3185,0.0,0.0,0.0,-5.2511,-5.2297,-5.1784,-5.1894,-5.2041,-5.201,-5.229,-5.2498,-5.2498,-5.2498,-5.2498,-5.2498,-5.2498,-5.2498,-5.2498,-5.2498,-5.2498,-5.2498,-5.2498,-5.2498,-5.2498,-5.2498,-5.2498,-5.2498,-5.2498,-5.2618,-5.2809,-5.2743,-5.2698,-5.2698,-5.2698,-5.2676,-5.259,-5.2743,-5.2893,-5.2999,-5.3082,-5.3103,-5.3103,-5.3103,-5.3103,-5.3103,-5.3103,-5.3143,-5.3185,-5.3185,-5.3185,-5.3185,0.0,0.0,0.0,0.0,0.0,0.0,0.0,0.0,0.0,0.0,0.0,0.0,0.0,0.0,0.0,0.0,0.0,0.0,0.0,0.0,0.0,0.0,-5.7525,-5.6952,-5.6437,-5.5682,-5.5413,-5.564,-5.5673,-5.5703,-5.5703,-5.5703,-5.5703,-5.5703,-5.5703,-5.5692,-5.5618,-5.5389,-5.523,-5.5111,-5.4528,0.0,0.0,0.0,0.0,0.0,0.0,0.0,0.0,-5.3813,-5.3813,-5.3813,-5.3813,0.0,0.0,0.0,0.0,0.0,-5.3046,-5.2931,-5.2876,-5.3004,-5.3023,-5.2986,-5.2876,0.0,0.0,0.0,-5.1627,-5.1402,-5.073,-5.106,-5.1445,-5.1569,-5.2096,-5.2498,-5.2498,-5.2498,-5.2498,-5.2498,-5.2498,-5.2498,-5.2498,-5.2498,-5.2498,-5.2498,-5.2498,-5.2498,-5.2498,-5.2498,-5.2498,-5.2498,-5.2498,-5.2526,-5.2586,-5.259,-5.259,-5.259,-5.259,-5.259,-5.2586,-5.2608,-5.2743,-5.2977,-5.2999,0.0,-5.2999,-5.2999,-5.2999,-5.2999,-5.2999,-5.3082,-5.3185,-5.3185,-5.3185,-5.3185,0.0,0.0,0.0,0.0,0.0,0.0,0.0,0.0,0.0,0.0,0.0,0.0,0.0,0.0,0.0,0.0,0.0,0.0,0.0,0.0,0.0,-5.8595,-5.7435,-5.6566,-5.6088,-5.5557,-5.5326,-5.5364,-5.5596,-5.5703,-5.5703,-5.5703,-5.5703,-5.5703,-5.5703,-5.5573,-5.5364,-5.5314,-5.4966,-5.4446,-5.433,0.0,0.0,0.0,0.0,0.0,0.0,0.0,0.0,-5.3813,-5.3813,-5.3813,-5.3813,0.0,0.0,0.0,0.0,0.0,-5.2307,-5.1728,-5.1334,-5.2013,-5.2179,-5.2013,-5.1316,-5.1169,0.0,0.0,-5.0865,-5.095,-5.1475,-5.1572,-5.1756,-5.2322,-5.2463,-5.2498,-5.2498,-5.2498,-5.2498,-5.2498,-5.2498,-5.2498,-5.2498,-5.2498,-5.2498,-5.2498,-5.2498,-5.2498,-5.2498,-5.2498,-5.2498,-5.2498,-5.2498,-5.2498,-5.2503,-5.2563,-5.259,-5.259,-5.259,-5.2581,-5.2526,-5.2563,-5.2676,-5.2846,0.0,-5.2999,-5.2999,-5.2999,-5.2999,-5.2999,-5.2999,-5.3082,-5.3185,-5.3185,-5.3185,-5.3185,0.0,0.0,0.0,0.0,0.0,0.0,0.0,0.0,0.0,0.0,0.0,0.0,0.0,0.0,0.0,0.0,0.0,0.0,0.0,0.0,-5.8512,-5.8085,-5.7056,-5.6443,-5.638,-5.5309,-5.4851,-5.5042,-5.5332,-5.5473,-5.5485,-5.5629,-5.5618,-5.5473,-5.5473,-5.5307,-5.5028,-5.4836,-5.4572,-5.4279,0.0,0.0,0.0,0.0,0.0,0.0,0.0,0.0,0.0,0.0,-5.3813,-5.3813,-5.3813,0.0,0.0,0.0,0.0,0.0,-5.1607,-5.114,-5.0784,-5.071,-5.1022,-5.1242,-5.0875,-5.0802,-5.0674,-5.0233,-5.045,-5.0684,-5.0611,-5.1206,-5.1897,-5.2508,-5.2563,-5.2554,-5.2521,-5.2498,-5.2498,-5.2498,-5.2498,-5.2498,-5.2498,-5.2498,-5.2498,-5.2498,-5.2498,-5.2498,-5.2498,-5.2498,-5.2498,-5.2498,-5.2498,-5.2498,-5.2498,-5.2531,-5.2554,-5.2554,-5.2554,-5.2531,-5.2498,-5.2531,-5.2604,-5.2698,0.0,-5.285,-5.2787,-5.285,-5.2893,-5.2893,-5.2893,-5.2977,-5.3082,-5.3082,-5.3082,-5.3103,0.0,0.0,0.0,0.0,0.0,0.0,0.0,0.0,0.0,0.0,0.0,0.0,0.0,0.0,0.0,0.0,0.0,0.0,0.0,-5.8531,-5.8141,-5.7528,-5.6525,-5.6086,-5.6312,-5.4995,-5.443,-5.4685,-5.5009,-5.5217,-5.5301,-5.5437,-5.5425,-5.5301,-5.5223,-5.4995,-5.467,-5.4397,-5.4264,-5.4159,0.0,0.0,0.0,0.0,0.0,0.0,0.0,0.0,0.0,0.0,0.0,0.0,0.0,0.0,0.0,-5.2659,-5.2119,-5.1578,-5.0873,-5.0442,-5.0068,-4.9444,-4.9903,-5.0472,-5.027,-5.0215,-5.0105,-4.9684,-5.0106,-5.0453,-5.0216,-5.1216,-5.2221,-5.263,-5.2635,-5.2586,-5.2531,-5.2503,-5.2498,-5.2498,-5.2498,-5.2498,-5.2498,-5.2498,-5.2498,-5.2498,-5.2498,-5.2498,-5.2498,-5.2498,-5.2498,-5.2498,-5.2498,-5.2498,-5.2498,-5.2498,-5.2498,-5.2498,-5.2498,-5.2498,-5.2498,-5.2498,-5.2531,-5.2613,-5.2739,-5.2721,-5.2613,-5.2743,-5.2806,-5.2806,-5.2806,-5.2872,-5.2999,-5.3042,-5.302,-5.302,0.0,0.0,0.0,0.0,0.0,0.0,0.0,0.0,0.0,0.0,0.0,0.0,0.0,0.0,0.0,0.0,0.0,0.0,0.0,-5.8011,-5.7565,-5.7509,-5.5949,-5.5094,-5.5115,-5.4573,-5.4315,-5.4349,-5.467,-5.5,-5.5288,-5.4995,-5.5009,-5.5288,-5.4966,-5.4654,-5.433,-5.4315,-5.4125,-5.3832,-5.3794,0.0,0.0,0.0,0.0,0.0,0.0,0.0,0.0,0.0,0.0,0.0,0.0,0.0,-5.2679,-5.2605,-5.1398,-5.0065,-4.9991,-4.9231,-4.8471,-4.8416,-4.904,-4.9482,-4.8655,-4.8489,-4.8691,-4.9445,-4.9647,-5.0124,-5.1555,-5.2425,-5.2926,-5.2959,-5.2765,-5.259,-5.259,-5.2531,-5.2498,-5.2498,-5.2498,-5.2498,-5.2498,-5.2498,-5.2498,-5.2498,-5.2498,-5.2498,-5.2498,-5.2498,-5.2498,-5.2498,-5.2498,-5.2498,-5.2498,-5.2498,-5.2498,-5.2498,-5.2498,-5.2498,-5.2498,-5.2498,-5.2531,-5.2613,-5.2739,-5.2721,-5.2613,-5.2743,-5.2806,-5.2806,-5.2806,-5.2872,-5.302,-5.3143,-5.3103,-5.302,0.0,0.0,0.0,0.0,0.0,0.0,0.0,0.0,0.0,0.0,0.0,-5.8716,-5.8716,0.0,0.0,0.0,0.0,0.0,0.0,-5.7955,-5.7286,-5.6785,-5.5633,-5.4779,-5.4258,-5.4094,-5.4,-5.4,-5.4313,-5.467,-5.5,-5.4851,-5.4761,-5.4666,-5.4544,-5.4296,-5.4,-5.4,-5.3926,-5.3813,-5.3813,-5.3813,0.0,0.0,0.0,0.0,0.0,0.0,0.0,0.0,-5.3813,-5.372,-5.3218,-5.2847,-5.2401,-5.1361,-5.0509,-4.9769,-4.9233,-4.8697,-4.8306,-4.8306,-4.8545,-4.871,-4.8379,-4.8306,-4.8545,-4.9427,-4.9994,-5.0839,-5.2454,-5.2944,-5.3103,-5.302,-5.285,-5.2698,-5.2613,-5.2554,-5.2498,-5.2498,-5.2498,-5.2498,-5.2498,-5.2498,-5.2498,-5.2498,-5.2498,-5.2498,-5.2498,-5.2498,-5.2498,-5.2498,-5.2498,-5.2498,-5.2498,-5.2498,-5.2498,-5.2498,-5.2498,-5.2498,-5.2498,-5.2498,-5.2503,-5.2554,-5.2649,-5.2654,-5.259,-5.2635,-5.2721,-5.2783,-5.2698,-5.2761,-5.2872,-5.2934,-5.2912,-5.2912,0.0,0.0,0.0,0.0,0.0,0.0,0.0,0.0,-5.8716,0.0,0.0,0.0,0.0,-5.8716,0.0,0.0,0.0,0.0,-5.8345,-5.7583,-5.6747,-5.593,-5.5076,-5.437,-5.3813,-5.3813,-5.3813,-5.3813,-5.4017,-5.4296,-5.4639,-5.4528,-5.4413,-5.4298,-5.4177,-5.3999,-5.3813,-5.3813,-5.3813,-5.3813,-5.3813,-5.3813,0.0,0.0,0.0,0.0,0.0,0.0,0.0,0.0,-5.3627,-5.333,-5.2772,-5.2252,-5.1621,-5.045,-4.9805,-4.9363,-4.8771,-4.8439,-4.8306,-4.8306,-4.8306,-4.8306,-4.8306,-4.8508,-4.8948,-4.9793,-5.082,-5.1903,-5.3004,-5.3185,-5.3164,-5.3082,-5.2955,-5.2828,-5.2743,-5.2604,-5.2531,-5.2531,-5.2503,-5.2498,-5.2498,-5.2498,-5.2498,-5.2498,-5.2498,-5.2498,-5.2498,-5.2498,-5.2498,-5.2498,-5.2498,-5.2498,-5.2498,-5.2498,-5.2498,-5.2498,-5.2498,-5.241,-5.2228,-5.241,-5.2387,-5.2233,-5.2495,-5.2586,-5.2581,-5.259,-5.2676,-5.2783,-5.2761,-5.2761,-5.2824,-5.285,-5.2846,-5.2828,0.0,0.0,0.0,0.0,0.0,0.0,0.0,0.0,-5.8716,-5.8716,-5.8716,0.0,0.0,0.0,0.0,0.0,0.0,0.0,-5.7565,-5.6747,-5.5912,-5.5039,-5.424,-5.3813,-5.3813,-5.3813,-5.3813,-5.3813,-5.3813,-5.3981,-5.4298,-5.3963,-5.3981,-5.4281,-5.3944,-5.3813,-5.3813,-5.3813,-5.3813,-5.3813,-5.3813,-5.3813,-5.3813,0.0,0.0,0.0,0.0,0.0,0.0,0.0,-5.3255,-5.2605,-5.2587,-5.1472,-5.0172,-5.0116,-4.9397,-4.8605,-4.8605,-4.8439,-4.8306,-4.8306,-4.8306,-4.8306,-4.8306,-4.8967,-4.9831,-5.0637,-5.2105,-5.3185,-5.3185,-5.3185,-5.3185,-5.3185,-5.3082,-5.2999,-5.2999,-5.2765,-5.259,-5.259,-5.2531,-5.2498,-5.2498,-5.2498,-5.2498,-5.2498,-5.2498,-5.2498,-5.2498,-5.2498,-5.2498,-5.2498,-5.2498,-5.2498,-5.2498,-5.2498,-5.2498,-5.2498,-5.2498,-5.2186,-5.1619,-5.2209,-5.2162,-5.1626,-5.2297,-5.2559,-5.2521,-5.2563,-5.2676,-5.2806,-5.2937,-5.2934,-5.2806,-5.2955,-5.2893,-5.2806,0.0,0.0,0.0,0.0,0.0,0.0,0.0,0.0,-5.8716,-5.8716,-5.8716,0.0,0.0,0.0,0.0,0.0,0.0,0.0,-5.7528,-5.6172,-5.528,-5.502,-5.424,-5.3813,-5.3813,-5.3813,-5.3813,-5.3813,-5.3813,-5.3851,-5.3944,-5.3851,-5.3851,-5.3944,-5.3851,-5.3813,-5.3813,-5.3813,-5.3813,-5.3813,-5.3813,-5.3813,-5.3813,0.0,0.0,0.0,0.0,0.0,0.0,0.0,0.0,0.0,-5.1268,-5.0543,-5.0005,-4.9429,-4.9007,-4.8715,-4.8642,-4.8513,-4.8419,-4.8325,-4.8306,-4.8306,-4.8306,-4.8967,-4.9996,-5.1353,-5.2472,-5.3185,-5.3185,-5.3185,-5.3185,-5.3185,-5.3082,-5.2999,-5.2999,-5.2765,-5.259,-5.259,-5.2531,-5.2498,-5.2498,-5.2498,-5.2498,-5.2498,-5.2498,-5.2498,-5.2498,-5.2498,-5.2498,-5.2498,-5.2498,-5.2498,-5.2498,-5.2498,-5.2498,-5.2498,-5.2072,-5.1768,-5.1619,-5.2209,-5.2162,-5.1626,-5.2257,-5.2554,-5.2563,-5.259,-5.2676,-5.2783,-5.2686,-5.2712,-5.2783,-5.2743,-5.2743,-5.2806,0.0,0.0,0.0,0.0,0.0,0.0,-5.8716,-5.8716,-5.8716,-5.8716,-5.8716,-5.8716,0.0,0.0,0.0,-5.8252,-5.7788,0.0,-5.6562,-5.5577,-5.4871,-5.4556,-5.4073,-5.3813,-5.3813,-5.3813,-5.3813,-5.3813,-5.3813,-5.3813,-5.3813,-5.3813,-5.3813,-5.3813,-5.3813,-5.3813,-5.3813,-5.3755,-5.3754,-5.3754,-5.3697,-5.3716,-5.3754,0.0,0.0,0.0,0.0,0.0,0.0,0.0,0.0,0.0,-5.0469,-4.9912,-4.9523,-4.9005,-4.8786,-4.8697,-4.8587,-4.8495,-4.8401,-4.8306,-4.8306,-4.8471,-4.915,-4.9701,-5.0527,-5.2142,-5.2858,-5.3185,-5.3185,-5.3185,-5.3185,-5.3185,-5.3124,-5.3082,-5.3082,-5.285,-5.2676,-5.2676,-5.2577,-5.2498,-5.2498,-5.2498,-5.2498,-5.2498,-5.2498,-5.2498,-5.2498,-5.2498,-5.2498,-5.2498,-5.2498,-5.2498,-5.2498,-5.2498,-5.2498,-5.2498,-5.1884,-5.1457,-5.126,-5.1884,-5.1817,-5.1286,-5.212,-5.2526,-5.2559,-5.2559,-5.2649,-5.2783,-5.2622,-5.2645,-5.2783,-5.2654,-5.2654,-5.2743,0.0,0.0,-5.8716,-5.8716,0.0,0.0,-5.8716,-5.8716,-5.8716,-5.8716,-5.8716,-5.8679,0.0,0.0,0.0,-5.7472,-5.7323,-5.6636,0.0,-5.4946,-5.4574,-5.3831,-5.3813,-5.3813,-5.3813,-5.3813,-5.3813,-5.3813,-5.3813,-5.3813,-5.3813,-5.3813,-5.3793,-5.3793,-5.3813,-5.3793,-5.3774,-5.3715,-5.3675,-5.3656,-5.3539,-5.3578,-5.3675,-5.3675,0.0,0.0,0.0,0.0,0.0,0.0,0.0,0.0,-5.0005,-4.9503,-4.8891,-4.884,-4.8715,-4.8605,-4.8532,-4.842,-4.8306,-4.8306,-4.8306,-4.8746,-5.0417,-5.0802,-5.1261,-5.2855,-5.3185,-5.3185,-5.3185,-5.3185,-5.3185,-5.3185,-5.3185,-5.3185,-5.3185,-5.2977,-5.2806,-5.2806,-5.264,-5.2503,-5.2503,-5.2498,-5.2498,-5.2498,-5.2498,-5.2498,-5.2498,-5.2498,-5.2498,-5.2498,-5.2498,-5.2498,-5.2498,-5.2498,-5.2498,-5.2498,-5.1835,-5.1235,-5.0724,-5.1312,-5.1329,-5.0911,-5.1957,-5.2434,-5.2498,-5.2498,-5.2618,-5.2761,-5.2631,-5.2676,-5.2761,-5.2631,-5.259,-5.2631,0.0,0.0,-5.8716,-5.8716,0.0,0.0,-5.8716,-5.8716,-5.8716,-5.8716,-5.8716,-5.8475,-5.7843,-5.7769,0.0,-5.6636,-5.593,-5.5391,-5.5039,-5.4407,-5.398,-5.3813,-5.3813,-5.3813,-5.3813,-5.3813,-5.3813,-5.3813,-5.3813,-5.3813,-5.3813,-5.3813,-5.3755,-5.3715,-5.3793,-5.3698,-5.3579,-5.3656,-5.3636,-5.3539,-5.3519,-5.3519,-5.3539,-5.3539,-5.3617,0.0,0.0,0.0,0.0,0.0,0.0,0.0,-4.9356,-4.9039,-4.8909,-4.8891,-4.8821,-4.8732,-4.8605,-4.8513,-4.8438,-4.8343,-4.8306,-4.8746,-5.0417,-5.0802,-5.1261,-5.2855,-5.3185,-5.3185,-5.3185,-5.3185,-5.3185,-5.3185,-5.3185,-5.3185,-5.3185,-5.306,-5.2955,-5.2955,-5.2739,-5.2586,-5.2586,-5.2531,-5.2498,-5.2498,-5.2498,-5.2498,-5.2498,-5.2498,-5.2498,-5.2498,-5.2498,-5.2498,-5.2498,-5.2498,-5.2498,-5.2498,-5.1406,-5.0832,-5.0724,-5.1312,-5.1786,-5.2096,-5.1884,-5.2048,-5.2498,-5.2498,-5.2554,-5.2631,-5.2554,-5.2559,-5.2631,-5.2554,-5.2559,-5.259,0.0,0.0,0.0,0.0,0.0,0.0,0.0,0.0,-5.8716,-5.8716,-5.8364,-5.7973,-5.7565,-5.7156,0.0,0.0,-5.5261,-5.4853,-5.4463,-5.4035,-5.3813,-5.3813,-5.3813,-5.3813,-5.3813,-5.3813,-5.3813,-5.3813,-5.3813,-5.3813,-5.3813,-5.3813,-5.3774,-5.3735,-5.3754,-5.3696,-5.3598,-5.3538,-5.3459,-5.34,-5.3357,-5.3378,-5.34,-5.34,-5.3239,-5.3024,-5.3083,0.0,0.0,0.0,0.0,0.0,0.0,0.0,-4.8891,-4.8856,-4.8786,-4.8678,-4.8587,-4.8476,-4.8382,-4.8306,-4.8306,-4.8636,-4.9921,-5.0508,-5.1151,-5.238,-5.2931,-5.3185,-5.3185,-5.3185,-5.3185,-5.3185,-5.3185,-5.3185,-5.3185,-5.3082,-5.2999,-5.2999,-5.2765,-5.259,-5.259,-5.2531,-5.2498,-5.2498,-5.2498,-5.2498,-5.2498,-5.2498,-5.2498,-5.2498,-5.2498,-5.2498,-5.2498,-5.2118,-5.1919,-5.1919,-5.0346,-4.9592,-4.9627,-5.0426,-5.1398,-5.2475,-5.186,-5.1933,-5.2498,-5.2498,-5.2531,-5.259,-5.2526,-5.2531,-5.259,-5.2526,-5.2526,-5.2522,0.0,0.0,0.0,0.0,0.0,0.0,0.0,0.0,0.0,-5.8512,-5.7918,-5.7398,-5.71,-5.6469,-5.5726,0.0,0.0,0.0,-5.385,-5.3813,-5.3813,-5.3813,-5.3813,-5.3813,-5.3813,-5.3813,-5.3813,-5.3813,-5.3813,-5.3813,-5.3813,-5.3793,-5.3774,-5.3755,-5.3676,-5.3636,-5.3596,-5.3398,-5.3279,-5.3277,-5.3209,-5.323,-5.3258,-5.313,-5.2733,-5.2242,-5.2173,-5.1213,-4.9972,-4.9972,0.0,0.0,0.0,0.0,-4.8839,-4.8768,-4.8678,-4.8569,-4.8513,-4.8401,-4.8306,-4.8306,-4.8306,-4.8526,-4.9408,-5.0105,-5.0857,-5.1793,-5.2637,-5.3185,-5.3185,-5.3185,-5.3185,-5.3185,-5.3185,-5.3185,-5.3185,-5.3103,-5.302,-5.302,-5.2828,-5.2676,-5.2654,-5.2559,-5.2503,-5.2498,-5.2498,-5.2498,-5.2498,-5.2371,-5.2281,-5.2281,-5.2154,-5.2082,-5.2082,-5.1411,-5.1063,-5.0936,-4.9213,-4.8398,-4.8425,-4.917,-5.0514,-5.2258,-5.169,-5.186,-5.2498,-5.2498,-5.2531,-5.2586,-5.2526,-5.2531,-5.2545,-5.2363,-5.2281,-5.2195,0.0,0.0,0.0,0.0,0.0,0.0,0.0,0.0,0.0,0.0,-5.7583,-5.6952,-5.5503,-5.5243,-5.4853,-5.4035,-5.3961,-5.3924,-5.3813,0.0,0.0,-5.3813,-5.3813,-5.3813,-5.3813,-5.3813,-5.3813,-5.3813,-5.3813,-5.3813,-5.3813,-5.3735,-5.3637,-5.3539,-5.3539,-5.3437,-5.3269,-5.3295,-5.3274,-5.3206,-5.3206,-5.3206,-5.3154,-5.2438,-5.2153,-5.2051,-5.1351,-5.0599,-4.9899,-4.9899,-4.9362,0.0,0.0,0.0,-4.8623,-4.8642,-4.8569,-4.8513,-4.8513,-4.8401,-4.8306,-4.8306,-4.8306,-4.8526,-4.9408,-4.9684,-5.0198,-5.1703,-5.2637,-5.3185,-5.3185,-5.3185,-5.3185,-5.3185,-5.3185,-5.3185,-5.3185,-5.3185,-5.3185,-5.3185,-5.3042,-5.2893,-5.2783,-5.2654,-5.2559,-5.2498,-5.2498,-5.2498,-5.2498,-5.1828,-5.1448,-5.1448,-5.0778,-5.042,-5.042,-5.0311,-5.0037,-4.9549,-4.8756,-4.8398,-4.8372,-4.8068,-4.9213,-5.1438,-5.101,-5.1457,-5.2498,-5.2498,-5.2521,-5.2503,-5.2498,-5.2521,-5.2431,-5.1724,-5.1448,-5.1362,0.0,0.0,0.0,0.0,0.0,0.0,0.0,0.0,0.0,0.0,0.0,-5.5819,-5.5075,-5.4611,-5.4203,-5.3831,-5.3813,-5.3813,-5.3813,-5.3813,-5.3813,-5.3813,-5.3813,-5.3813,-5.3813,-5.3813,-5.3813,-5.3813,-5.3813,-5.3774,-5.3735,-5.3637,-5.3598,-5.3616,-5.344,-5.3339,-5.3254,-5.3251,-5.323,-5.3185,-5.3185,-5.2931,-5.2491,-5.2123,-5.1467,-5.0663,-5.0334,-4.9748,-4.9122,-4.9122,-4.8883,-4.8587,-4.8569,0.0,0.0,0.0,-4.855,-4.8476,-4.8401,-4.8325,-4.8306,-4.8306,-4.8306,-4.8398,-4.8783,-4.9262,-4.9812,-5.051,-5.1298,-5.2142,-5.302,-5.3185,-5.3185,-5.3185,-5.3185,-5.3185,-5.3185,-5.3185,-5.3185,-5.3185,-5.3082,-5.2955,-5.2806,-5.2294,-5.1946,-5.1851,-5.1411,-5.1158,-5.1158,-5.0836,-5.0637,-5.0637,-5.0293,-5.0112,-5.0112,-4.9655,-4.8794,-4.7504,-4.694,-4.6656,-4.6673,-4.6556,-4.7875,-5.015,-4.9637,-5.0073,-5.1158,-5.1158,-5.1158,-5.1158,-5.1158,-5.1158,-5.1104,-5.0764,-5.0637,-5.0506,0.0,0.0,0.0,0.0,0.0,0.0,0.0,0.0,0.0,0.0,0.0,-5.4926,-5.4702,0.0,0.0,0.0,-5.3813,-5.3813,-5.3813,-5.3813,-5.3813,-5.3813,-5.3813,-5.3813,-5.3813,-5.3813,-5.3813,-5.3813,-5.3774,-5.3735,-5.3694,-5.3519,-5.3499,-5.3596,-5.3378,-5.3256,-5.3256,-5.3209,-5.3185,-5.3167,-5.2986,-5.2546,-5.1958,-5.1557,-5.0639,-4.9574,-4.9413,-4.8991,-4.8476,-4.8457,-4.8495,-4.855,-4.8476,-4.8495,0.0,0.0,0.0,-4.8438,-4.8343,-4.8306,-4.8306,-4.8306,-4.8306,-4.8306,-4.8306,-4.8802,-4.9335,-4.9555,-5.0068,-5.093,-5.2344,-5.2601,-5.2601,-5.2601,-5.2601,-5.2601,-5.2601,-5.2601,-5.2601,-5.2601,-5.2498,-5.2395,-5.2247,-5.1628,-5.1173,-5.1044,-5.0438,-5.0112,-5.0112,-4.9908,-4.98,-4.98,-4.9601,-4.9474,-4.9474,-4.8618,-4.7612,-4.6519,-4.5691,-4.5381,-4.5503,-4.5552,-4.6653,-4.849,-4.8273,-4.8845,-4.9897,-4.9897,-4.9897,-4.9897,-5.0067,-5.0112,-5.0093,-4.9854,-4.98,-4.9673,0.0,0.0,0.0,0.0,0.0,0.0,0.0,0.0,0.0,0.0,0.0,-5.4702,-5.3843,-5.3792,-5.3813,-5.3813,-5.3813,-5.3813,-5.3813,-5.3813,-5.3813,-5.3813,-5.3813,0.0,-5.3813,-5.3813,-5.3813,-5.3813,-5.3734,-5.3695,-5.3675,-5.3439,-5.33,-5.3318,-5.323,-5.3206,-5.3206,-5.3206,-5.3185,-5.3133,-5.2362,-5.2032,-5.183,-5.0308,-4.9665,-4.95,-4.8673,-4.8418,-4.8476,-4.8363,-4.8401,-4.8476,-4.8363,-4.8306,-4.8325,0.0,0.0,0.0,-4.8306,-4.8306,-4.8306,-4.8306,-4.8306,-4.8306,-4.8306,-4.8343,-4.86,-4.9445,-4.9629,-4.9922,-5.0765,-5.093,-5.093,-5.093,-5.093,-5.093,-5.093,-5.093,-5.093,-5.093,-5.093,-5.0851,-5.073,-5.055,-5.0408,-5.0282,-5.0156,-5.0112,-5.0112,-4.9383,-4.8945,-4.8945,-4.8224,-4.7826,-4.7826,-4.6754,-4.6695,-4.7615,-4.6024,-4.5563,-4.6024,-4.5546,-4.5675,-4.6333,-4.7246,-4.8294,-4.9341,-4.9341,-4.9341,-4.9388,-4.9897,-5.0112,-5.0021,-4.9238,-4.8945,-4.8837,0.0,0.0,0.0,0.0,0.0,0.0,0.0,0.0,0.0,0.0,0.0,0.0,0.0,-5.3599,-5.3619,-5.3619,-5.3619,-5.3619,-5.3619,-5.3696,-5.3734,-5.3734,-5.3774,-5.3813,-5.3813,-5.3813,-5.3774,-5.3734,-5.3695,-5.3616,-5.3439,-5.3339,-5.3277,-5.323,-5.3206,-5.3185,-5.3185,-5.3185,-5.2913,-5.2399,-5.2105,-5.1371,-5.04,-4.9831,-4.9262,-4.8728,-4.8416,-4.8325,-4.8363,-4.8306,-4.8325,-4.8363,-4.8306,-4.8306,-4.8306,-4.8306,-4.8306,-4.8306,-4.8306,-4.8306,-4.8306,-4.8306,-4.8306,-4.8306,-4.8306,-4.8306,-4.8398,-4.8691,-4.8765,-4.8857,-4.915,-5.0068,-5.0802,-5.0802,-5.0802,-5.0802,-5.0802,-5.0802,-5.0802,-5.0802,-5.0802,-5.0762,-5.0604,-5.0005,-4.9591,-4.9504,-4.8904,-4.8568,-4.8568,-4.8297,-4.8113,-4.8113,-4.7862,-4.7717,-4.7717,-4.6637,-4.631,-4.666,-4.5442,-4.4961,-4.5133,-4.4934,-4.5311,-4.6084,-4.5817,-4.6474,-4.777,-4.777,-4.777,-4.7816,-4.8359,-4.8568,-4.8514,-4.8242,-4.8113,-4.8098,0.0,0.0,0.0,0.0,0.0,-5.449,-5.4431,-5.389,-5.3481,-5.344,0.0,0.0,0.0,0.0,-5.3499,-5.3499,-5.3499,-5.3499,-5.3499,-5.3578,-5.3636,-5.3636,-5.3696,-5.3716,-5.3774,-5.3716,-5.3716,-5.3714,-5.3616,-5.3459,-5.33,-5.3295,-5.3251,-5.3185,-5.3185,-5.3185,-5.3167,-5.2913,-5.2491,-5.194,-5.1408,-5.0565,-4.9574,-4.928,-4.8802,-4.8306,-4.8306,-4.8306,-4.8306,-4.8306,-4.8306,-4.8306,-4.8306,-4.8306,-4.8306,-4.8306,-4.8306,-4.8306,-4.8306,-4.8306,-4.8306,-4.8306,-4.8306,-4.8306,-4.8306,-4.8306,-4.8306,-4.8306,-4.8306,-4.8306,-4.8306,-4.9224,-4.9958,-4.9958,-4.9958,-4.9958,-4.9958,-4.9958,-4.9958,-4.9958,-4.9958,-4.9918,-4.984,-4.9245,-4.8833,-4.8748,-4.8133,-4.7738,-4.7717,-4.7717,-4.7717,-4.7717,-4.7533,-4.7428,-4.7428,-4.6358,-4.5925,-4.6091,-4.5079,-4.4665,-4.4841,-4.4682,-4.5052,-4.5792,-4.4961,-4.5468,-4.6886,-4.6707,-4.673,-4.6954,-4.749,-4.7717,-4.7717,-4.7717,-4.7717,-4.7717,-5.4964,-5.4313,-5.3793,-5.3695,-5.3675,-5.3656,-5.3519,-5.3499,-5.344,-5.33,0.0,0.0,0.0,0.0,0.0,-5.3499,-5.3499,-5.3499,-5.3499,-5.3499,-5.3481,-5.3481,-5.3499,-5.3558,-5.3694,-5.3578,-5.3558,-5.3694,-5.3439,-5.3297,-5.3297,-5.323,-5.3185,-5.3185,-5.3167,-5.3148,-5.3115,-5.2325,-5.1958,-5.1775,-5.0235,-4.9592,-4.9482,-4.8618,-4.8306,-4.8306,-4.8306,-4.8306,-4.8306,-4.8306,-4.8306,-4.8306,-4.8306,-4.8306,-4.8306,-4.8306,-4.8306,-4.8306,0.0,0.0,0.0,-4.8306,-4.8306,-4.8306,-4.8306,-4.8306,-4.8306,-4.8306,-4.8306,-4.8306,-4.8306,-4.8306,-4.8306,-4.8306,-4.8306,-4.8306,-4.8306,-4.8306,-4.8306,-4.8306,-4.8306,-4.8306,-4.8306,-4.8228,-4.813,-4.8012,-4.7945,-4.784,-4.7717,-4.7717,-4.7717,-4.7717,-4.7191,-4.6908,-4.6908,-4.585,-4.5588,-4.6049,-4.5079,-4.4824,-4.525,-4.4814,-4.4852,-4.5276,-4.4797,-4.5468,-4.6863,-4.6334,-4.6406,-4.6931,-4.749,-4.7678,-4.7678,-4.7678,-4.7717,-4.7717,-5.4128,-5.3903,-5.3715,-5.3695,-5.3538,-5.3418,-5.3359,-5.3316,-5.3251,0.0,0.0,0.0,-5.323,-5.3251,-5.3272,-5.3272,-5.3272,-5.3272,-5.3272,-5.3336,-5.3359,-5.3359,-5.344,-5.3519,-5.3539,-5.3519,-5.3479,-5.3418,-5.3339,-5.3295,-5.323,-5.3206,-5.3185,-5.3167,-5.2601,-5.2325,-5.2307,-5.2087,-5.1336,-5.0235,-4.9776,-4.9225,-4.8636,-4.8398,-4.8306,-4.8306,-4.8306,-4.8306,-4.8306,-4.8306,-4.8306,-4.8306,-4.8306,-4.8306,-4.8306,-4.8306,-4.8306,-4.8306,-4.8306,0.0,0.0,0.0,0.0,0.0,-4.8306,-4.8306,-4.8306,-4.8306,-4.8306,-4.8306,-4.8306,-4.8306,-4.8306,-4.8306,-4.8306,-4.8306,-4.8306,-4.8306,-4.8306,-4.8306,-4.8306,-4.8306,-4.8306,-4.8228,-4.813,-4.8012,-4.7945,-4.784,-4.7717,-4.7717,-4.7717,-4.7717,-4.7572,-4.728,-4.6908,-4.6238,-4.5749,-4.5494,-4.4879,-4.4682,-4.4786,-4.4654,-4.4852,-4.5276,-4.4797,-4.5468,-4.6863,-4.6334,-4.6189,-4.6406,-4.7341,-4.745,-4.7151,-4.7572,-4.7717,-4.7717,-5.3754,-5.3676,-5.3598,-5.3538,-5.34,-5.3297,-5.3254,-5.323,-5.3185,0.0,0.0,0.0,-5.3185,-5.3185,-5.3185,-5.3185,-5.3185,-5.3185,-5.3185,-5.323,-5.3254,-5.3254,-5.3316,-5.3378,-5.342,-5.3378,-5.3357,-5.33,-5.3256,-5.3251,-5.3185,-5.3185,-5.3023,-5.2674,-5.2197,-5.1628,-5.1006,-5.1006,-5.0473,-4.9574,-4.9187,-4.8746,-4.8306,-4.8306,-4.8306,-4.8306,-4.8306,-4.8306,-4.8306,-4.8306,-4.8306,-4.8306,-4.8306,-4.8306,-4.8306,-4.8306,-4.8306,-4.8306,-4.8306,-4.8306,-4.8306,-4.8306,0.0,0.0,-4.8306,-4.8306,-4.8306,-4.8306,-4.8306,-4.8306,-4.8306,-4.8306,-4.8306,-4.8306,-4.8306,-4.8306,-4.8306,-4.8306,-4.8306,-4.8306,-4.8306,-4.8306,-4.8306,-4.8267,-4.8169,-4.8012,-4.7949,-4.7866,-4.7717,-4.7717,-4.7593,-4.7385,-4.7151,-4.6776,-4.6238,-4.5734,-4.5311,-4.5008,-4.4748,-4.4615,-4.4615,-4.4615,-4.4748,-4.4981,-4.472,-4.5354,-4.6525,-4.5992,-4.6024,-4.6525,-4.7363,-4.7363,-4.6954,-4.7511,-4.7717,-4.7717,0.0,-5.3578,-5.344,-5.3318,-5.3279,-5.3274,-5.3206,-5.3185,-5.3185,0.0,-5.3185,-5.3185,-5.3185,-5.3185,-5.3185,-5.3185,-5.3185,-5.3185,-5.3185,-5.3185,-5.3185,-5.3185,-5.3185,-5.323,-5.3297,-5.323,-5.323,-5.3297,-5.323,-5.3185,-5.3185,-5.3115,-5.2692,-5.1977,-5.1793,-5.0951,-4.9592,-4.95,-4.9463,-4.939,-4.8618,-4.8306,-4.8306,-4.8306,-4.8306,-4.8306,-4.8306,-4.8306,-4.8306,-4.8306,-4.8306,-4.8306,-4.8306,-4.8306,-4.8306,-4.8306,-4.8306,-4.8306,-4.8306,-4.8306,-4.8306,-4.8306,-4.8306,0.0,-4.8306,-4.8306,-4.8306,-4.8306,-4.8306,-4.8306,-4.8306,-4.8306,-4.8306,-4.8306,-4.8306,-4.8306,-4.8306,-4.8306,-4.8306,-4.8306,-4.8306,-4.8306,-4.8306,-4.8306,-4.8229,-4.8032,-4.7992,-4.7909,-4.7738,-4.7717,-4.749,-4.6999,-4.6478,-4.5925,-4.5407,-4.4934,-4.4654,-4.4615,-4.4615,-4.4615,-4.4615,-4.4615,-4.4615,-4.4615,-4.4615,-4.5186,-4.6049,-4.5537,-4.5918,-4.6863,-4.7407,-4.728,-4.6886,-4.749,-4.7717,-4.7717,-5.3539,-5.342,-5.3339,-5.33,-5.3254,-5.3227,-5.3206,-5.3185,-5.3185,-5.3185,-5.3185,-5.3185,-5.3185,-5.3185,-5.3185,-5.3185,-5.3185,-5.3185,-5.3185,-5.3185,-5.3185,-5.3185,-5.3185,-5.3206,-5.3227,-5.3206,-5.3206,-5.3227,-5.3206,-5.3185,-5.3206,-5.2546,-5.2142,-5.194,-5.0657,-4.9886,-4.9555,-4.8838,-4.8545,-4.8545,-4.8379,-4.8306,-4.8306,-4.8306,-4.8306,-4.8306,-4.8306,-4.8306,-4.8306,-4.8306,-4.8306,-4.8306,-4.8306,-4.8306,-4.8306,-4.8306,-4.8306,-4.8306,-4.8306,-4.8306,-4.8306,-4.8306,-4.8306,0.0,-4.8306,-4.8306,-4.8306,-4.8306,-4.8306,-4.8306,-4.8306,-4.8306,-4.8306,-4.8306,-4.8306,-4.8306,-4.8306,-4.8306,-4.8306,-4.8306,-4.8306,-4.8306,-4.8306,-4.8306,-4.8248,-4.8168,-4.8006,-4.7902,-4.7861,-4.7759,-4.7657,-4.7533,-4.7022,-4.6478,-4.595,-4.5407,-4.4971,-4.4615,-4.4615,-4.4615,-4.4615,-4.4615,-4.4615,-4.4615,-4.4615,-4.5186,-4.6049,-4.5537,-4.5673,-4.631,-4.6863,-4.673,-4.6382,-4.7323,-4.7717,-4.7717,-5.34,-5.3316,-5.3254,-5.3254,-5.3209,-5.3185,-5.3185,-5.3185,-5.3185,-5.3185,-5.3185,-5.3185,-5.3185,-5.3185,-5.3185,-5.3185,-5.3185,-5.3185,-5.3185,-5.3185,-5.3185,-5.3185,-5.3185,-5.3185,-5.3185,-5.3185,-5.3185,-5.3185,-5.3185,-5.3004,-5.2601,-5.2179,-5.1555,-5.0785,-4.9959,-4.9372,-4.8912,-4.8489,-4.8306,-4.8306,-4.8306,-4.8306,-4.8306,-4.8306,-4.8306,-4.8306,-4.8306,-4.8306,-4.8306,-4.8306,-4.8306,-4.8306,-4.8306,-4.8306,-4.8306,-4.8306,-4.8132,-4.7955,-4.7955,-4.7775,-4.7609,-4.7609,-4.7609,0.0,0.0,-4.7775,-4.7955,-4.7955,-4.8132,-4.8306,-4.8306,-4.8306,-4.8306,-4.8306,-4.8306,-4.8306,-4.8306,-4.8306,-4.8306,-4.8306,-4.8306,-4.8306,-4.8306,-4.8306,-4.8286,-4.8207,-4.8006,-4.7881,-4.7881,-4.7759,-4.7593,-4.7302,-4.6776,-4.6244,-4.5716,-4.5205,-4.4824,-4.4615,-4.4615,-4.4615,-4.4615,-4.4615,-4.4615,-4.4615,-4.4615,-4.5025,-4.5648,-4.5169,-4.5258,-4.5775,-4.659,-4.659,-4.6238,-4.7302,-4.7533,-4.7341,-5.3277,-5.3251,-5.3185,-5.3185,-5.3185,-5.3185,-5.3185,-5.3185,-5.3185,-5.3185,-5.3185,-5.3164,-5.306,-5.3039,-5.3039,-5.3039,-5.3039,-5.3082,-5.3185,-5.3185,-5.3185,-5.3185,-5.3185,-5.3185,-5.3185,-5.3185,-5.3112,-5.2968,-5.2968,-5.2564,-5.1756,-5.161,-5.0841,-4.9592,-4.9427,-4.8948,-4.8306,-4.8306,-4.8306,-4.8306,-4.8306,-4.8398,-4.8563,-4.8728,-4.8783,-4.8765,-4.8618,-4.8434,-4.8306,-4.8306,-4.8306,-4.8306,-4.8306,-4.8306,-4.8306,-4.8306,-4.8035,-4.7733,-4.7632,-4.7335,-4.7004,-4.6931,-4.6908,-4.6908,0.0,0.0,0.0,-4.7464,-4.7836,-4.8172,-4.8172,-4.8248,-4.8306,-4.8306,-4.8177,-4.8086,-4.8086,-4.7939,-4.7957,-4.8269,-4.8306,-4.8306,-4.8306,-4.8306,-4.8286,-4.8226,-4.8026,-4.7922,-4.7922,-4.778,-4.7511,-4.7062,-4.643,-4.5875,-4.5459,-4.4879,-4.4615,-4.4615,-4.4615,-4.4615,-4.4615,-4.4615,-4.4615,-4.4615,-4.4615,-4.4879,-4.525,-4.4786,-4.4879,-4.5407,-4.6358,-4.6478,-4.6238,-4.7302,-4.7363,-4.6994,-5.3206,-5.3206,-5.3185,-5.3185,-5.3185,-5.3185,-5.3185,-5.3185,-5.3185,-5.3185,-5.3185,-5.3017,-5.254,-5.2495,-5.2495,-5.2495,-5.2495,-5.2676,-5.3164,-5.3185,-5.3185,-5.3185,-5.3185,-5.3185,-5.3185,-5.3185,-5.2858,-5.2142,-5.2142,-5.172,-5.093,-5.0216,-4.9776,-4.9574,-4.8783,-4.8398,-4.8306,-4.8306,-4.8306,-4.8306,-4.8306,-4.8765,-4.9537,-5.0233,-5.0527,-5.0417,-4.9721,-4.8948,-4.8306,-4.8306,-4.8306,-4.8306,-4.8306,-4.8306,-4.8306,-4.8306,-4.8267,-4.8132,-4.7715,-4.7569,-4.7421,-4.6981,-4.6908,-4.6908,-4.6908,0.0,-4.6976,-4.6976,0.0,-4.7674,-4.7674,0.0,0.0,-4.8306,-4.77,-4.7241,-4.7241,-4.6636,-4.6709,-4.8141,-4.8306,-4.8306,-4.8306,-4.8306,-4.8287,-4.8287,-4.8092,-4.799,-4.799,-4.7804,-4.7657,-4.7615,-4.6637,-4.6074,-4.6,-4.5079,-4.4615,-4.4615,-4.4615,-4.4615,-4.4615,-4.4615,-4.4615,-4.4615,-4.4615,-4.4879,-4.525,-4.4786,-4.4879,-4.5355,-4.595,-4.6147,-4.6238,-4.7302,-4.7363,-4.6994,-5.3185,-5.3185,-5.3185,-5.3185,-5.3185,-5.3185,-5.3185,-5.3185,-5.3185,-5.3185,-5.3185,-5.3103,-5.289,-5.2868,-5.2739,-5.2431,-5.2408,-5.2361,-5.2291,-5.2268,-5.2408,-5.2717,-5.2739,-5.289,-5.3185,-5.2747,-5.2344,-5.1995,-5.1518,-5.0894,-5.0086,-4.9757,-4.9335,-4.882,-4.8471,-4.8306,-4.8306,-4.8306,-4.86,-4.9095,-4.9554,-5.0251,-5.0932,-5.0325,-5.038,-5.0692,-4.9904,-4.9372,-4.8967,-4.8471,-4.8132,-4.7897,-4.7897,-4.7713,-4.7545,-4.7816,-4.7713,-4.7442,-4.7248,-4.7004,-4.6678,-4.6168,-4.602,-4.602,-4.602,-4.6266,-4.6507,-4.6507,0.0,0.0,0.0,0.0,0.0,0.0,-4.6567,-4.6057,-4.6057,-4.5747,-4.5897,-4.6801,-4.6911,-4.7095,-4.7553,-4.759,-4.7791,-4.8269,-4.7673,-4.7518,-4.7974,-4.7824,-4.7717,-4.7717,-4.666,-4.6098,-4.6098,-4.5106,-4.4615,-4.4615,-4.4615,-4.4615,-4.4615,-4.4615,-4.4615,-4.4615,-4.4615,-4.472,-4.4879,-4.4665,-4.472,-4.4944,-4.5451,-4.5843,-4.6238,-4.7302,-4.7151,-4.6501,-5.3185,-5.3185,-5.3185,-5.3185,-5.3185,-5.3143,-5.2999,-5.3121,-5.3143,-5.2995,-5.2977,-5.2912,-5.2783,-5.2631,-5.2384,-5.1988,-5.1964,-5.1866,-5.1619,-5.1601,-5.1775,-5.2155,-5.2179,-5.2253,-5.2415,-5.1854,-5.1344,-5.0927,-5.0341,-4.9648,-4.8846,-4.8846,-4.8518,-4.7915,-4.8035,-4.8035,-4.7935,-4.8055,-4.84,-4.8919,-4.9719,-5.0648,-5.1493,-5.0849,-5.0802,-5.1041,-5.0473,-4.9978,-4.95,-4.8875,-4.8196,-4.7611,-4.7611,-4.727,-4.6976,-4.7313,-4.716,-4.6863,-4.6747,-4.6459,-4.6062,-4.5537,-4.5397,-4.5397,-4.5397,-4.5701,-4.598,-4.598,-4.6363,0.0,0.0,0.0,-4.6209,-4.6209,0.0,-4.4771,-4.4771,-4.459,-4.4785,-4.5625,-4.5828,-4.614,-4.6709,-4.6764,-4.7003,-4.7609,-4.6808,-4.661,-4.7409,-4.715,-4.7108,-4.7472,-4.6572,-4.6098,-4.6098,-4.5222,-4.472,-4.4615,-4.4615,-4.4615,-4.4615,-4.4615,-4.4615,-4.4615,-4.4615,-4.4615,-4.4615,-4.4615,-4.4615,-4.4654,-4.5125,-4.5622,-4.6196,-4.6976,-4.6776,-4.6165,-5.3185,-5.3185,-5.3185,-5.3185,-5.3185,-5.3039,-5.2499,-5.2868,-5.3017,-5.2477,-5.2431,-5.2244,-5.1719,-5.1184,-5.0857,-5.0857,-5.0857,-5.1052,-5.1569,-5.1601,-5.1619,-5.1626,-5.1644,-5.1269,-5.0514,-5.0461,-4.971,-4.8233,-4.8197,-4.7763,-4.6989,-4.6989,-4.6972,-4.6976,-4.7421,-4.7378,-4.6959,-4.7421,-4.7374,-4.7061,-4.7806,-4.9055,-5.0641,-5.2423,-5.2619,-5.1958,-5.1922,-5.0932,-4.961,-4.9574,-4.8691,-4.7611,-4.7611,-4.727,-4.6908,-4.6908,-4.6908,-4.6794,-4.6357,-4.6211,-4.6062,-4.5537,-4.5397,-4.5397,-4.5397,-4.5423,-4.5423,-4.5423,-4.5854,-4.6211,-4.6211,-4.5951,-4.5721,-4.5721,-4.4457,0.0,0.0,-4.2792,-4.3046,-4.5073,-4.5661,-4.5902,-4.5938,-4.5938,-4.5957,-4.5975,-4.5352,-4.5273,-4.6025,-4.5437,-4.5647,-4.689,-4.6382,-4.6098,-4.6098,-4.5563,-4.5062,-4.4615,-4.4615,-4.4615,-4.4615,-4.4615,-4.4615,-4.4615,-4.4615,-4.4615,-4.4615,-4.4615,-4.4615,-4.4654,-4.5125,-4.5622,-4.6098,-4.6123,-4.6123,-4.6098,-5.3143,-5.3185,-5.3185,-5.3185,-5.3185,-5.3143,-5.2974,-5.2783,-5.2608,-5.2408,-5.2084,-5.1939,-5.2108,-5.1964,-5.1866,-5.1866,-5.1866,-5.1626,-5.1105,-5.1052,-5.1052,-5.1052,-5.1052,-5.1112,-5.1208,-5.0156,-4.9335,-4.8841,-4.7824,-4.7158,-4.6908,-4.6908,-4.6908,-4.6931,-4.7399,-4.7273,-4.6799,-4.7273,-4.7779,-4.8413,-4.967,-5.0813,-5.1753,-5.2024,-5.1969,-5.1663,-5.1123,-5.0582,-4.9969,-4.8906,-4.8033,-4.7311,-4.6837,-4.6321,-4.5988,-4.6339,-4.6435,-4.6387,0.0,-4.6211,-4.6062,-4.5537,-4.5397,-4.5397,-4.5397,-4.5397,-4.5397,-4.5397,-4.5537,-4.5667,-4.5667,-4.5397,-4.5012,-4.4523,-4.3588,-4.2763,0.0,-4.1894,-4.2101,-4.3133,-4.3838,-4.4263,-4.4263,-4.4536,-4.481,-4.5003,-4.4529,0.0,-4.4848,-4.4567,-4.4777,-4.5605,-4.5117,-4.5085,-4.5588,-4.5089,-4.4759,-4.4615,-4.4615,-4.4615,-4.4615,-4.4615,-4.4615,-4.4615,-4.4615,-4.4615,-4.4615,-4.4615,-4.4615,-4.4626,-4.4759,-4.5142,-4.5597,-4.5975,-4.6098,-4.6049,-5.2563,-5.2631,-5.2761,-5.3143,-5.3185,-5.3143,-5.2934,-5.2783,-5.2608,-5.2431,-5.2108,-5.1939,-5.2108,-5.2108,-5.2036,-5.1866,-5.2012,-5.1725,-5.0857,-5.0803,-5.0712,-5.0537,-5.0509,-5.0544,-5.0603,-4.9597,-4.8945,-4.8663,-4.741,-4.6786,-4.6793,-4.6511,-4.6465,-4.6678,-4.7138,-4.7008,-4.6472,-4.7209,-4.7696,-4.8109,-4.9653,-5.0709,-5.1337,-5.0991,-5.1252,-5.1685,-5.0969,-5.0539,-5.0147,-4.918,-4.8172,-4.7222,-4.6748,-4.6038,-4.5476,-4.5803,-4.593,-4.593,-4.593,-4.593,0.0,-4.5502,-4.5397,-4.5397,-4.5397,-4.5397,-4.5397,-4.5397,-4.5397,-4.5397,-4.5397,-4.5008,-4.445,-4.3724,-4.2957,-4.2172,0.0,-4.1283,-4.1396,-4.1709,-4.2477,-4.2968,-4.2968,-4.325,-4.3506,-4.3742,-4.3275,-4.3159,0.0,-4.3314,-4.3498,-4.4296,-4.3987,-4.4147,-4.4906,-4.4605,-4.4504,-4.4615,-4.4615,-4.4615,-4.4615,-4.4615,-4.4615,-4.4615,-4.4615,-4.4615,-4.4615,-4.4615,-4.4615,-4.4615,-4.4615,-4.4906,-4.5329,-4.5503,-4.5554,-4.552,-5.1576,-5.1601,-5.1915,-5.2934,-5.3164,-5.3039,-5.2518,-5.2846,-5.2934,-5.2431,-5.2315,-5.2108,-5.1601,-5.1551,-5.1365,-5.0884,-5.1314,-5.1391,-5.083,-5.0803,-5.0564,-5.0022,-5.0011,-4.9648,-4.8879,-4.881,-4.8448,-4.7741,-4.7027,-4.6648,-4.6596,-4.5811,-4.5702,-4.6186,-4.6654,-4.6513,-4.5998,-4.7212,-4.7132,-4.6334,-4.7848,-4.8885,-4.953,-4.9488,-5.0507,-5.1928,-5.1411,-5.072,-5.01,-5.025,-4.8965,-4.7286,-4.7277,-4.6412,-4.5397,-4.5397,-4.5397,-4.5397,-4.5397,-4.5397,-4.5397,-4.5397,-4.5397,0.0,-4.5397,-4.5397,-4.5397,-4.5397,-4.5397,-4.5397,-4.5397,-4.4837,-4.4121,-4.3362,-4.2551,-4.1757,-4.1015,-4.0912,-4.0912,-4.0912,-4.1622,-4.2136,-4.2136,-4.2157,-4.2157,-4.2136,-4.1613,-4.1567,-4.2171,-4.166,-4.1852,-4.2975,-4.3009,-4.3371,-4.4104,-4.413,-4.4281,-4.4547,-4.4581,-4.4615,-4.4615,-4.4615,-4.4615,-4.4615,-4.4615,-4.4615,-4.4615,-4.4615,-4.4615,-4.4615,-4.4615,-4.4879,-4.5214,-4.4786,-4.4626,-4.4615,-5.1518,-5.1601,-5.1694,-5.1964,-5.2654,-5.3164,-5.3017,-5.2431,-5.1964,-5.1799,-5.1105,-5.0712,-5.0991,-5.1017,-5.1105,-5.1391,-5.1518,-5.1391,-5.083,-5.0803,-5.0564,-5.0022,-5.0011,-4.9907,-4.9717,-4.9103,-4.8706,-4.8517,-4.7758,-4.7148,-4.6613,-4.6406,-4.6046,-4.5615,-4.5985,-4.6123,-4.6099,-4.6656,-4.7178,-4.7673,-4.8626,-4.9443,-5.0028,-4.9364,-4.971,-5.05,-5.0113,-4.9827,-4.9568,-4.9089,-4.8249,-4.7341,-4.6744,-4.601,-4.5397,-4.5397,-4.5397,-4.5397,-4.5397,-4.5397,-4.5397,-4.5397,-4.5397,-4.5397,0.0,0.0,-4.5397,-4.5397,-4.5397,-4.5397,-4.5397,-4.5242,-4.4889,-4.4138,-4.2896,-4.1757,-4.1015,-4.0912,-4.0912,-4.0912,-4.1088,-4.1232,-4.1232,-4.1512,-4.1556,-4.1255,-4.1356,-4.1307,-4.0985,-4.0808,-4.1042,-4.1673,-4.169,-4.2048,-4.2779,-4.3331,-4.364,-4.3724,-4.4299,-4.4615,-4.4615,-4.4615,-4.4615,-4.4615,-4.4615,-4.4615,-4.4615,-4.4615,-4.4615,-4.4615,-4.4615,-4.4665,-4.4814,-4.5035,-4.4906,-4.4615,-5.083,-5.1079,-5.1262,-5.1262,-5.1939,-5.2499,-5.2499,-5.1988,-5.1601,-5.1601,-5.1079,-5.0694,-5.0659,-5.0884,-5.1017,-5.1026,-5.126,-5.1157,-5.0605,-5.0577,-5.0335,-4.9801,-4.9772,-4.9772,-4.9772,-4.9342,-4.9131,-4.9189,-4.8449,-4.7909,-4.7534,-4.6818,-4.6347,-4.6135,-4.6247,-4.6291,-4.6364,-4.6934,-4.7682,-4.8544,-4.8955,-4.9346,0.0,-4.9199,-4.9226,-4.9551,-4.935,-4.9337,-4.9329,-4.9009,-4.8436,-4.7769,-4.7054,-4.6337,-4.5748,-4.5474,-4.5397,-4.5397,-4.5397,-4.5397,-4.5397,-4.5397,-4.5397,-4.5397,-4.5344,-4.53,-4.53,0.0,-4.53,-4.5327,-4.5397,-4.5397,-4.5156,-4.4432,-4.3017,-4.1861,-4.1447,-4.1101,-4.0912,-4.0912,-4.0912,-4.0912,-4.0912,-4.1094,-4.114,-4.0935,-4.1094,-4.1024,0.0,-4.051,-4.0574,-4.0722,-4.0713,-4.1068,-4.1813,-4.2557,-4.3098,-4.3392,-4.4215,-4.4615,-4.4615,-4.4615,-4.4615,-4.4615,-4.4615,-4.4615,-4.4615,-4.4615,-4.4615,-4.4615,-4.4615,-4.4615,-4.4626,-4.4906,-4.4841,-4.4615,-5.0206,-5.0537,-5.0803,-5.0803,-5.1184,-5.1449,-5.1373,-5.1424,-5.1493,-5.1475,-5.1398,-5.1096,-5.0432,-5.0778,-5.0832,-5.0237,-5.0616,-5.068,-5.0209,-5.0198,-4.9988,-4.95,-4.9518,-4.9518,-4.9518,-4.9518,-4.9577,-4.9679,-4.9027,-4.8724,-4.8718,-4.7247,-4.6761,-4.7108,-4.6899,-4.6819,-4.682,-4.7678,-4.8426,-4.9001,-4.9001,-4.9001,-4.9001,-4.9001,-4.9001,-4.9001,-4.9001,-4.9077,-4.9199,-4.9367,-4.8963,-4.8275,-4.774,-4.6992,-4.6179,-4.5662,-4.5413,-4.5344,-4.5371,-4.5371,-4.5371,-4.5397,-4.5397,-4.5344,-4.5247,-4.5194,-4.5177,-4.5177,-4.5177,-4.522,-4.5344,-4.5397,-4.5156,-4.4432,-4.3103,-4.2137,-4.1992,-4.1378,-4.0912,-4.0912,-4.0912,0.0,-4.0912,-4.0912,-4.0912,-4.0912,-4.0912,-4.0776,0.0,0.0,-4.0387,-4.0113,-4.0096,-4.0417,-4.1052,-4.188,-4.2625,-4.3284,-4.4164,-4.4615,-4.4615,-4.4615,-4.4615,-4.4615,-4.4615,-4.4615,-4.4615,-4.4615,-4.4615,-4.4615,-4.4615,-4.4615,-4.4615,-4.4615,-4.4615,-4.4598,-5.1236,-5.1026,-5.0803,-5.0803,-5.0884,-5.0749,-5.0137,-5.0557,-5.0893,-5.0706,-5.03,-4.9936,-4.9691,-4.9762,-4.9762,-4.9661,-4.975,-4.9732,-4.9632,-4.9632,-4.959,-4.9518,-4.9518,-4.9518,-4.9518,-4.9518,-4.9518,-4.9547,-4.9411,-4.9034,-4.8465,-4.8162,-4.7712,-4.718,-4.7039,-4.7226,-4.7725,-4.8487,-4.8883,-4.9001,-4.9001,-4.9001,-4.9001,-4.9001,-4.9001,-4.9001,-4.9001,-4.9001,-4.9032,-4.9063,-4.8663,-4.8137,-4.8048,-4.7147,-4.6116,-4.6024,-4.5556,-4.5086,-4.5194,-4.5247,-4.5274,-4.5371,-4.53,-4.5247,-4.522,-4.5096,-4.5032,-4.5032,-4.5032,-4.5086,-4.522,0.0,-4.5156,-4.4432,-4.3552,-4.2758,-4.2102,-4.1378,-4.0912,-4.0912,-4.0912,-4.0912,-4.0912,-4.0912,-4.0912,-4.0912,-4.0912,-4.0776,-4.0493,0.0,-4.0387,0.0,-4.0096,-4.0163,0.0,0.0,-4.2354,-4.2506,-4.3938,-4.4615,-4.4615,-4.4615,-4.4615,-4.4615,-4.4615,-4.4615,-4.4615,-4.4615,-4.4615,-4.4615,-4.4615,-4.4615,-4.4615,-4.4615,-4.4615,-4.4654,-5.0712,-5.0547,-5.0341,-5.0239,-5.0222,-5.0097,-4.9649,-4.9895,-5.008,-5.0005,-4.975,-4.953,-4.935,-4.935,-4.9337,-4.9246,-4.9246,-4.9246,-4.9246,-4.9246,-4.9246,-4.9246,-4.9246,-4.9246,-4.9246,-4.9246,-4.926,-4.935,-4.935,-4.921,-4.8941,-4.8489,-4.8038,-4.7651,-4.7539,-4.7844,-4.8494,-4.8849,-4.9001,-4.9001,-4.9001,-4.9001,-4.9001,-4.9001,-4.9001,-4.9001,-4.9001,-4.9001,-4.9001,-4.9001,-4.8795,-4.8531,-4.8201,-4.7678,-4.7072,-4.6749,-4.6157,-4.5586,-4.5658,-4.5377,-4.5113,-4.5184,-4.514,-4.5086,-4.5005,-4.4923,-4.4913,-4.4913,-4.4913,-4.494,-4.5059,-4.522,0.0,-4.4819,-4.4208,-4.3638,-4.3258,-4.2206,-4.1481,-4.1481,-4.1136,-4.0912,-4.0912,-4.0912,-4.0912,-4.0912,-4.0912,-4.0776,-4.0493,0.0,-4.0387,0.0,0.0,0.0,-4.0096,0.0,-4.2286,-4.2303,-4.387,-4.4615,-4.4615,-4.4615,-4.4615,-4.4615,-4.4615,-4.4615,-4.4615,-4.4615,-4.4615,-4.4615,-4.4615,-4.4615,-4.4615,-4.4615,-4.4615,-4.4626,-5.032,-5.0217,-5.0074,-4.9895,-4.9849,-4.975,-4.9471,-4.9458,-4.9458,-4.9458,-4.9458,-4.9367,-4.9168,-4.9168,-4.9107,-4.9001,-4.9001,-4.9001,-4.9001,-4.9001,-4.9001,-4.9001,-4.9001,-4.9001,-4.9001,-4.9001,-4.9063,-4.9168,-4.9168,-4.9161,-4.9159,-4.8549,-4.8269,-4.8286,-4.8199,-4.8477,-4.9001,0.0,-4.9001,-4.9001,-4.9001,-4.9001,-4.9001,-4.9001,-4.9001,-4.9001,-4.9001,-4.9001,-4.9001,-4.9001,-4.9001,-4.89,-4.8429,-4.8171,-4.7963,-4.7498,-4.6828,-4.6215,-4.6073,-4.5623,-4.5156,-4.5029,-4.4978,-4.494,-4.4831,-4.4776,-4.4765,-4.4765,-4.4776,-4.4831,-4.4923,-4.5059,0.0,-4.5194,-4.4664,-4.426,-4.4311,-4.2982,-4.2016,-4.2016,-4.136,-4.0912,-4.0912,-4.0912,-4.0912,-4.0912,-4.0871,-4.0752,-4.051,-4.0485,-4.0362,0.0,0.0,-4.0096,-4.0096,0.0,-4.2286,-4.2303,-4.387,-4.4615,-4.4615,-4.4615,-4.4615,-4.4615,-4.4615,-4.4615,-4.4615,-4.4615,-4.4615,-4.4615,-4.4615,-4.4615,-4.4615,-4.4615,-4.4615,-4.4615,-5.1262,-5.0911,-5.0449,-5.0432,-5.0321,-4.9999,-4.9333,-4.9229,-4.9229,-4.9229,-4.9229,-4.9168,-4.9032,-4.9032,-4.9001,-4.9001,-4.9001,-4.9001,-4.9001,-4.9001,-4.9001,-4.9001,-4.9001,-4.9001,-4.9001,-4.9001,-4.9001,-4.9032,-4.9032,-4.8694,-4.8067,-4.8643,-4.8931,-4.8931,-4.89,0.0,0.0,-4.9001,-4.9001,-4.9001,-4.9001,-4.9001,-4.9001,-4.9001,-4.9001,-4.9001,-4.9001,-4.9001,-4.9001,-4.9001,-4.9001,-4.8984,-4.8917,-4.846,-4.7902,-4.7864,-4.7306,-4.6636,-4.6073,-4.5864,-4.5699,-4.5138,-4.4913,-4.4803,-4.4803,-4.4709,-4.4626,-4.4626,-4.4709,-4.4803,-4.4803,-4.494,-4.5059,0.0,-4.4585,-4.4156,-4.4268,-4.2982,-4.2016,-4.2016,-4.136,-4.0912,-4.0912,-4.0912,-4.0912,-4.0912,-4.0793,-4.0631,-4.051,-4.0387,-4.0238,-4.0096,-4.0096,-4.0096,-4.0096,-4.1568,-4.2286,-4.2303,-4.387,-4.4615,-4.4615,-4.4615,-4.4615,-4.4615,-4.4615,-4.4615,-4.4615,-4.4615,-4.4615,-4.4615,-4.4615,-4.4615,-4.4615,-4.4615,-4.4615,-4.4615,-5.0261,-5.0091,-4.9861,-4.9744,-4.9686,-4.9509,-4.9138,-4.9094,-4.9094,-4.9094,-4.9094,-4.9063,-4.9001,-4.9001,-4.9001,-4.9001,-4.9001,-4.9001,-4.9001,-4.9001,-4.9001,-4.9001,-4.9001,-4.9001,-4.9001,-4.9001,-4.9001,-4.9001,-4.9001,-4.8849,-4.8578,-4.8866,-4.9001,0.0,0.0,-4.9001,-4.9001,-4.9001,-4.9001,-4.9001,-4.9001,-4.9001,-4.9001,-4.9001,-4.9001,-4.9001,-4.9001,-4.9001,-4.9001,-4.9001,-4.9001,-4.9001,-4.9001,-4.8798,-4.8578,-4.8578,-4.8054,-4.7411,-4.7166,-4.6467,-4.5704,-4.5484,-4.5049,-4.4682,-4.4682,-4.4626,-4.4615,-4.4615,-4.4654,-4.4682,-4.4682,-4.4776,-4.4913,-4.4951,-4.4793,-4.4668,-4.4721,-4.3812,-4.2971,-4.2466,-4.1763,-4.1146,-4.069,-4.0728,-4.0793,-4.0793,-4.0817,-4.0745,-4.051,-4.0461,-4.0313,-4.0113,0.0,-4.0316,-4.0747,-4.1779,-4.2523,-4.298,-4.4062,-4.4615,-4.4615,-4.4615,-4.4615,-4.4615,-4.4615,-4.4615,-4.4615,-4.4615,-4.4615,-4.4615,-4.4615,-4.4615,-4.4615,-4.4615,-4.4615,-4.4615,-4.9518,-4.9458,-4.935,-4.9229,-4.9168,-4.9107,-4.9001,-4.9001,-4.9086,-4.9306,-4.9323,-4.9238,-4.9018,-4.9001,-4.9001,-4.9001,-4.9001,-4.9001,-4.9001,-4.9001,-4.9001,-4.9001,-4.9001,-4.9001,-4.9001,-4.9001,-4.9001,-4.9001,-4.9001,-4.89,-4.868,-4.868,0.0,0.0,-4.9001,-4.9001,-4.9001,-4.9001,-4.9001,-4.9001,-4.9001,-4.9001,-4.9001,-4.9001,-4.9001,-4.9001,-4.9001,-4.9001,-4.9001,-4.9001,-4.9001,-4.9001,-4.9001,-4.9001,-4.9001,-4.9001,-4.8646,-4.8189,-4.7939,-4.7158,-4.6244,-4.5821,-4.5314,-4.4886,-4.4649,-4.4615,-4.4615,-4.4615,-4.4615,-4.4615,-4.4615,-4.4682,-4.4748,-4.4776,0.0,-4.4951,-4.4978,-4.4373,-4.3621,-4.286,-4.2057,-4.1322,-4.0627,-4.0624,-4.0648,-4.0648,-4.0728,-4.0704,-4.051,-4.0461,0.0,0.0,0.0,0.0,-4.1204,-4.2151,-4.2878,-4.3392,-4.4215,-4.4615,-4.4615,-4.4615,-4.4615,-4.4615,-4.4615,-4.4615,-4.4615,-4.4615,-4.4615,-4.4615,-4.4615,-4.4615,-4.4615,-4.4615,-4.4615,-4.4615,-4.9518,-4.932,-4.9199,-4.9199,-4.9094,-4.9001,-4.9001,-4.9001,-4.9255,-4.9982,-5.0084,-4.9796,-4.9086,-4.9001,-4.9001,-4.9001,-4.9001,-4.9001,-4.9001,-4.9001,-4.9001,-4.9001,-4.9001,-4.9001,-4.9001,-4.9001,-4.9001,-4.9001,-4.9001,-4.8646,-4.7906,0.0,-4.8308,-4.9001,-4.9001,-4.9001,-4.9001,-4.9001,-4.9001,-4.9001,-4.9001,-4.9001,-4.9001,-4.9001,-4.9001,-4.9001,-4.9001,-4.9001,-4.9001,-4.9001,-4.9001,-4.9001,-4.9001,-4.9001,-4.9001,-4.9001,-4.9001,-4.8832,-4.8091,-4.7872,-4.7517,-4.6075,-4.5703,-4.55,-4.4784,-4.4615,-4.4615,-4.4615,-4.4615,-4.4615,-4.4615,-4.4615,-4.4654,-4.4776,0.0,-4.4858,-4.4978,-4.4373,-4.3647,-4.2971,-4.2133,-4.1347,-4.0758,-4.0583,-4.051,-4.051,-4.0493,-4.0493,0.0,0.0,0.0,-4.0096,-4.0798,0.0,-4.1204,-4.2632,-4.3375,-4.3392,-4.4215,-4.4615,-4.4615,-4.4615,-4.4615,-4.4615,-4.4615,-4.4615,-4.4615,-4.4615,-4.4615,-4.4615,-4.4615,-4.4615,-4.4615,-4.4615,-4.4615,-4.4615,-4.98,-4.987,-4.9961,-5.0486,-5.0539,-5.0507,-5.0507,-5.0507,-5.0591,-5.0828,-5.0862,-5.0777,-5.0541,-5.005,-4.9543,-4.9035,-4.9001,-4.9001,-4.9001,-4.9001,-4.9001,-4.9001,-4.9001,-4.9001,-4.9001,-4.9001,-4.9001,-4.9001,0.0,0.0,0.0,-4.8663,-4.8781,-4.9001,-4.9001,-4.9001,-4.9001,-4.9001,-4.9001,-4.9001,-4.9001,-4.9001,-4.9001,-4.9001,-4.9001,-4.9001,-4.9001,-4.9001,-4.9001,-4.9001,-4.9001,-4.9001,-4.9001,-4.9001,-4.9001,-4.9001,-4.9001,-4.8951,-4.8714,-4.8261,-4.777,-4.7314,-4.6447,-4.5652,-4.5399,-4.4942,-4.4615,-4.4615,-4.4615,-4.4615,-4.4615,-4.4615,-4.4598,-4.4654,-4.4654,0.0,-4.4737,-4.4533,-4.4092,-4.3338,-4.2996,-4.2555,-4.1843,-4.1827,-4.1648,-4.1146,-4.1204,0.0,0.0,0.0,0.0,0.0,-4.1085,0.0,-4.2682,-4.3156,-4.369,-4.4215,-4.4496,-4.4615,-4.4615,-4.4615,-4.4615,-4.4615,-4.4615,-4.4615,-4.4615,-4.4615,-4.4615,-4.4615,-4.4615,-4.4615,-4.4615,-4.4615,-4.4615,-4.4615,-5.0422,-5.0507,-5.0659,-5.1133,-5.1185,-5.1185,-5.1185,-5.1185,-5.1319,-5.1589,-5.1623,-5.1623,-5.1623,-5.12,-5.0524,-4.9509,-4.9407,-4.9306,-4.9018,-4.9001,-4.9001,-4.9001,-4.9001,-4.9001,-4.9001,-4.9001,0.0,-4.9001,-4.9001,-4.9001,-4.9001,-4.9001,-4.9001,-4.9001,-4.9001,-4.9001,-4.9001,-4.9001,-4.9001,-4.9001,-4.9001,-4.9001,-4.9001,-4.9001,-4.9001,-4.9001,-4.9001,-4.9001,-4.9001,-4.9001,-4.9001,-4.9001,-4.9001,-4.9001,-4.9001,-4.9001,-4.9001,-4.9001,-4.9001,-4.8663,-4.8257,-4.7956,-4.7225,-4.6397,-4.5838,-4.5331,-4.4925,-4.4666,-4.4615,-4.4615,-4.4615,-4.4615,-4.4615,-4.4615,-4.4615,-4.4615,-4.4615,-4.4615,-4.431,-4.3559,-4.3447,-4.3132,-4.2451,-4.2409,-4.2232,-4.1757,-4.1818,0.0,0.0,0.0,-4.1002,-4.1593,-4.1897,-4.2489,-4.3375,-4.3707,-4.4096,-4.4615,-4.4615,-4.4615,-4.4615,-4.4615,-4.4615,-4.4615,-4.4615,-4.4615,-4.4615,-4.4615,-4.4615,-4.4615,-4.4615,-4.4615,-4.4615,-4.4615,-4.4615,-4.4615,-5.1252,-5.1302,-5.1269,-5.1369,-5.1369,-5.1369,-5.1369,-5.1369,-5.1623,-5.23,-5.2384,-5.2384,-5.2384,-5.2384,-5.1809,-5.0371,0.0,-4.9796,-4.912,-4.9035,-4.9001,-4.9001,-4.9001,-4.9001,-4.9001,-4.9001,-4.9001,-4.9001,-4.9001,-4.9001,-4.9001,-4.9001,-4.9001,-4.9001,-4.9001,-4.9001,-4.9001,-4.9001,-4.9001,-4.9001,-4.9001,-4.9001,-4.9001,-4.9001,-4.9001,-4.9001,-4.9001,-4.9001,-4.9001,-4.9001,-4.9001,-4.9001,-4.9001,-4.9001,-4.9001,-4.9001,-4.9001,-4.9001,-4.9001,-4.9001,-4.8849,-4.8142,-4.7922,-4.7517,-4.6109,-4.5737,-4.5517,-4.4835,-4.4649,-4.4615,-4.4615,-4.4615,-4.4615,-4.4615,-4.4615,-4.4615,-4.4615,-4.4615,-4.4355,-4.3746,-4.3569,0.0,-4.27,-4.2535,-4.2422,0.0,-4.2371,0.0,0.0,0.0,-4.1817,-4.2354,-4.3047,-4.3426,-4.3477,-4.4215,-4.4615,-4.4615,-4.4615,-4.4615,-4.4615,-4.4615,-4.4615,-4.4615,-4.4615,-4.4615,-4.4615,-4.4615,-4.4615,-4.4615,-4.4615,-4.4615,-4.4615,-4.4615,-4.4615,-4.4615,-5.1944,-5.2046,-5.2232,-5.2858,-5.2959,-5.2959,-5.2959,-5.2959,-5.3027,-5.3196,-5.3213,-5.3213,-5.3213,-5.3213,-5.2841,-5.186,-5.0744,-5.0016,-4.9847,-4.9306,-4.9001,-4.9001,-4.9001,-4.9001,-4.9001,-4.9001,-4.9001,-4.9001,-4.9001,-4.9001,-4.9001,-4.9001,-4.9001,-4.9001,-4.9001,-4.9001,-4.9001,-4.9001,-4.9001,-4.9001,-4.9001,-4.9001,-4.9001,-4.9001,-4.9001,-4.9001,-4.9001,-4.9001,-4.9001,-4.9001,-4.9001,-4.9001,-4.9001,-4.9001,-4.9001,-4.9001,-4.9001,-4.9001,-4.9001,-4.9001,-4.8968,-4.8781,-4.8342,-4.7682,-4.6752,-4.6109,-4.5652,-4.5483,-4.4976,-4.4615,-4.4615,-4.4615,-4.4615,-4.4615,-4.4615,-4.4615,-4.4615,-4.4615,-4.453,-4.4372,-4.4327,-4.4259,-4.4118,-4.4056,-4.3792,0.0,0.0,-4.3149,-4.3149,-4.3007,-4.299,-4.3149,-4.3291,-4.3707,-4.4327,-4.4513,-4.4615,-4.4615,-4.4615,-4.4615,-4.4615,-4.4615,-4.4615,-4.4615,-4.4615,-4.4615,-4.4615,-4.4615,-4.4615,-4.4615,-4.4615,-4.4615,-4.4615,-4.4615,-4.4615,-4.4615,-5.2773,-5.2858,-5.2993,-5.3433,-5.3501,-5.3501,-5.3501,-5.3501,-5.3501,-5.3501,-5.3501,-5.3501,-5.3501,-5.3501,-5.3331,-5.2892,-5.1471,-5.0456,-5.0101,-4.9407,-4.9001,-4.9001,-4.9001,-4.9001,-4.9001,-4.9001,-4.9001,-4.9001,-4.9001,-4.9001,-4.9001,-4.9001,-4.9001,-4.9001,-4.9001,-4.9001,-4.9001,-4.9001,-4.9001,-4.9001,-4.9001,-4.9001,-4.9001,-4.9001,-4.9001,-4.9001,-4.9001,-4.9001,-4.9001,-4.9001,-4.9001,-4.9001,-4.9001,-4.9001,-4.9001,-4.9001,-4.9001,-4.9001,-4.9001,-4.9001,-4.9001,-4.9001,-4.8714,-4.8223,-4.7479,-4.7005,-4.6515,-4.5838,-4.5382,-4.4993,-4.4666,-4.4615,-4.4615,-4.4615,-4.4615,-4.4615,-4.4615,-4.4615,-4.4615,-4.4615,-4.4615,-4.4615,-4.4615,-4.4615,-4.4429,-4.3978,-4.3944,0.0,-4.3944,-4.3944,-4.3944,-4.3944,-4.3944,-4.4147,-4.4615,-4.4615,-4.4615,-4.4615,-4.4615,-4.4615,-4.4615,-4.4615,-4.4615,-4.4615,-4.4615,-4.4615,-4.4615,-4.4615,-4.4615,-4.4615,-4.4615,-4.4615,-4.4615,-4.4615,-4.4615,-4.4649,-5.3501,-5.3501,-5.3501,-5.3501,-5.3501,-5.3501,-5.3501,-5.3501,-5.3501,-5.3501,-5.3501,-5.3501,-5.3501,-5.3501,-5.3501,-5.3501,-5.2198,-5.1065,-5.0304,-4.9576,-4.912,-4.9001,-4.9001,-4.9001,-4.9001,-4.9001,-4.9001,-4.9001,-4.9001,-4.9001,-4.9001,-4.9001,-4.9001,-4.9001,-4.9001,-4.9001,-4.9001,-4.9001,-4.9001,-4.9001,-4.9001,-4.9001,-4.9001,-4.9001,-4.9001,-4.9001,-4.9001,-4.9001,-4.9001,-4.9001,-4.9001,-4.9001,-4.9001,-4.9001,-4.9001,-4.9001,-4.9001,-4.9001,-4.9001,-4.9001,-4.9001,-4.9001,-4.9001,-4.8849,-4.8193,-4.7973,-4.7534,-4.6295,-4.5855,-4.5517,-4.4874,-4.4682,-4.4615,-4.4615,-4.4615,-4.4615,-4.4615,0.0,-4.4615,-4.4615,-4.4615,-4.4615,-4.4615,-4.4615,-4.4615,-4.4615,-4.4615,-4.4615,-4.4615,-4.4615,-4.4615,-4.4615,-4.4615,-4.4615,-4.4615,-4.4615,-4.4615,-4.4615,-4.4615,-4.4615,-4.4615,-4.4615,-4.4615,-4.4615,-4.4615,-4.4615,-4.4615,-4.4615,-4.4615,-4.4615,-4.4615,-4.4615,-4.4615,-4.4615,-4.4682,-4.4869,-5.3501,-5.3501,-5.3501,-5.3501,-5.3501,-5.3501,-5.3501,-5.3501,-5.3501,-5.3501,-5.3501,-5.3501,-5.3501,-5.3501,-5.3501,-5.3501,-5.2655,-5.1826,-5.1099,-5.0338,-4.9644,-4.9035,-4.9001,-4.9001,-4.9001,-4.9001,-4.9001,-4.9001,-4.9001,-4.9001,-4.9001,-4.9001,-4.9001,-4.9001,-4.9001,-4.9001,-4.9001,-4.9001,-4.9001,-4.9001,-4.9001,-4.9001,-4.9001,-4.9001,-4.9001,-4.9001,-4.9001,-4.9001,-4.9001,-4.9001,-4.9001,-4.9001,-4.9001,-4.9001,-4.9001,-4.9001,-4.9001,-4.9001,-4.9001,-4.9001,-4.9001,-4.9001,-4.9001,-4.8968,-4.8866,-4.8359,-4.7821,-4.7601,-4.6583,-4.5669,-4.5551,-4.501,-4.4615,-4.4615,-4.4615,-4.4615,-4.4615,0.0,-4.4615,-4.4615,-4.4615,-4.4615,-4.4615,-4.4615,-4.4615,-4.4615,-4.4615,-4.4615,-4.4615,-4.4615,-4.4615,-4.4615,-4.4615,-4.4615,-4.4615,-4.4615,-4.4615,-4.4615,-4.4615,-4.4615,-4.4615,-4.4615,-4.4615,-4.4615,-4.4615,-4.4615,-4.4615,-4.4615,-4.4615,-4.4615,-4.4615,-4.4615,-4.4615,-4.4615,-4.4976,-4.5551,-5.3501,-5.3501,-5.3501,-5.3501,-5.3501,-5.3501,-5.3501,-5.3501,-5.3501,-5.3501,-5.3501,-5.3501,-5.3501,-5.3501,-5.3501,-5.3501,-5.3162,-5.2621,-5.1843,-5.0727,-4.9949,-4.961,-4.9221,-4.9001,-4.9001,-4.9001,-4.9001,-4.9001,-4.9001,-4.9001,-4.9001,-4.9001,-4.9001,-4.9001,-4.9001,-4.9001,-4.9001,-4.9001,-4.9001,-4.9001,-4.9001,-4.9001,-4.9001,-4.9001,-4.9001,-4.9001,-4.9001,-4.9001,-4.9001,-4.9001,-4.9001,-4.9001,-4.9001,-4.9001,-4.9001,-4.9001,-4.9001,-4.9001,-4.9001,-4.9001,-4.9001,-4.9001,-4.9001,-4.9001,-4.9001,-4.8748,-4.8392,-4.7973,-4.7348,-4.6769,-4.6363,-4.5686,-4.5179,-4.5179,-4.4869,-4.4615,-4.4615,-4.4615,-4.4615,-4.4615,-4.4615,-4.4615,-4.4615,-4.4615,-4.4615,-4.4615,-4.4615,-4.4615,-4.4615,-4.4615,-4.4615,-4.4615,-4.4615,-4.4615,-4.4615,-4.4615,-4.4615,-4.4615,-4.4615,-4.4615,-4.4615,-4.4615,-4.4615,-4.4615,-4.4615,-4.4615,-4.4615,-4.4615,-4.4615,-4.4615,-4.4615,-4.4852,-4.5179,-4.5179,-4.5652,-4.6346,-5.3501,-5.3501,-5.3501,-5.3501,-5.3501,-5.3501,-5.3501,-5.3501,-5.3501,-5.3501,-5.3501,-5.3501,-5.3501,-5.3501,-5.3501,-5.3501,-5.3501,-5.3247,-5.2621,-5.1336,-5.0456,-5.0101,-4.939,-4.9001,-4.9001,-4.9001,-4.9001,-4.9001,-4.9001,-4.9001,-4.9001,-4.9001,-4.9001,-4.9001,-4.9001,-4.9001,-4.9001,-4.9001,-4.9001,-4.9001,-4.9001,-4.9001,-4.9001,-4.9001,-4.9001,-4.9001,-4.9001,-4.9001,-4.9001,-4.9001,-4.9001,-4.9001,-4.9001,-4.9001,-4.9001,-4.9001,-4.9001,-4.9001,-4.9001,-4.9001,-4.9001,-4.9001,-4.9001,-4.9001,-4.9001,-4.9001,-4.8849,-4.8291,-4.8007,-4.775,-4.7158,-4.6447,-4.5906,-4.5737,0.0,-4.4801,-4.4632,-4.4615,-4.4615,-4.4615,-4.4615,-4.4615,-4.4615,-4.4615,-4.4615,-4.4615,-4.4615,-4.4615,-4.4615,-4.4615,-4.4615,-4.4615,-4.4615,-4.4615,-4.4615,-4.4615,-4.4615,-4.4615,-4.4615,-4.4615,-4.4615,-4.4615,-4.4615,-4.4615,-4.4615,-4.4615,-4.4615,-4.4615,-4.4699,-4.4869,-4.4869,-4.5297,-4.5957,-4.5957,-4.6413,-4.7141,-5.3501,-5.3501,-5.3501,-5.3501,-5.3501,-5.3501,-5.3501,-5.3501,-5.3501,-5.3501,-5.3501,-5.3501,-5.3501,-5.3501,-5.3501,-5.3501,-5.3501,-5.3484,-5.3416,-5.2604,-5.1522,-5.0152,-4.939,-4.9001,-4.9001,-4.9001,-4.9001,-4.9001,-4.9001,-4.9001,-4.9001,-4.9001,-4.9001,-4.9001,-4.9001,-4.9001,-4.9001,-4.9001,-4.9001,-4.9001,-4.9001,-4.9001,-4.9001,-4.9001,-4.9001,-4.9001,-4.9001,-4.9001,-4.9001,-4.9001,-4.9001,-4.9001,-4.9001,-4.9001,-4.9001,-4.9001,-4.9001,-4.9001,-4.9001,-4.9001,-4.9001,-4.9001,-4.9001,-4.9001,-4.9001,-4.9001,-4.8984,-4.8934,-4.8392,-4.7872,-4.7821,-4.7225,-4.6498,-4.5821,0.0,0.0,-4.4699,-4.4615,-4.4615,-4.4615,-4.4615,-4.4615,-4.4615,-4.4615,-4.4615,-4.4615,-4.4615,-4.4615,-4.4615,-4.4615,-4.4615,-4.4615,-4.4615,-4.4615,-4.4615,-4.4615,-4.4615,-4.4615,-4.4615,-4.4615,-4.4615,-4.4615,-4.4615,-4.4615,-4.4615,-4.4615,-4.4615,-4.4615,-4.4993,-4.5618,-4.5618,-4.6075,-4.6718,-4.6718,-4.7192,-4.7821,-5.3501,-5.3501,-5.3501,-5.3501,-5.3501,-5.3501,-5.3501,-5.3501,-5.3501,-5.3501,-5.3501,-5.3501,-5.3501,-5.3501,-5.3501,-5.3501,-5.3501,-5.3501,-5.3501,-5.3213,-5.2164,-5.0185,-4.9813,-4.9475,-4.9018,-4.9001,-4.9001,-4.9001,-4.9001,-4.9001,-4.9001,-4.9001,-4.9001,-4.9001,-4.9001,-4.9001,-4.9001,-4.9001,-4.9001,-4.9001,-4.9001,-4.9001,-4.9001,-4.9001,-4.9001,-4.9001,-4.9001,-4.9001,-4.9001,-4.9001,-4.9001,-4.9001,-4.9001,-4.9001,-4.9001,-4.9001,-4.9001,-4.9001,-4.9001,-4.9001,-4.9001,-4.9001,-4.9001,-4.9001,-4.9001,-4.9001,-4.9001,-4.9001,-4.8781,-4.8595,-4.8595,-4.7986,-4.7394,-4.7124,0.0,-4.6278,-4.5991,-4.5568,-4.528,-4.528,-4.4874,-4.4615,-4.4615,-4.4615,-4.4615,-4.4615,-4.4615,-4.4615,-4.4615,-4.4615,-4.4615,-4.4615,-4.4615,-4.4615,-4.4615,-4.4615,-4.4615,-4.4615,-4.4615,-4.4615,-4.4615,-4.4615,-4.4615,-4.4615,-4.4615,-4.484,-4.528,-4.528,-4.572,-4.638,-4.638,-4.6836,-4.7479,-4.7479,-4.7953,-4.8595,-5.3501,-5.3501,-5.3501,-5.3501,-5.3501,-5.3501,-5.3501,-5.3501,-5.3501,-5.3501,-5.3501,-5.3501,-5.3501,-5.3501,-5.3501,-5.3501,-5.3501,-5.3501,-5.3501,-5.3501,-5.2689,-5.0862,-5.0574,-5.0101,-4.9357,-4.9357,-4.9238,-4.9001,-4.9001,-4.9001,-4.9001,-4.9001,-4.9001,-4.9001,-4.9001,-4.9001,-4.9001,-4.9001,-4.9001,-4.9001,-4.9001,-4.9001,-4.9001,-4.9001,-4.9001,-4.9001,-4.9001,-4.9001,-4.9001,-4.9001,-4.9001,-4.9001,-4.9001,-4.9001,-4.9001,-4.9001,-4.9001,-4.9001,-4.9001,-4.9001,-4.9001,-4.9001,-4.9001,-4.9001,-4.9001,-4.9001,-4.9001,-4.9001,-4.9001,-4.9001,-4.9001,-4.8595,-4.8159,-4.7922,-4.7479,-4.7056,-4.6819,-4.6363,-4.6058,-4.6058,-4.5585,-4.5309,-4.5309,-4.5309,-4.5309,-4.5309,-4.5309,-4.5309,-4.5309,-4.5309,-4.5309,-4.5309,-4.5309,-4.5309,-4.5309,-4.4835,-4.4615,-4.4615,-4.4615,-4.4615,-4.4615,-4.4852,-4.4942,-4.4942,-4.5207,-4.5568,-4.6058,-4.6058,-4.6481,-4.7141,-4.7141,-4.7597,-4.8257,-4.8257,-4.8578,-4.9001,-5.3501,-5.3501,-5.3501,-5.3501,-5.3501,-5.3501,-5.3501,-5.3501,-5.3501,-5.3501,-5.3501,-5.3501,-5.3501,-5.3501,-5.3501,-5.3501,-5.3501,-5.3501,-5.3501,-5.3501,-5.3145,-5.235,-5.1606,-5.0879,-5.0118,-5.0101,-4.9746,-4.9018,-4.9018,-4.9018,-4.9018,-4.9001,-4.9001,-4.9001,-4.9001,-4.9001,-4.9001,-4.9001,-4.9001,-4.9001,-4.9001,-4.9001,-4.9001,-4.9001,-4.9001,-4.9001,-4.9001,-4.9001,-4.9001,-4.9001,-4.9001,-4.9001,-4.9001,-4.9001,-4.9001,-4.9001,-4.9001,-4.9001,-4.9001,-4.9001,-4.9001,-4.9001,-4.9001,-4.9001,-4.9001,-4.9001,-4.9001,-4.9001,-4.9001,-4.9001,-4.9001,-4.9001,-4.8765,-4.8024,-4.7889,-4.7665,-4.6921,-4.6802,-4.6802,-4.6802,-4.6786,-4.6786,-4.6786,-4.6786,-4.6786,-4.6786,-4.6786,-4.6786,-4.6786,-4.6786,-4.6786,-4.6786,-4.6786,-4.6786,-4.6786,-4.5359,-4.4632,-4.4632,-4.4632,-4.4632,-4.4649,-4.5365,-4.572,-4.5754,-4.6481,-4.6786,-4.6802,-4.6802,-4.7242,-4.7889,-4.7889,-4.8376,-4.9001,-4.9001,-4.9001,-4.9001,-5.3501,-5.3501,-5.3501,-5.3501,-5.3501,-5.3501,-5.3501,-5.3501,-5.3501,-5.3501,-5.3501,-5.3501,-5.3501,-5.3501,-5.3501,-5.3501,-5.3501,-5.3501,-5.3501,-5.3501,-5.3399,-5.3162,-5.2401,-5.164,-5.0896,-5.0879,-5.0777,-5.0557,-5.0033,-4.9763,-4.9746,-4.9238,-4.9001,-4.9001,-4.9001,-4.9001,-4.9001,-4.9001,-4.9001,-4.9001,-4.9001,-4.9001,-4.9001,-4.9001,-4.9001,-4.9001,-4.9001,-4.9001,-4.9001,-4.9001,-4.9001,-4.9001,-4.9001,-4.9001,-4.9001,-4.9001,-4.9001,-4.9001,-4.9001,-4.9001,-4.9001,-4.9001,-4.9001,-4.9001,-4.9001,-4.9001,-4.9001,-4.9001,-4.9001,-4.9001,-4.9001,-4.9001,-4.8934,-4.8714,-4.868,-4.8612,-4.8376,-4.7902,-4.7581,-4.7581,-4.7124,-4.6786,-4.6786,-4.6786,-4.6786,-4.6786,-4.6786,-4.6786,-4.6786,-4.6786,-4.6786,-4.6786,-4.6786,-4.6786,-4.6786,-4.6346,-4.6126,-4.6126,-4.6126,-4.6126,-4.6143,-4.6363,-4.6464,-4.6481,-4.6701,-4.709,-4.7581,-4.7581,-4.802,-4.868,-4.868,-4.8815,-4.9001,-4.9001,-4.9001,-4.9001,-5.3501,-5.3501,-5.3501,-5.3501,-5.3501,-5.3501,-5.3501,-5.3501,-5.3501,-5.3501,-5.3501,-5.3501,-5.3501,-5.3501,-5.3501,-5.3501,-5.3501,-5.3501,-5.3501,-5.3501,-5.3501,-5.3501,-5.3044,-5.2418,-5.1657,-5.1657,-5.1505,-5.1185,-5.076,-5.0541,-5.0524,-5.0084,-4.9881,-4.9864,-4.9576,-4.9441,-4.9424,-4.912,-4.9001,-4.9001,-4.9001,-4.9001,-4.9001,-4.9001,-4.9001,-4.9001,-4.9001,-4.9001,-4.9001,-4.9001,-4.9001,-4.9001,-4.9001,-4.9001,-4.9001,-4.9001,-4.9001,-4.9001,-4.9001,-4.9001,-4.9001,-4.9001,-4.9001,-4.9001,-4.9001,-4.9001,-4.9001,-4.9001,-4.9001,-4.9001,-4.9001,-4.9001,-4.9001,-4.9001,-4.9001,-4.9001,-4.9001,-4.8629,-4.8359,-4.8359,-4.7953,-4.7665,-4.7665,-4.7665,-4.7665,-4.7665,-4.7665,-4.7665,-4.7665,-4.7665,-4.7665,-4.7665,-4.7665,-4.7665,-4.7665,-4.7665,-4.7378,-4.6786,-4.6786,-4.6786,-4.6802,-4.7107,-4.7242,-4.7259,-4.7547,-4.7919,-4.8359,-4.8359,-4.8612,-4.9001,-4.9001,-4.9001,-4.9001,-4.9001,-4.9001,-4.9001,-5.3501,-5.3501,-5.3501,-5.3501,-5.3501,-5.3501,-5.3501,-5.3501,-5.3501,-5.3501,-5.3501,-5.3501,-5.3501,-5.3501,-5.3501,-5.3501,-5.3501,-5.3501,-5.3501,-5.3501,-5.3501,-5.3501,-5.3501,-5.3162,-5.2418,-5.2418,-5.208,-5.1388,-5.1352,-5.1319,-5.1319,-5.1219,-5.1185,-5.1183,-5.049,-5.0185,-5.0152,-4.9475,-4.9204,-4.9204,-4.9204,-4.9171,-4.9103,-4.9103,-4.9069,-4.9001,-4.9001,-4.9001,-4.9001,-4.9001,-4.9001,-4.9001,-4.9001,-4.9001,-4.9001,-4.9001,-4.9001,-4.9001,-4.9001,-4.9001,-4.9001,-4.9001,-4.9001,-4.9001,-4.9001,-4.9001,-4.9001,-4.9001,-4.9001,-4.9001,-4.9001,-4.9001,-4.9001,-4.9001,-4.9001,-4.9001,-4.9001,-4.9001,-4.9001,-4.9001,-4.9001,-4.9001,-4.9001,-4.9001,-4.9001,-4.9001,-4.9001,-4.9001,-4.9001,-4.9001,-4.9001,-4.9001,-4.9001,-4.9001,-4.9001,-4.9001,-4.8325,-4.6989,-4.6989,-4.6989,-4.7005,-4.7699,-4.799,-4.8054,-4.8714,-4.9001,-4.9001,-4.9001,-4.9001,-4.9001,-4.9001,-4.9001,-4.9001,-4.9001,-4.9001,-4.9001,-5.3501,-5.3501,-5.3501,-5.3501,-5.3501,-5.3501,-5.3501,-5.3501,-5.3501,-5.3501,-5.3501,-5.3501,-5.3501,-5.3501,-5.3501,-5.3501,-5.3501,-5.3501,-5.3501,-5.3501,-5.3501,-5.3501,-5.3501,-5.3416,-5.3247,-5.3247,-5.3162,-5.301,-5.2384,-5.2063,-5.2046,-5.1488,-5.1185,-5.1185,-5.1048,-5.098,-5.0963,-5.0811,-5.0744,-5.0744,-5.0744,-5.0388,-4.9847,-4.9847,-4.9492,-4.9001,-4.9001,-4.9001,-4.9001,-4.9001,-4.9001,-4.9001,-4.9001,-4.9001,-4.9001,-4.9001,-4.9001,-4.9001,-4.9001,-4.9001,-4.9001,-4.9001,-4.9001,-4.9001,-4.9001,-4.9001,-4.9001,-4.9001,-4.9001,-4.9001,-4.9001,-4.9001,-4.9001,-4.9001,-4.9001,-4.9001,-4.9001,-4.9001,-4.9001,-4.9001,-4.9001,-4.9001,-4.9001,-4.9001,-4.9001,-4.9001,-4.9001,-4.9001,-4.9001,-4.9001,-4.9001,-4.9001,-4.9001,-4.9001,-4.9001,-4.9001,-4.8849,-4.8528,-4.8528,-4.8528,-4.8528,-4.8697,-4.8765,-4.8781,-4.8934,-4.9001,-4.9001,-4.9001,-4.9001,-4.9001,-4.9001,-4.9001,-4.9001,-4.9001,-4.9001,-4.9001,-5.3501,-5.3501,-5.3501,-5.3501,-5.3501,-5.3501,-5.3501,-5.3501,-5.3501,-5.3501,-5.3501,-5.3501,-5.3501,-5.3501,-5.3501,-5.3501,-5.3501,-5.3501,-5.3501,-5.3501,-5.3501,-5.3501,-5.3501,-5.3501,-5.3501,-5.3501,-5.3501,-5.3501,-5.3078,-5.2875,-5.2858,-5.2486,-5.2317,-5.2283,-5.1911,-5.1725,-5.1708,-5.1369,-5.1185,-5.1185,-5.1185,-5.098,-5.0625,-5.0625,-5.0388,-5.0067,-5.0067,-4.983,-4.9526,-4.9526,-4.9289,-4.9001,-4.9001,-4.9001,-4.9001,-4.9001,-4.9001,-4.9001,-4.9001,-4.9001,-4.9001,-4.9001,-4.9001,-4.9001,-4.9001,-4.9001,-4.9001,-4.9001,-4.9001,-4.9001,-4.9001,-4.9001,-4.9001,-4.9001,-4.9001,-4.9001,-4.9001,-4.9001,-4.9001,-4.9001,-4.9001,-4.9001,-4.9001,-4.9001,-4.9001,-4.9001,-4.9001,-4.9001,-4.9001,-4.9001,-4.9001,-4.9001,-4.9001,-4.9001,-4.9001,-4.9001,-4.9001,-4.9001,-4.9001,-4.9001,-4.9001,-4.9001,-4.9001,-4.9001,-4.9001,-4.9001,-4.9001,-4.9001,-4.9001,-4.9001,-4.9001,-4.9001,-4.9001,-4.9001,-4.9001,-4.9001,-5.3501,-5.3501,-5.3501,-5.3501,-5.3501,-5.3501,-5.3501,-5.3501,-5.3501,-5.3501,-5.3501,-5.3501,-5.3501,-5.3501,-5.3501,-5.3501,-5.3501,-5.3501,-5.3501,-5.3501,-5.3501,-5.3501,-5.3501,-5.3501,-5.3501,-5.3501,-5.3501,-5.3501,-5.3501,-5.3501,-5.3501,-5.3501,-5.3501,-5.3467,-5.2807,-5.252,-5.2469,-5.186,-5.1606,-5.1606,-5.1606,-5.1522,-5.1403,-5.1403,-5.1319,-5.1185,-5.1185,-5.0811,-5.0287,-5.0287,-4.9881,-4.9357,-4.9238,-4.9187,-4.9171,-4.9035,-4.9001,-4.9001,-4.9001,-4.9001,-4.9001,-4.9001,-4.9001,-4.9001,-4.9001,-4.9001,-4.9001,-4.9001,-4.9001,-4.9001,-4.9001,-4.9001,-4.9001,-4.9001,-4.9001,-4.9001,-4.9001,-4.9001,-4.9001,-4.9001,-4.9001,-4.9001,-4.9001,-4.9001,-4.9001,-4.9001,-4.9001,-4.9001,-4.9001,-4.9001,-4.9001,-4.9001,-4.9001,-4.9001,-4.9001,-4.9001,-4.9001,-4.9001,-4.9001,-4.9001,-4.9001,-4.9001,-4.9001,-4.9001,-4.9001,-4.9001,-4.9001,-4.9001,-4.9001,-4.9001,-4.9001,-4.9001,-4.9001,-4.9001,-4.9001,-4.9001,-5.3501,-5.3501,-5.3501,-5.3501,-5.3501,-5.3501,-5.3501,-5.3501,-5.3501,-5.3501,-5.3501,-5.3501,-5.3501,-5.3501,-5.3501,-5.3501,-5.3501,-5.3501,-5.3501,-5.3501,-5.3501,-5.3501,-5.3501,-5.3501,-5.3501,-5.3501,-5.3501,-5.3501,-5.3501,-5.3501,-5.3501,-5.3501,-5.3501,-5.3501,-5.3399,-5.3348,-5.3331,-5.323,-5.3196,-5.3196,-5.3196,-5.2773,-5.2147,-5.2147,-5.1775,-5.1185,-5.1185,-5.115,-5.1065,-5.1065,-5.0997,-5.0794,-5.0152,-4.9949,-4.9813,-4.9187,-4.9001,-4.9001,-4.9001,-4.9001,-4.9001,-4.9001,-4.9001,-4.9001,-4.9001,-4.9001,-4.9001,-4.9001,-4.9001,-4.9001,-4.9001,-4.9001,-4.9001,-4.9001,-4.9001,-4.9001,-4.9001,-4.9001,-4.9001,-4.9001,-4.9001,-4.9001,-4.9001,-4.9001,-4.9001,-4.9001,-4.9001,-4.9001,-4.9001,-4.9001,-4.9001,-4.9001,-4.9001,-4.9001,-4.9001,-4.9001,-4.9001,-4.9001,-4.9001,-4.9001,-4.9001,-4.9001,-4.9001,-4.9001,-4.9001,-4.9001,-4.9001,-4.9001,-4.9001,-4.9001,-4.9001,-4.9001,-4.9001,-4.9001,-4.9001,-4.9001,-5.3501,-5.3501,-5.3501,-5.3501,-5.3501,-5.3501,-5.3501,-5.3501,-5.3501,-5.3501,-5.3501,-5.3501,-5.3501,-5.3501,-5.3501,-5.3501,-5.3501,-5.3501,-5.3501,-5.3501,-5.3501,-5.3501,-5.3501,-5.3501,-5.3501,-5.3501,-5.3501,-5.3501,-5.3501,-5.3501,-5.3501,-5.3501,-5.3501,-5.3501,-5.3501,-5.3501,-5.3501,-5.3501,-5.3501,-5.3501,-5.3501,-5.3298,-5.2976,-5.2976,-5.2773,-5.2486,-5.2486,-5.2215,-5.1826,-5.1826,-5.1555,-5.115,-5.0828,-5.071,-5.0659,-5.0338,-5.0236,-5.0152,-4.9729,-4.961,-4.9509,-4.9103,-4.9001,-4.9001,-4.9001,-4.9001,-4.9001,-4.9001,-4.9001,-4.9001,-4.9001,-4.9001,-4.9001,-4.9001,-4.9001,-4.9001,-4.9001,-4.9001,-4.9001,-4.9001,-4.9001,-4.9001,-4.9001,-4.9001,-4.9001,-4.9001,-4.9001,-4.9001,-4.9001,-4.9001,-4.9001,-4.9001,-4.9001,-4.9001,-4.9001,-4.9001,-4.9001,-4.9001,-4.9001,-4.9001,-4.9001,-4.9001,-4.9001,-4.9001,-4.9001,-4.9001,-4.9001,-4.9001,-4.9001,-4.9001,-4.9001,-4.9001,-4.9001,-4.9001,-4.9001,-4.9001]},{"header":{"parameterUnit":"m.s-1","parameterCategory":1,"la1":30.6,"la2":28.766,"lo1":-90.7593,"lo2":-88.6598,"dy":0.0162,"dx":0.0183,"nx":116,"ny":114,"refTime":"2024-04-09T18:00:00:Z","depth":0,"parameterNumber":3,"parameterNumberName":"V-component_of_WINDS"},"data":[0.0,0.0,0.0,0.0,0.0,0.0,0.0,0.0,0.0,0.0,0.0,0.0,0.0,0.0,0.0,0.0,0.0,0.0,0.0,0.0,0.0,0.0,0.0,0.0,0.0,0.0,0.0,0.0,0.0,0.0,0.0,0.0,0.0,0.0,0.0,0.0,0.0,0.0,0.0,0.0,0.0,0.0,0.0,0.0,0.0,0.0,0.0,0.0,0.0,0.0,0.0,0.0,0.0,0.0,0.0,0.0,0.0,0.0,0.0,0.0,0.0,0.0,0.0,0.0,0.0,0.0,0.0,0.0,0.0,0.0,0.0,0.0,0.0,0.0,0.0,0.0,0.0,0.0,0.0,0.0,0.0,0.0,0.0,0.0,0.0,0.0,0.0,0.0,0.0,0.0,0.0,0.0,0.0,0.0,0.0,0.0,0.0,0.0,0.0,0.0,0.0,0.0,0.0,0.0,0.0,0.0,0.0,0.0,0.0,0.0,0.0,0.0,0.0,0.0,0.0,0.0,0.0,0.0,0.0,0.0,0.0,0.0,0.0,0.0,0.0,0.0,0.0,0.0,0.0,0.0,0.0,0.0,0.0,0.0,0.0,0.0,0.0,0.0,0.0,0.0,0.0,0.0,0.0,0.0,0.0,0.0,0.0,0.0,0.0,0.0,0.0,0.0,0.0,0.0,0.0,0.0,0.0,0.0,0.0,0.0,0.0,0.0,0.0,0.0,0.0,0.0,0.0,0.0,0.0,0.0,0.0,0.0,0.0,0.0,0.0,0.0,0.0,0.0,0.0,0.0,0.0,0.0,0.0,0.0,0.0,0.0,0.0,0.0,0.0,0.0,0.0,0.0,0.0,0.0,0.0,0.0,0.0,0.0,0.0,0.0,0.0,0.0,0.0,0.0,0.0,0.0,0.0,0.0,0.0,0.0,0.0,0.0,0.0,0.0,0.0,0.0,0.0,0.0,0.0,0.0,0.0,0.0,0.0,0.0,0.0,0.0,0.0,0.0,0.0,0.0,0.0,0.0,0.0,0.0,0.0,0.0,0.0,0.0,0.0,0.0,0.0,0.0,0.0,0.0,0.0,0.0,0.0,0.0,0.0,0.0,0.0,0.0,0.0,0.0,0.0,0.0,0.0,0.0,0.0,0.0,0.0,0.0,0.0,0.0,0.0,0.0,0.0,0.0,0.0,0.0,0.0,0.0,0.0,0.0,0.0,0.0,0.0,0.0,0.0,0.0,0.0,0.0,0.0,0.0,0.0,0.0,0.0,0.0,0.0,0.0,0.0,0.0,0.0,0.0,0.0,0.0,0.0,0.0,0.0,0.0,0.0,0.0,0.0,0.0,0.0,0.0,0.0,0.0,0.0,0.0,0.0,0.0,0.0,0.0,0.0,0.0,0.0,0.0,0.0,0.0,0.0,0.0,0.0,0.0,0.0,0.0,0.0,0.0,0.0,0.0,0.0,0.0,0.0,0.0,0.0,0.0,0.0,0.0,0.0,0.0,0.0,0.0,0.0,0.0,0.0,0.0,0.0,0.0,0.0,0.0,0.0,0.0,0.0,0.0,0.0,0.0,0.0,0.0,0.0,0.0,0.0,0.0,0.0,0.0,0.0,0.0,0.0,0.0,0.0,0.0,0.0,0.0,0.0,0.0,0.0,0.0,0.0,0.0,0.0,0.0,0.0,0.0,0.0,0.0,0.0,0.0,0.0,0.0,0.0,0.0,0.0,0.0,0.0,0.0,0.0,0.0,0.0,0.0,0.0,0.0,0.0,0.0,0.0,0.0,0.0,0.0,0.0,0.0,0.0,0.0,0.0,0.0,0.0,0.0,0.0,0.0,0.0,0.0,0.0,0.0,0.0,0.0,0.0,0.0,0.0,0.0,0.0,0.0,0.0,0.0,0.0,0.0,0.0,0.0,0.0,0.0,0.0,0.0,0.0,0.0,0.0,0.0,0.0,0.0,0.0,0.0,0.0,0.0,0.0,0.0,0.0,0.0,0.0,0.0,0.0,0.0,0.0,0.0,0.0,0.0,0.0,0.0,0.0,0.0,0.0,0.0,0.0,0.0,0.0,0.0,0.0,0.0,0.0,0.0,0.0,0.0,0.0,0.0,0.0,0.0,0.0,0.0,0.0,0.0,0.0,0.0,0.0,0.0,0.0,0.0,0.0,0.0,0.0,0.0,0.0,0.0,0.0,0.0,0.0,0.0,0.0,0.0,0.0,0.0,0.0,0.0,0.0,0.0,0.0,0.0,0.0,0.0,0.0,0.0,0.0,0.0,0.0,0.0,0.0,0.0,0.0,0.0,0.0,0.0,0.0,0.0,0.0,0.0,0.0,0.0,0.0,0.0,0.0,0.0,0.0,0.0,0.0,0.0,0.0,0.0,0.0,0.0,0.0,0.0,0.0,0.0,0.0,0.0,0.0,0.0,0.0,0.0,0.0,0.0,0.0,0.0,0.0,0.0,0.0,0.0,0.0,0.0,0.0,0.0,0.0,0.0,0.0,0.0,0.0,0.0,0.0,0.0,0.0,0.0,0.0,0.0,0.0,0.0,0.0,0.0,0.0,0.0,0.0,0.0,0.0,0.0,0.0,0.0,0.0,0.0,0.0,0.0,0.0,0.0,0.0,0.0,0.0,0.0,0.0,0.0,0.0,0.0,0.0,0.0,0.0,0.0,0.0,0.0,0.0,0.0,0.0,0.0,0.0,0.0,0.0,0.0,0.0,0.0,0.0,0.0,0.0,0.0,0.0,0.0,0.0,0.0,0.0,0.0,0.0,0.0,0.0,0.0,0.0,0.0,0.0,0.0,0.0,0.0,0.0,0.0,0.0,0.0,0.0,0.0,0.0,0.0,0.0,0.0,0.0,0.0,0.0,0.0,0.0,0.0,0.0,0.0,0.0,0.0,0.0,0.0,0.0,0.0,0.0,0.0,0.0,0.0,0.0,0.0,0.0,0.0,0.0,0.0,0.0,0.0,0.0,0.0,0.0,0.0,0.0,0.0,0.0,0.0,0.0,0.0,0.0,0.0,0.0,0.0,0.0,0.0,0.0,0.0,0.0,0.0,0.0,0.0,0.0,0.0,0.0,0.0,0.0,0.0,0.0,0.0,0.0,0.0,0.0,0.0,0.0,0.0,0.0,0.0,0.0,0.0,0.0,0.0,0.0,0.0,0.0,0.0,0.0,0.0,0.0,0.0,0.0,0.0,0.0,0.0,0.0,0.0,0.0,0.0,0.0,0.0,0.0,0.0,0.0,0.0,0.0,0.0,0.0,0.0,0.0,0.0,0.0,0.0,0.0,0.0,0.0,0.0,0.0,0.0,0.0,0.0,0.0,0.0,0.0,0.0,0.0,0.0,0.0,0.0,0.0,0.0,0.0,0.0,0.0,0.0,0.0,0.0,0.0,0.0,0.0,0.0,0.0,0.0,0.0,0.0,0.0,0.0,0.0,0.0,0.0,0.0,0.0,0.0,0.0,0.0,0.0,0.0,0.0,0.0,0.0,0.0,0.0,0.0,0.0,0.0,0.0,0.0,0.0,0.0,0.0,0.0,0.0,0.0,0.0,0.0,0.0,0.0,0.0,0.0,0.0,0.0,0.0,0.0,0.0,0.0,0.0,0.0,0.0,0.0,0.0,0.0,0.0,0.0,0.0,0.0,0.0,0.0,0.0,0.0,0.0,0.0,0.0,0.0,0.0,0.0,0.0,0.0,0.0,0.0,0.0,0.0,0.0,0.0,0.0,0.0,0.0,0.0,0.0,0.0,0.0,0.0,0.0,0.0,0.0,0.0,0.0,0.0,0.0,0.0,0.0,0.0,0.0,0.0,0.0,0.0,0.0,0.0,0.0,0.0,0.0,0.0,0.0,0.0,0.0,0.0,0.0,0.0,0.0,0.0,0.0,0.0,0.0,0.0,0.0,0.0,0.0,0.0,0.0,0.0,0.0,0.0,0.0,0.0,0.0,0.0,0.0,0.0,0.0,0.0,0.0,0.0,0.0,0.0,0.0,0.0,0.0,0.0,0.0,0.0,0.0,0.0,0.0,0.0,0.0,0.0,0.0,0.0,0.0,0.0,0.0,0.0,0.0,0.0,0.0,0.0,0.0,0.0,0.0,0.0,0.0,0.0,0.0,0.0,0.0,0.0,0.0,0.0,0.0,0.0,0.0,0.0,0.0,0.0,0.0,0.0,0.0,0.0,0.0,0.0,0.0,0.0,0.0,0.0,0.0,0.0,0.0,0.0,0.0,0.0,0.0,0.0,0.0,0.0,0.0,0.0,0.0,0.0,0.0,0.0,0.0,0.0,0.0,0.0,0.0,0.0,0.0,0.0,0.0,0.0,0.0,0.0,0.0,0.0,0.0,0.0,0.0,0.0,0.0,0.0,0.0,0.0,0.0,0.0,0.0,0.0,0.0,0.0,0.0,0.0,0.0,0.0,0.0,0.0,0.0,0.0,0.0,0.0,0.0,0.0,0.0,0.0,0.0,0.0,0.0,0.0,0.0,0.0,0.0,0.0,0.0,0.0,0.0,0.0,0.0,0.0,0.0,0.0,0.0,0.0,0.0,0.0,0.0,0.0,0.0,0.0,0.0,0.0,0.0,0.0,0.0,0.0,0.0,0.0,0.0,0.0,0.0,0.0,0.0,0.0,0.0,0.0,0.0,0.0,0.0,0.0,0.0,0.0,0.0,0.0,0.0,0.0,0.0,0.0,0.0,0.0,0.0,0.0,0.0,0.0,0.0,0.0,0.0,0.0,0.0,0.0,0.0,0.0,0.0,0.0,0.0,0.0,0.0,0.0,0.0,0.0,0.0,0.0,0.0,0.0,0.0,0.0,0.0,0.0,0.0,0.0,0.0,0.0,0.0,0.0,0.0,0.0,0.0,0.0,0.0,0.0,0.0,0.0,0.0,0.0,0.0,0.0,0.0,0.0,0.0,0.0,0.0,0.0,0.0,0.0,0.0,0.0,0.0,0.0,0.0,0.0,0.0,0.0,0.0,0.0,0.0,0.0,0.0,0.0,0.0,0.0,0.0,0.0,0.0,0.0,0.0,0.0,0.0,0.0,0.0,0.0,0.0,0.0,0.0,0.0,0.0,0.0,0.0,0.0,0.0,0.0,0.0,0.0,0.0,0.0,0.0,0.0,0.0,0.0,0.0,0.0,0.0,0.0,0.0,0.0,0.0,0.0,0.0,0.0,0.0,0.0,0.0,0.0,0.0,0.0,0.0,0.0,0.0,0.0,0.0,0.0,0.0,0.0,0.0,0.0,0.0,0.0,0.0,0.0,0.0,0.0,0.0,0.0,0.0,0.0,0.0,0.0,0.0,0.0,0.0,0.0,0.0,0.0,0.0,0.0,0.0,0.0,0.0,0.0,0.0,0.0,0.0,0.0,0.0,0.0,0.0,0.0,0.0,0.0,0.0,0.0,0.0,0.0,0.0,0.0,0.0,0.0,0.0,0.0,0.0,0.0,0.0,0.0,0.0,0.0,0.0,0.0,0.0,0.0,0.0,0.0,0.0,0.0,0.0,0.0,0.0,0.0,0.0,0.0,0.0,0.0,0.0,0.0,0.0,0.0,0.0,0.0,0.0,0.0,0.0,0.0,0.0,0.0,0.0,0.0,0.0,0.0,0.0,0.0,0.0,0.0,0.0,0.0,0.0,0.0,0.0,0.0,0.0,0.0,0.0,0.0,0.0,0.0,0.0,0.0,0.0,0.0,0.0,0.0,0.0,0.0,0.0,0.0,0.0,0.0,0.0,0.0,0.0,0.0,0.0,0.0,0.0,0.0,0.0,0.0,0.0,0.0,0.0,0.0,0.0,0.0,0.0,0.0,0.0,0.0,0.0,0.0,0.0,0.0,0.0,0.0,0.0,0.0,0.0,0.0,0.0,0.0,0.0,0.0,0.0,0.0,0.0,0.0,0.0,0.0,0.0,0.0,0.0,0.0,0.0,0.0,0.0,0.0,0.0,0.0,0.0,0.0,0.0,0.0,0.0,0.0,0.0,0.0,0.0,0.0,0.0,0.0,0.0,0.0,0.0,0.0,0.0,0.0,0.0,0.0,0.0,0.0,0.0,0.0,0.0,0.0,0.0,0.0,1.7654,1.7624,0.0,0.0,0.0,0.0,0.0,0.0,0.0,0.0,0.0,0.0,0.0,0.0,0.0,0.0,0.0,0.0,0.0,0.0,0.0,0.0,0.0,0.0,0.0,1.0171,1.0141,1.0066,0.9985,0.9879,0.9879,0.0,0.0,0.0,0.0,0.0,1.0061,1.0183,1.0304,1.0304,1.0304,1.0122,0.9822,0.9822,0.9822,0.9819,0.0,0.0,0.0,0.0,0.0,0.0,0.0,0.0,0.0,0.0,0.0,0.0,0.0,0.0,0.0,0.0,0.0,0.0,0.0,0.0,0.0,0.0,0.0,0.0,0.0,0.0,0.0,0.0,0.0,0.0,0.0,0.0,0.0,0.0,0.0,0.0,0.0,0.0,0.0,0.0,0.0,0.0,0.0,0.0,0.0,0.0,0.0,0.0,0.0,0.0,0.0,0.0,0.0,0.0,0.0,0.0,0.0,0.0,0.0,0.0,0.0,0.0,0.0,0.0,0.0,0.0,0.0,0.0,0.0,0.0,1.7485,1.7412,0.0,0.0,0.0,0.0,0.0,0.0,0.0,0.0,0.0,0.0,0.0,0.0,0.0,0.0,0.0,0.0,0.0,0.0,0.0,0.0,0.0,1.0151,0.996,0.9947,0.9896,0.9832,0.9822,0.9822,0.9822,0.9822,0.0,0.0,0.0,0.9943,1.0304,1.0365,1.0486,1.0728,1.0425,1.0183,1.0004,0.9943,0.9879,0.9879,0.9819,0.0,0.0,0.0,0.0,0.0,0.0,0.0,0.0,0.0,0.0,0.0,0.0,0.0,0.0,0.0,0.0,0.0,0.0,0.0,0.0,0.0,0.0,0.0,0.0,0.0,0.0,0.0,0.0,0.0,0.0,0.0,0.0,0.0,0.0,0.0,0.0,0.0,0.0,0.0,0.0,0.0,0.0,0.0,0.0,0.0,0.0,0.0,0.0,0.0,0.0,0.0,0.0,0.0,0.0,0.0,0.0,0.0,0.0,0.0,0.0,0.0,0.0,0.0,1.8421,1.8311,1.8083,1.8083,1.7877,1.7588,1.7529,1.735,1.7086,1.7044,0.0,0.0,0.0,0.0,0.0,0.0,0.0,0.0,0.0,0.0,0.0,0.0,0.0,0.0,0.0,0.0,0.0,0.0,0.0,0.9873,0.9852,0.9849,0.9842,0.9822,0.9822,0.9822,0.9822,0.9822,0.9822,0.9822,0.9822,0.9943,1.0304,1.0607,1.0607,1.0365,1.0304,1.0425,1.0668,1.0365,1.0243,1.0243,0.994,0.9822,0.9822,0.0,0.0,0.0,0.0,0.0,0.0,0.0,0.0,0.0,0.0,0.0,0.0,0.0,0.0,0.0,0.0,0.0,0.0,0.0,0.0,0.0,0.0,0.0,0.0,0.0,0.0,0.0,0.0,0.0,0.0,0.0,0.0,0.0,0.0,0.0,0.0,0.0,0.0,0.0,0.0,0.0,2.0072,1.9807,0.0,0.0,0.0,0.0,0.0,0.0,0.0,0.0,0.0,0.0,0.0,0.0,0.0,1.8421,1.8421,1.8421,1.8421,1.8421,1.8421,1.8363,1.8363,1.8363,1.8172,1.7944,1.7709,0.0,1.7074,1.6845,0.0,0.0,0.0,0.0,0.0,0.0,0.0,0.0,0.0,0.0,0.0,0.0,0.0,0.0,0.0,0.0,0.0,0.0,0.0,0.0,0.0,0.9822,0.9822,0.9822,0.9822,0.9822,0.9822,0.9822,0.9822,0.9822,0.9822,0.9943,1.0304,1.0425,1.0547,1.0607,1.0789,1.0849,1.0789,1.0668,1.0607,1.0547,1.0425,1.0122,0.9822,0.9822,0.0,0.0,0.0,0.0,0.0,0.0,0.0,0.0,0.0,0.0,0.0,0.0,0.0,0.0,0.0,0.0,0.0,0.0,0.0,0.0,0.0,0.0,0.0,0.0,0.0,0.0,0.0,0.0,0.0,0.0,0.0,0.0,0.0,0.0,0.0,0.0,0.0,0.0,0.0,2.1984,2.0865,2.1494,2.0296,1.9591,0.0,0.0,0.0,0.0,0.0,0.0,0.0,0.0,0.0,1.8952,1.8952,1.8952,1.8952,1.8952,1.8952,1.8952,1.8952,1.8887,1.8706,1.8706,1.8526,1.8231,1.7957,1.7716,1.7571,1.6807,1.6374,1.6235,0.0,0.0,0.0,0.0,1.5891,1.5891,0.0,0.0,0.0,0.0,0.0,0.0,0.0,0.0,0.0,0.0,0.0,0.0,0.9822,0.9822,0.9822,0.9822,0.9822,0.9822,0.9822,0.9822,0.9819,0.9943,0.994,1.0122,1.0547,1.0547,1.0728,1.1035,1.1212,1.1216,1.1035,1.097,1.091,1.091,1.0849,1.0486,0.994,0.994,0.9879,0.0,0.0,0.0,0.0,0.0,0.0,0.0,0.0,0.0,0.0,0.0,0.0,0.0,0.0,0.0,0.0,0.0,0.0,0.0,0.0,0.0,0.0,0.0,0.0,0.0,0.0,0.0,0.0,0.0,0.0,0.0,0.0,0.0,0.0,0.0,0.0,0.0,0.0,2.2914,2.1623,2.2862,2.0895,1.988,0.0,0.0,0.0,0.0,0.0,0.0,1.9424,1.9424,1.9424,1.9424,1.9424,1.9424,1.9424,1.9424,1.9424,1.9424,1.9424,1.9243,1.9055,1.9055,1.8848,1.8532,1.8269,1.8077,1.7975,1.6919,1.6386,1.6149,1.6129,1.6045,1.5998,1.6105,1.6099,1.6099,0.0,0.0,0.0,0.0,0.0,0.0,0.0,0.0,0.0,0.0,0.0,0.9822,0.9822,0.9822,0.9822,0.9822,0.9822,0.9822,0.9822,0.9822,0.994,1.0243,1.0243,1.0607,1.1212,1.1273,1.1402,1.1776,1.1458,1.1458,1.1716,1.1402,1.1273,1.1273,1.097,1.0607,1.0243,1.0243,1.0061,0.9822,0.0,0.0,0.0,0.0,0.0,0.0,0.0,0.0,0.0,0.0,0.0,0.0,0.0,0.0,0.0,0.0,0.0,0.0,0.0,0.0,0.0,0.0,0.0,0.0,0.0,0.0,0.0,0.0,0.0,0.0,0.0,0.0,0.0,0.0,0.0,0.0,0.0,0.0,0.0,2.2862,2.0895,0.0,0.0,0.0,0.0,1.9424,1.9424,1.9424,1.9424,1.9424,1.9424,1.9424,1.9424,1.9424,1.9424,1.9424,1.9424,1.9424,1.9424,1.9366,1.9366,1.9366,1.9212,1.8888,1.8577,1.8307,1.8033,1.7386,1.6993,1.6744,1.6678,1.6524,1.6324,1.6577,1.6677,1.6624,0.0,0.0,0.0,0.0,0.0,0.363,0.2772,0.6208,0.8607,0.7739,0.89,0.9822,0.9822,0.9822,0.9822,0.9822,0.9822,0.9822,0.9822,0.9822,0.994,1.0304,1.0304,1.0486,1.097,1.1212,1.1333,1.1462,1.1587,1.1651,1.1776,1.1651,1.1647,1.1647,1.1526,1.1281,1.091,1.0486,1.0243,1.0126,1.0126,1.1084,0.0,0.0,0.0,0.0,0.0,0.0,0.0,0.0,0.0,0.0,0.0,0.0,0.0,0.0,0.0,0.0,0.0,0.0,0.0,0.0,0.0,0.0,0.0,0.0,0.0,0.0,0.0,0.0,0.0,0.0,0.0,0.0,0.0,0.0,0.0,0.0,0.0,2.2862,2.0895,0.0,2.106,2.0104,1.9424,1.9424,1.9424,1.9424,1.9424,1.9424,1.9424,1.9424,1.9424,1.9424,1.9424,1.9424,1.9424,1.9424,1.9424,1.9424,1.9424,1.9424,1.9305,1.9205,1.9148,1.903,1.8911,1.8443,1.788,1.7306,1.7118,1.6949,1.6883,1.6747,1.6677,1.6677,0.0,0.0,0.0,0.0,0.0,0.2956,0.2157,0.5533,0.7925,0.6999,0.8593,0.9822,0.9822,0.9822,0.9822,0.9822,0.9822,0.9822,0.9822,0.9883,1.0126,1.0425,1.0671,1.0914,1.116,1.1341,1.1462,1.1462,1.1712,1.1776,1.1776,1.1776,1.1776,1.1776,1.1776,1.1651,1.1402,1.0849,1.0547,1.0486,1.0486,1.1205,1.2402,0.0,0.0,0.0,0.0,0.0,0.0,0.0,0.0,0.0,0.0,0.0,0.0,0.0,0.0,0.0,0.0,0.0,0.0,0.0,0.0,0.0,0.0,0.0,0.0,0.0,0.0,0.0,0.0,0.0,0.0,0.0,0.0,0.0,0.0,2.3311,2.2248,2.348,2.1124,1.988,2.106,2.0104,1.9424,1.9424,1.9459,1.9512,1.9512,1.9606,1.9659,1.9659,1.9659,1.9659,1.9659,1.9659,1.9659,1.9659,1.9659,1.9606,1.9512,1.9512,1.9459,1.9424,1.9424,1.9424,1.9352,1.9152,1.8731,1.8181,1.7786,1.7576,1.7483,1.7253,1.715,1.7137,0.0,0.0,0.0,0.0,0.0,0.1973,0.1973,0.4795,0.6877,0.6877,0.8593,0.9822,0.9822,0.9822,0.9822,0.9822,0.9822,0.9822,0.9822,1.0122,1.0425,1.0789,1.1405,1.1776,1.1776,1.1776,1.1776,1.1776,1.1776,1.1776,1.1776,1.1776,1.1776,1.1776,1.1776,1.1776,1.1776,1.1458,1.1091,1.0789,1.0789,1.1031,1.145,0.0,0.0,0.0,0.0,0.0,0.0,0.0,0.0,0.0,0.0,0.0,0.0,0.0,0.0,0.0,0.0,0.0,0.0,0.0,0.0,0.0,0.0,0.0,0.0,0.0,0.0,0.0,0.0,0.0,0.0,0.0,0.0,0.0,2.6364,2.4501,2.3424,2.4556,2.1574,1.988,2.1002,2.0111,1.9379,1.9379,1.9646,1.9813,1.9813,2.008,2.0173,2.0173,2.0173,2.0173,2.0173,2.0173,2.0173,2.0173,2.0173,2.0087,1.9813,1.9806,1.9646,1.9379,1.943,1.9424,1.9424,1.9424,1.9424,1.937,1.8731,1.8331,1.8125,1.8061,1.8002,1.7955,0.0,0.0,0.0,0.0,0.111,0.1973,0.1973,0.4795,0.6877,0.6877,0.8593,0.9822,0.9822,0.9822,0.9822,0.9822,0.9822,0.9822,0.9822,0.9879,1.0061,1.0425,0.0,0.0,1.1458,1.1458,1.1587,1.1776,1.1776,1.1776,1.1776,1.1776,1.1776,1.1776,1.1776,1.1651,1.1458,1.1333,1.1091,1.0849,1.1031,1.1212,1.1454,0.0,0.0,0.0,0.0,0.0,0.0,0.0,0.0,0.0,0.0,0.0,0.0,0.0,0.0,0.0,0.0,0.0,0.0,0.0,0.0,0.0,0.0,0.0,0.0,0.0,0.0,0.0,0.0,0.0,0.0,0.0,2.63,2.5907,2.5348,2.3991,2.2813,2.2248,2.1288,2.0493,1.9938,1.9787,1.9679,1.9679,1.9953,2.0114,2.0114,2.0187,2.0173,2.0173,2.0173,2.0173,2.0173,2.0173,2.0173,2.0173,2.0173,2.0187,2.0107,1.99,1.976,1.9673,1.9459,1.9424,1.9424,1.9424,1.9424,1.939,1.8951,1.8748,1.8652,1.8422,1.823,1.7982,0.0,0.0,0.0,0.0,0.062,0.1357,0.1911,0.4304,0.6263,0.6815,0.8593,0.9822,0.9822,0.9822,0.9822,0.9822,0.9822,0.9822,0.9822,0.994,1.0183,0.0,0.0,1.091,1.1091,1.1091,1.1216,1.1405,1.1405,1.1405,1.1405,1.1405,1.1405,1.1405,1.1405,1.1281,1.1091,1.1091,1.097,1.0849,1.1031,1.1152,1.139,1.235,1.3904,1.5693,1.6455,1.7877,1.9424,1.9424,0.0,0.0,0.0,0.0,0.0,0.0,0.0,0.0,0.0,0.0,0.0,0.0,0.0,0.0,0.0,0.0,0.0,0.0,0.0,0.0,0.0,0.0,0.0,0.0,2.6845,2.6509,2.5835,2.415,2.2757,2.2021,2.1176,2.035,1.9663,1.9813,1.998,1.998,2.0254,2.0421,2.0421,2.0535,2.0601,2.0601,2.0601,2.0601,2.0601,2.0601,2.0601,2.0601,2.0601,2.0535,2.0414,2.0247,2.0034,1.9786,1.9626,1.9479,1.9424,1.9424,1.9424,1.941,0.0,0.0,0.0,0.0,1.8484,1.823,0.0,0.0,0.0,0.0,0.0125,0.0679,0.2034,0.3876,0.559,0.694,0.8714,0.9822,0.9822,0.9822,0.9822,0.9822,0.9822,0.9822,0.9822,1.0061,0.0,1.0668,1.0668,1.0728,1.0728,1.0728,1.0789,1.0789,1.0789,1.0789,1.0789,1.0789,1.0789,1.0789,1.0789,1.0789,1.0728,1.0728,1.0728,1.0668,1.0668,1.091,1.1273,1.1273,1.3066,1.5569,1.5569,1.7232,1.9424,1.9424,0.0,0.0,0.0,0.0,0.0,0.0,0.0,0.0,0.0,0.0,0.0,0.0,0.0,0.0,0.0,0.0,0.0,0.0,0.0,0.0,0.0,0.0,0.0,0.0,2.7206,2.7043,2.7043,2.4906,2.332,2.3263,2.159,2.0392,2.0308,2.0401,2.0456,2.0456,2.0616,2.0728,2.0728,2.0969,0.0,0.0,0.0,2.1109,2.1109,2.1109,2.1109,2.1109,2.1109,2.0975,2.0722,2.0688,2.0374,1.9846,1.9813,1.9633,1.9424,1.9424,1.9424,1.9424,1.9424,1.9424,1.9332,1.9072,1.8791,1.8544,0.0,0.0,0.0,0.0,0.0872,0.2034,0.3324,0.5223,0.7001,0.8358,0.9275,0.9822,0.9822,0.9822,0.9822,0.9822,0.9822,0.9822,0.9822,0.9883,0.994,1.0001,1.0001,1.0126,1.0365,1.0425,1.0547,1.0789,1.0789,1.0789,1.0789,1.0789,1.0789,1.0789,1.0789,1.0668,1.0425,1.0425,1.0243,1.0001,1.0001,1.0365,1.091,1.1212,1.2946,1.5208,1.551,1.7232,1.9424,1.9424,1.9424,1.9424,1.9424,1.954,0.0,0.0,0.0,0.0,0.0,0.0,0.0,0.0,0.0,0.0,0.0,0.0,0.0,0.0,0.0,0.0,0.0,0.0,0.0,2.7377,2.7377,2.7323,2.7323,2.6149,2.5158,2.4933,2.4594,2.4055,2.3403,2.2601,2.2141,2.2141,2.1465,2.1029,2.1029,2.1082,2.1109,2.1109,2.1109,2.1109,2.1109,2.1109,2.1109,2.1109,2.1109,0.0,2.1022,2.0782,2.0488,2.0134,1.99,1.9633,1.9424,1.9424,1.9424,1.9424,1.9424,1.9424,1.9417,1.9305,1.9092,1.8838,0.0,0.0,0.0,0.0,0.1127,0.2403,0.3692,0.559,0.737,0.8729,0.9396,0.9822,0.9822,0.9822,0.9822,0.9822,0.9822,0.9822,0.9822,0.9822,0.9822,0.9822,0.9822,0.9879,1.0061,1.0061,1.0122,1.0304,1.0304,1.0304,1.0304,1.0304,1.0304,1.0304,1.0304,1.0183,1.0061,1.0061,0.994,0.9822,0.9822,1.0122,1.0607,1.091,1.2822,1.5391,1.551,1.7232,1.9424,1.9424,1.9424,1.9424,1.9424,1.9424,1.954,0.0,0.0,0.0,0.0,0.0,0.0,0.0,0.0,0.0,0.0,0.0,0.0,0.0,0.0,2.7142,2.7755,0.0,2.7862,2.7862,2.7755,2.7638,2.7638,2.7224,2.663,2.5731,2.5258,2.4549,2.3523,2.3064,2.2588,2.1921,2.1393,2.1109,2.1109,2.1109,2.1109,2.1109,2.1109,2.1109,2.1109,2.1109,2.1109,2.1109,2.1109,2.1109,2.1109,2.0955,2.0648,2.0167,2.008,1.9773,1.9424,1.9424,1.9424,1.9424,1.9424,1.9424,1.9424,1.9424,1.9272,1.9145,0.0,0.0,0.0,0.0323,0.1513,0.2843,0.4185,0.602,0.7678,0.8851,0.946,0.9822,0.9822,0.9822,0.9822,0.9822,0.9822,0.9822,0.0,0.9822,0.9822,0.9822,0.9822,0.9822,0.9822,0.9822,0.9822,0.9822,0.9822,0.9822,0.9822,0.9822,0.9822,0.9822,0.9822,0.9822,0.9822,0.9822,0.9822,0.9822,0.9822,1.0001,1.0365,1.0668,1.2582,1.5154,1.5515,1.705,1.9068,1.9307,1.9424,1.9424,1.9424,1.9424,1.9424,1.9424,1.9482,0.0,0.0,0.0,0.0,0.0,0.0,0.0,0.0,2.5287,2.6245,2.6472,2.63,2.6572,2.8014,2.813,2.8014,2.8237,2.813,2.796,2.796,2.8186,2.7837,2.6578,2.5853,2.4916,2.3581,2.3471,2.2897,2.1601,2.1229,2.1109,2.1109,2.1109,2.1109,2.1109,2.1109,2.1109,2.1109,2.1109,2.1109,2.1109,2.1109,2.1109,2.1109,2.1109,2.0788,2.0167,2.0114,1.98,1.9424,1.9424,1.9424,1.9424,1.9424,1.9424,1.9424,1.9424,1.9424,1.9424,0.0,0.0,0.0,0.0,0.0,0.4248,0.5851,0.7559,0.879,0.9217,0.9579,0.9822,0.9822,0.9822,0.9822,0.9822,0.9822,0.9822,0.9822,0.9822,0.9822,0.9822,0.9822,0.9822,0.9822,0.9822,0.9822,0.9822,0.9822,0.9822,0.9822,0.9822,0.9822,0.9822,0.9822,0.9822,0.9822,0.9822,0.9822,0.9822,0.9822,1.0001,1.0365,1.0668,1.1924,1.366,1.5095,1.6514,1.787,1.901,1.9424,1.9424,1.9424,1.9424,1.9424,1.9424,1.9764,2.022,2.022,2.0737,2.1375,2.1539,2.2482,2.3368,0.0,2.4069,2.5232,2.63,2.5626,2.5617,2.7897,2.7413,2.7079,2.813,2.8291,2.8237,2.8237,2.8665,2.8943,2.8765,2.8479,2.7835,2.6609,2.546,2.4255,2.2952,2.179,2.1109,2.1109,2.1109,2.1109,2.1109,2.1109,2.1109,2.1109,2.1109,2.1109,2.1109,2.1109,2.1109,2.1109,2.1109,2.0788,2.014,1.9686,1.9491,1.9424,1.9424,1.9424,1.9424,1.9424,1.9424,1.9424,1.9424,1.9424,1.9424,0.0,0.0,0.0,0.0,0.0,0.4444,0.616,0.7808,0.8976,0.9278,0.9579,0.9822,0.9822,0.9822,0.9822,0.9822,0.9822,0.0,0.9822,0.9822,0.9822,0.9822,0.9822,0.9822,0.9822,0.9822,0.9822,0.9822,0.9822,0.9822,0.9822,0.9822,0.9822,0.9822,0.9822,0.9822,0.9822,0.9822,0.9822,0.9822,0.9822,1.0001,1.0365,1.0668,1.1329,1.229,1.3904,1.58,0.0,0.0,1.8765,1.9424,1.9424,1.9424,1.9424,1.9424,1.9707,2.0097,2.0443,2.0852,2.1211,2.1211,2.2093,2.2813,2.2093,2.2862,2.3855,2.4364,2.4078,2.4467,2.6799,2.6853,2.6907,2.8121,2.8291,2.8379,2.8623,2.9079,2.9443,2.9478,2.9632,2.9118,2.7469,2.6078,2.4671,2.3193,2.1846,2.1109,2.1109,2.1109,2.1109,2.1109,2.1109,2.1109,2.1109,2.1109,2.1109,2.1109,2.1109,2.1109,2.1109,2.1109,2.0788,2.0201,1.9619,1.9424,1.9424,1.9424,1.9424,1.9424,1.9424,1.9424,1.9424,1.9424,1.9424,1.9424,0.0,0.0,0.0,0.0,0.0,0.503,0.6721,0.7994,0.8915,0.9275,0.9518,0.97,0.9761,0.9822,0.9822,0.9822,0.9822,0.0,0.0,0.9822,0.9822,0.9822,0.9822,0.9822,0.9822,0.9822,0.9822,0.9822,0.9822,0.9822,0.9822,0.9822,0.9822,0.9822,0.9822,0.9822,0.9822,0.9822,0.9822,0.9822,0.9822,0.994,1.0183,1.0547,1.0789,1.1329,1.3426,1.5386,0.0,0.0,1.8648,1.9424,1.9424,1.9424,1.9424,1.9424,1.9649,2.004,2.0544,2.096,2.1211,2.1211,2.1873,2.2256,2.1375,2.1873,2.2595,2.2918,2.2757,2.3199,2.5571,2.6018,2.6409,2.7628,2.8067,2.8291,2.8257,2.9043,2.9463,2.9146,2.9949,2.9726,2.7718,2.6313,2.4848,2.3193,2.1846,2.1109,2.1109,2.1109,2.1109,2.1109,2.1109,2.1109,2.1109,2.1109,2.1109,2.1109,2.1109,2.1109,2.1102,2.0942,2.0635,2.0201,1.9619,1.9424,1.9424,1.9424,1.9424,1.9424,1.9424,1.9424,1.9424,1.9424,1.9424,1.9424,0.0,0.0,0.0,0.0,0.0,0.6552,0.8097,0.8369,0.8613,0.9217,0.9335,0.9457,0.9761,0.9822,0.9822,0.9822,0.9822,0.9822,0.9822,0.9822,0.9822,0.9822,0.9822,0.9822,0.9822,0.9822,0.9822,0.9822,0.9822,0.9822,0.9822,0.9822,0.9822,0.9822,0.9822,0.9822,0.9822,0.9822,0.9822,0.9822,0.9822,0.9822,0.9883,1.0183,1.0304,1.0785,1.4316,0.0,0.0,0.0,1.9366,1.9424,1.9424,1.9424,1.9424,1.9424,1.9822,2.0328,2.0608,2.096,2.1211,2.1211,2.1211,2.1268,2.1211,2.1211,2.1596,2.2757,2.2101,2.1979,2.4339,2.4727,2.5177,2.6354,2.752,2.7906,2.6763,2.8298,2.9056,2.7528,2.9478,2.9971,2.7718,2.6313,2.4848,2.3193,2.1846,2.1109,2.1109,2.1109,2.1109,2.1109,2.1109,2.1109,2.1109,2.1109,2.1109,2.1109,2.1109,2.1109,2.1089,2.0514,2.0193,2.0201,1.9619,1.9424,1.9424,1.9424,1.9424,1.9424,1.9424,1.9424,1.9424,1.9424,1.9424,1.9424,0.0,0.0,0.0,0.0,0.0,0.0,0.8157,0.8483,0.8854,0.9275,0.9518,0.0,0.0,0.0,0.0,0.0,0.9822,0.9822,0.9822,0.9822,0.9822,0.9822,0.9822,0.9822,0.9822,0.9822,0.9822,0.9822,0.9822,0.9822,0.9822,0.9822,0.9822,0.9822,0.9822,0.9822,0.9822,0.9822,0.9822,0.9822,0.9822,0.9822,0.9819,1.0183,1.0304,1.0604,0.0,0.0,0.0,0.0,1.8,1.9424,1.9424,1.9424,1.9424,1.9591,1.9815,2.0097,2.0551,2.078,2.0902,2.1146,2.1211,2.1211,2.1211,2.1211,2.1318,2.171,2.1489,2.171,2.3303,2.4181,2.5113,2.63,2.752,2.8003,2.7114,2.7725,2.782,2.6568,2.8305,2.8742,2.6685,2.6122,2.5077,2.3256,2.1846,2.1109,2.1109,2.1109,2.1109,2.1109,2.1109,2.1109,2.1109,2.1109,2.1109,2.1109,2.1109,2.1009,2.0808,2.0414,2.0127,1.992,1.9539,1.9424,1.9424,1.9424,1.9424,1.9424,1.9424,1.9424,1.9424,1.9424,1.9424,1.9424,0.0,0.0,0.0,0.0,0.0,0.0,0.0,0.0,0.0,0.0,0.0,0.0,0.0,0.0,0.0,0.0,0.0,0.9822,0.9822,0.0,0.9822,0.9822,0.9822,0.9822,0.9822,0.9822,0.9822,0.9822,0.9822,0.9822,0.9822,0.9822,0.9822,0.9822,0.9822,0.9822,0.9822,0.9822,0.9822,0.9822,0.9822,0.9822,0.9822,1.0061,1.0126,0.0,0.0,0.0,0.0,0.0,1.6991,1.8706,1.8706,1.901,1.9424,1.9591,1.97,1.9924,2.0436,2.0608,2.078,2.1146,2.1211,2.1211,2.1211,2.1211,2.1211,2.1211,2.1211,2.1432,2.2207,2.3303,2.4458,2.568,2.6509,2.6828,2.636,2.6578,2.6399,2.5258,2.6737,2.7193,2.5521,2.5208,2.4594,2.338,2.1908,2.1109,2.1109,2.1109,2.1109,2.1109,2.1109,2.1109,2.1109,2.1109,2.1109,2.1109,2.1002,2.0855,2.0661,2.0261,1.9973,1.9786,1.9492,1.9424,1.9424,1.9424,1.9424,1.9424,1.9424,1.9424,1.9424,1.9424,1.9424,1.9424,0.0,0.0,0.0,0.0,0.0,0.0,0.0,0.0,0.0,0.0,0.0,0.0,0.0,0.0,0.0,0.0,0.0,0.0,0.0,0.0,0.0,0.9822,0.9822,0.9822,0.9822,0.9822,0.9822,0.9822,0.9822,0.9822,0.9822,0.9822,0.9822,0.9822,0.9822,0.9822,0.9822,0.9822,0.9822,0.9822,0.9822,0.9822,0.9822,0.9822,0.0,0.0,0.0,0.0,0.0,1.4852,1.6397,1.7513,1.7513,1.835,1.9424,1.9424,1.9591,1.9873,2.0155,2.0493,2.078,2.1089,2.1211,2.1211,2.1211,2.1211,2.1211,2.1211,2.1211,2.1211,2.1211,2.2207,2.3359,2.445,2.4671,2.4671,2.4616,2.5022,2.4843,2.3646,2.4919,2.5381,2.4163,2.376,2.3574,2.3512,2.2034,2.1109,2.1109,2.1109,2.1109,2.1109,2.1109,2.1109,2.1109,2.1109,2.1109,2.1109,2.0815,2.0668,2.0635,2.006,1.9793,1.9766,1.9486,1.9424,1.9424,1.9424,1.9424,1.9424,1.9424,1.9424,1.9424,1.9424,1.9424,1.9424,0.0,0.0,0.0,0.0,0.0,0.0,0.0,0.0,0.0,0.0,0.0,0.0,0.0,0.0,0.0,0.0,0.0,0.0,0.0,0.0,0.0,0.0,0.0,0.0,0.0,0.0,0.0,0.0,0.0,0.9822,0.9822,0.9822,0.9822,0.9822,0.9822,0.9822,0.9822,0.9822,0.9822,0.9822,0.0,0.9822,0.9822,0.0,0.0,0.0,0.0,0.0,1.1567,1.3241,1.544,1.7513,1.7513,1.835,1.9424,1.9424,1.9424,1.9533,1.9873,2.0155,2.05,2.078,2.1024,2.1211,2.1211,2.1211,2.1211,2.1211,2.1211,2.1211,2.1211,2.2207,2.3087,2.3359,2.4125,2.4394,2.3528,2.3731,2.3518,2.2342,2.3607,2.419,2.3069,2.3581,2.3581,2.2536,2.1607,2.1109,2.1109,2.1109,2.1109,2.1109,2.1109,2.1109,2.1109,2.1109,2.1109,2.1109,2.0815,2.0561,2.0334,1.9967,1.9679,1.9472,1.9457,1.9424,1.9424,1.9424,1.9424,1.9424,1.9424,1.9424,1.9424,1.9424,1.9424,1.9424,0.0,0.0,0.0,0.0,0.0,0.0,0.0,0.0,0.0,0.0,0.0,0.0,0.0,0.0,0.0,0.0,0.0,0.0,0.0,0.0,0.0,0.0,0.0,0.0,0.0,0.0,0.0,0.0,0.0,0.0,0.0,0.9822,0.9822,0.9822,0.9822,0.9822,0.9822,0.9822,0.0,0.0,0.0,0.0,0.0,0.0,0.0,0.0,0.0,0.0,1.0967,1.1989,1.4312,1.6744,1.7337,1.835,1.9424,1.9424,1.9424,1.9482,1.97,1.9931,2.0155,2.0436,2.073,2.0967,2.0967,2.1089,2.1211,2.1211,2.1211,2.1211,2.1211,2.1759,2.2369,2.2918,2.3087,2.3135,2.303,2.271,2.2274,2.1735,2.2512,2.2953,2.2617,2.2948,2.2966,2.2355,2.167,2.1235,2.1109,2.1109,2.1109,2.1109,2.1109,2.1109,2.1109,2.1109,2.1042,2.0915,2.0621,2.0327,2.0034,1.974,1.9519,1.9424,1.9424,1.9424,1.9424,1.9424,1.9424,1.9424,1.9424,1.9424,1.9424,1.9424,1.9424,1.9424,0.0,0.0,0.0,0.0,0.0,0.0,0.0,0.0,0.0,0.0,0.9985,0.9842,0.0,0.0,0.0,0.0,0.0,0.0,0.0,0.0,0.0,0.0,0.0,0.0,0.0,0.0,0.0,0.0,0.0,0.0,0.0,0.0,0.0,0.0,0.0,0.0,0.0,0.0,0.0,0.0,0.0,0.0,0.0,0.0,0.0,0.0,0.0,0.0,1.1031,1.1212,1.3246,1.5806,1.6926,1.8233,1.9424,1.9424,1.9307,1.9243,1.9642,1.9642,1.9635,2.0097,2.0443,2.0658,2.0716,2.0902,2.1146,2.1211,2.1211,2.1211,2.1211,2.1211,2.1539,2.2587,2.1873,2.1546,2.2587,2.1873,2.1328,2.1657,2.1631,2.1867,2.2525,2.2322,2.225,2.2543,2.2048,2.1544,2.1172,2.1109,2.1109,2.1109,2.1109,2.1109,2.1109,2.1069,2.0922,2.0675,2.0334,2.0047,1.9786,1.9499,1.9424,1.9424,1.9424,1.9424,1.9424,1.9424,1.9424,1.9424,1.9424,1.9424,1.9424,1.9424,1.9424,1.9424,0.0,0.0,0.0,0.0,0.0,0.0,0.0,0.0,0.0,0.0,1.0761,0.9899,0.0,0.0,0.0,0.0,0.0,0.0,0.0,0.0,0.0,0.0,0.0,0.0,0.0,0.0,0.0,0.9822,0.9822,0.0,0.0,0.0,0.0,0.0,0.0,0.0,0.0,0.0,0.0,0.0,0.0,0.0,0.0,0.0,0.0,0.0,0.0,0.0,0.0,0.0,1.3246,1.5634,1.5865,1.7525,1.9424,1.9424,1.8648,1.8052,1.9185,1.8868,1.85,1.9628,2.0155,2.0443,2.0666,2.0716,2.0845,2.1146,2.1211,2.1211,2.1211,2.1211,2.1268,2.1489,2.1318,2.1261,2.1489,2.1318,2.1328,2.1657,2.1451,2.1637,2.2503,2.2306,2.2265,2.2591,2.2237,2.1859,2.1544,2.1235,2.1109,2.1109,2.1109,2.1109,2.1109,2.0869,2.0728,2.0668,2.0134,1.9853,1.9786,1.9499,1.9424,1.9424,1.9424,1.9424,1.9424,1.9424,1.9424,1.9424,1.9424,1.9424,1.9424,1.9424,1.9424,1.9424,0.0,0.0,0.0,0.0,0.0,0.0,0.0,1.0999,1.1911,1.2438,1.2467,1.2311,1.2094,1.1394,1.0875,0.0,0.0,0.0,0.0,0.0,0.0,0.0,0.0,0.0,0.0,0.9822,0.9822,0.9822,0.0,0.9822,0.9822,0.9822,0.9822,0.9822,0.9822,0.9822,0.0,0.0,0.0,0.0,0.0,0.0,0.0,0.0,0.0,0.0,0.0,0.0,0.0,0.0,1.3066,1.4495,1.5332,1.6868,1.8532,1.9185,1.8525,1.7753,1.9068,1.8583,1.7975,1.9294,1.9815,2.004,2.0206,2.0493,2.078,2.0902,2.1089,2.1211,2.1211,2.1211,2.1211,2.1211,2.1211,2.1211,2.1211,2.1211,2.1269,2.1423,2.1474,2.1706,2.2345,2.2345,2.2508,2.2834,2.2543,2.2174,2.1607,2.1299,2.1109,2.1109,2.1109,2.1036,2.0882,2.0742,2.0521,2.0214,1.9933,1.972,1.9573,1.9432,1.9424,1.9424,1.9424,1.9424,1.9424,1.9424,1.9424,1.9424,1.9424,1.9424,1.9424,1.9424,1.9424,1.9424,0.0,0.0,0.0,0.0,0.0,0.0,1.0259,1.1703,1.2894,1.3074,1.4079,1.4837,1.5073,1.3569,1.2426,0.0,0.0,0.0,0.0,0.0,0.0,0.0,0.0,0.0,0.0,0.0,0.0,0.9822,0.9822,0.0,0.0,0.0,0.0,0.0,0.9822,0.9822,0.9822,0.9822,0.0,0.0,0.0,0.9822,0.0,0.0,0.0,0.0,0.0,1.2053,1.2535,1.2599,1.259,1.2882,1.4555,1.6214,1.7695,1.8706,1.8286,1.7753,1.9068,1.8467,1.7812,1.9068,1.9533,1.97,1.9815,2.0155,2.0551,2.0608,2.0845,2.1089,2.1089,2.1146,2.1211,2.1211,2.1211,2.1211,2.1211,2.1211,2.1211,2.1211,2.1437,2.1723,2.2045,2.2352,2.2659,2.2981,2.2757,2.2299,2.1607,2.1299,2.1109,2.1109,2.1049,2.0909,2.0681,2.0555,2.0254,1.98,1.974,1.9586,1.9424,1.9424,1.9424,1.9424,1.9424,1.9424,1.9424,1.9424,1.9424,1.9424,1.9424,1.9424,1.9424,1.9424,1.9424,1.9424,0.0,0.0,0.0,0.0,0.0,0.0,1.0588,1.1901,1.3267,1.4493,1.4814,1.5763,1.8005,1.5872,1.4166,0.0,0.0,0.0,0.0,0.0,0.0,0.0,0.0,0.0,0.0,0.0,0.0,0.9822,0.9822,0.0,0.0,0.0,0.0,0.0,0.0,0.9822,0.9822,0.9822,0.0,0.0,0.0,0.0,0.0,0.0,0.0,0.0,0.0,1.253,1.3426,1.2535,1.1511,1.0902,1.2822,1.5316,1.7513,1.763,1.7572,1.7753,1.9068,1.8467,1.7812,1.9068,1.9424,1.9482,1.9758,1.9815,1.9982,2.027,2.0551,2.078,2.078,2.0967,2.1211,2.1211,2.1211,2.1211,2.1211,2.1211,2.1211,2.1211,2.124,2.1386,2.1708,2.203,2.2345,2.2645,2.2635,2.2299,2.1607,2.1299,2.1109,2.1109,2.0855,2.0702,2.0675,2.0147,1.9853,1.98,1.9533,1.9392,1.9424,1.9424,1.9424,1.9424,1.9424,1.9424,1.9424,1.9424,1.9424,1.9424,1.9424,1.9424,1.9424,1.9424,1.9424,1.9424,0.0,0.0,0.0,0.0,0.0,0.0,1.1769,1.3144,1.4577,1.6009,1.692,1.7801,1.88,1.792,1.6801,1.5607,1.6061,0.0,0.0,0.0,0.0,0.0,0.0,0.0,0.0,0.0,0.9822,0.9822,0.9822,0.0,0.0,0.0,0.0,0.0,0.0,0.9822,0.9822,0.9822,0.0,0.0,0.0,0.0,0.0,0.0,0.0,0.0,0.0,0.0,1.4679,1.3665,1.253,1.1511,1.1929,1.3356,1.5257,1.6979,1.6985,1.6815,1.8829,1.8467,1.7812,1.9068,1.9424,1.9424,1.9533,1.9707,1.9815,1.9982,2.0378,2.0716,2.0716,2.0967,2.1211,2.1211,2.1211,2.1211,2.1211,2.1211,2.1211,2.1211,2.1211,2.1342,2.1664,2.1818,2.2089,2.2586,2.2432,2.2141,2.1652,2.1512,2.1211,2.0855,2.0735,2.0508,2.0154,1.992,1.9713,1.9539,1.9419,1.9424,1.9424,1.9424,1.9424,1.9424,1.9424,1.9424,1.9424,1.9424,1.9424,1.9424,1.9424,1.9424,1.9424,1.9424,1.9424,1.9424,0.0,0.0,0.0,0.0,0.0,1.0916,1.2557,1.3997,1.5429,1.6845,1.8221,1.9078,1.9078,1.9078,1.8597,1.7332,1.7766,0.0,0.0,0.0,0.0,0.0,0.0,0.0,0.0,0.0,0.9822,0.9822,0.9822,0.9822,0.0,0.0,0.9822,0.9822,0.0,0.0,0.0,0.0,0.0,0.0,0.0,0.0,0.0,0.0,0.0,0.0,0.0,0.0,0.0,0.0,0.0,1.2053,1.2109,0.0,0.0,1.573,1.6273,1.6573,1.835,1.8467,1.8292,1.9185,1.9424,1.9424,1.9424,1.954,1.9707,1.9707,2.0097,2.0436,2.0551,2.0845,2.1089,2.1211,2.1211,2.1211,2.1211,2.1211,2.1211,2.1211,2.1211,2.1298,2.1533,2.1642,2.192,2.2454,2.2248,2.2004,2.1699,2.1657,2.1307,2.0555,2.0461,2.0221,1.9806,1.9713,1.9625,1.954,1.9424,1.9424,1.954,1.9424,1.9424,1.9424,1.9424,1.9424,1.9424,1.9424,1.9424,1.9424,1.9424,1.9424,1.9424,1.9424,1.9424,1.9424,0.0,0.0,0.0,0.0,0.0,1.1181,1.2553,1.3997,1.5429,1.6845,1.8221,1.9078,1.9078,1.9078,1.9072,1.9066,1.8825,0.0,0.0,0.0,0.0,0.0,0.0,0.0,0.0,0.0,0.9822,0.9822,0.9822,0.9822,0.9822,0.9822,0.9822,0.9822,0.0,0.0,0.0,0.0,0.9822,0.9822,0.0,0.0,0.0,0.0,0.0,0.0,0.0,0.0,0.0,0.0,0.0,0.0,0.0,1.3421,1.2817,0.0,1.5499,1.7513,1.7513,1.8409,1.9366,1.9424,1.9424,1.9424,1.9424,1.9424,1.9424,1.9424,1.9649,1.9931,2.0213,2.0493,2.078,2.1146,2.1211,2.1211,2.1211,2.1211,2.1211,2.1211,2.1211,2.1211,2.1211,2.1503,2.1832,2.2162,2.2184,2.2057,2.1735,2.1675,2.1261,2.0234,1.996,1.9806,1.98,1.9512,1.954,1.9815,1.954,1.9533,1.9815,1.954,1.9424,1.9424,1.9424,1.9424,1.9424,1.9424,1.9424,1.9424,1.9424,1.9424,1.9424,1.9424,1.9424,1.9424,0.0,0.0,0.0,0.0,0.0,0.0,1.3993,1.5424,1.685,1.8221,1.8816,1.9078,1.9078,1.9078,1.9078,1.9078,1.8837,0.0,0.0,0.0,0.0,0.0,0.0,0.0,0.0,0.9822,0.9822,0.9822,0.9822,0.9822,0.9822,0.9822,0.9822,0.9822,0.9822,0.9822,0.0,0.9822,0.9822,0.9822,0.0,0.0,1.1812,0.0,0.0,0.0,0.0,0.0,0.0,0.0,0.0,0.0,0.0,0.0,0.0,1.455,1.6031,1.7689,1.8583,1.9068,1.9424,1.9424,1.9424,1.9424,1.9424,1.9424,1.9424,1.9424,1.9591,1.9931,2.0213,2.0493,2.078,2.1146,2.1211,2.1211,2.1211,2.1211,2.1211,2.1211,2.1211,2.1211,2.1211,2.1306,2.1496,2.1825,2.1854,2.1722,2.1405,2.1346,2.0991,2.0291,2.0203,1.9935,1.9506,1.9638,1.97,1.9815,1.97,1.97,1.9815,1.954,1.9424,1.9424,1.9424,1.9424,1.9424,1.9424,1.9424,1.9424,1.9424,1.9424,1.9424,1.9424,1.9424,1.9424,0.0,0.0,0.0,0.0,0.0,0.0,1.4712,1.6073,1.7501,1.8944,1.9078,1.9078,1.9078,1.9078,1.9078,1.9078,1.8927,0.0,0.0,0.0,0.0,0.0,0.0,0.0,0.9822,0.9822,0.9822,0.9822,0.9822,0.9822,0.9822,0.9822,0.9822,0.9822,0.9822,0.9822,0.0,0.9822,0.9822,0.9822,0.0,0.0,1.2586,0.0,0.0,0.0,0.0,0.0,0.0,0.0,0.0,0.0,0.0,0.0,0.0,0.0,1.722,1.8286,1.859,1.901,1.9424,1.9424,1.9424,1.9424,1.9424,1.9424,1.9424,1.9533,1.9707,1.9924,2.0385,2.0608,2.078,2.1146,2.1211,2.1211,2.1211,2.1211,2.1211,2.1211,2.1211,2.1211,2.1211,2.1211,2.1298,2.1496,2.1511,2.1394,2.1205,2.1198,2.0965,2.044,2.033,2.0065,1.954,1.97,1.9866,1.9989,1.9873,1.9873,1.9989,1.9707,1.9482,1.9424,1.9424,1.9424,0.0,1.9424,1.9424,1.9424,1.9424,1.9424,1.9424,1.9424,1.9424,1.9424,0.0,0.0,0.0,0.0,0.0,0.0,0.0,1.6268,1.763,1.8944,1.9078,1.9078,1.9078,1.9078,1.9078,1.9078,1.9078,0.0,0.0,0.0,0.0,0.0,0.0,0.0,0.9825,0.9822,0.9822,0.9822,0.9822,0.9822,0.9822,0.9822,0.9822,0.9822,0.9822,0.9822,0.9822,0.9822,0.9883,1.0061,1.1209,1.2586,0.0,0.0,0.0,0.0,0.0,0.0,0.0,0.0,0.0,0.0,0.0,0.0,0.0,0.0,0.0,0.0,0.0,1.8525,1.9424,1.9424,1.9424,1.9424,1.9424,1.9424,0.0,1.97,1.9815,1.9982,2.0544,2.0658,2.078,2.1146,2.1211,2.1211,2.1211,2.1211,2.1211,2.1211,2.1211,2.1211,2.1211,2.1211,2.1211,2.1211,2.1211,2.1211,2.1211,2.1211,2.1089,2.078,2.0493,2.0155,1.9815,1.9815,1.9982,2.027,1.9989,1.9989,2.0328,1.9982,1.9649,1.9424,1.9424,1.9424,1.9424,1.9424,1.9424,1.9424,1.9424,1.9424,1.9424,1.9424,1.9424,1.9424,0.0,0.0,0.0,0.0,0.0,0.0,0.0,0.0,0.0,0.0,1.9078,1.9078,1.9078,1.9078,1.9078,0.0,0.0,0.0,0.0,0.0,0.0,0.0,0.0,0.0,0.9822,0.9822,0.9822,0.9822,0.9822,0.9822,0.9822,0.9822,0.9822,0.9822,0.9822,0.9822,0.9822,0.9822,1.0365,1.1269,1.1571,1.3066,0.0,0.0,0.0,0.0,1.7485,1.7485,0.0,0.0,0.0,0.0,0.0,0.0,0.0,0.0,1.8706,1.8997,1.8946,0.0,1.9424,1.9424,1.9424,1.9424,0.0,1.9424,1.9424,0.0,1.9649,1.9931,2.0328,2.0551,2.078,2.1146,2.1211,2.1211,2.1211,2.1211,2.1211,2.1211,2.1211,2.1211,2.1211,2.1211,2.1211,2.1211,2.1211,2.1211,2.1211,2.1211,2.1153,2.1089,2.1031,2.063,1.9815,2.004,2.0213,2.027,2.0213,2.0328,2.0608,2.004,1.9758,1.97,1.9482,1.9424,1.9424,1.9424,1.9424,1.9424,1.9424,1.9424,1.9424,1.9424,1.9424,1.9424,0.0,0.0,0.0,0.0,0.0,0.0,0.0,0.0,0.0,0.0,1.9078,1.9078,1.9078,1.9078,1.9078,0.0,0.0,0.0,0.0,0.0,0.0,0.0,0.0,1.2423,1.0901,1.0705,1.0365,0.9822,0.9822,0.9822,0.9822,0.9822,0.9822,0.9822,0.9822,0.9822,0.9819,1.0425,1.1088,1.1812,1.3006,0.0,0.0,0.0,0.0,0.0,1.7485,1.7485,0.0,1.7485,1.7485,1.7485,0.0,0.0,0.0,0.0,1.8648,1.8997,1.9307,1.9424,1.9424,1.9424,1.9424,1.9424,1.9424,0.0,0.0,0.0,1.9503,1.9683,1.9878,2.0246,2.0565,2.075,2.0994,2.1211,2.1211,2.1211,2.1211,2.1211,2.1211,2.1211,2.1211,2.1211,2.1211,2.1211,2.1211,2.1211,2.1211,2.1211,2.1211,2.1211,2.1211,2.0859,2.0206,2.0378,2.0493,2.0493,2.0493,2.0551,2.0716,2.0378,2.004,1.9815,1.9649,1.9591,1.9591,1.9591,1.9591,1.9591,1.9591,1.954,1.9424,1.9424,1.9424,1.9424,0.0,0.0,0.0,0.0,0.0,0.0,0.0,0.0,0.0,0.0,0.0,0.0,0.0,0.0,0.0,0.0,0.0,0.0,0.0,0.0,0.0,0.0,1.5548,1.3936,1.2447,1.1963,1.1148,1.0061,0.9879,0.9822,0.9822,0.9822,0.9822,0.9822,0.9822,0.9883,1.0183,1.1269,1.1929,1.247,1.4738,0.0,0.0,0.0,0.0,0.0,0.0,0.0,0.0,1.7485,1.7485,1.7485,1.7485,0.0,0.0,0.0,0.0,0.0,1.9176,1.9265,1.9245,1.9292,1.9299,1.9285,1.9245,0.0,0.0,0.0,1.9302,1.9346,1.941,1.9856,2.0265,2.0378,2.085,2.1211,2.1211,2.1211,2.1211,2.1211,2.1211,2.1211,2.1211,2.1211,2.1211,2.1211,2.1211,2.1211,2.1211,2.1211,2.1211,2.1211,2.1211,2.1089,2.078,2.0716,2.0716,2.0716,2.0716,2.0716,2.078,2.0723,2.0378,1.9873,1.9815,0.0,1.9815,1.9815,1.9815,1.9815,1.9815,1.9649,1.9424,1.9424,1.9424,1.9424,0.0,0.0,0.0,0.0,0.0,0.0,0.0,0.0,0.0,0.0,0.0,0.0,0.0,0.0,0.0,0.0,0.0,0.0,0.0,0.0,0.0,1.8756,1.7013,1.5355,1.3854,1.2444,1.1571,1.139,1.0304,0.9822,0.9822,0.9822,0.9822,0.9822,0.9822,1.0425,1.139,1.1631,1.3006,1.5035,1.5451,0.0,0.0,0.0,0.0,0.0,0.0,0.0,0.0,1.7485,1.7485,1.7485,1.7485,0.0,0.0,0.0,0.0,0.0,1.8459,1.8572,1.8684,1.8931,1.8991,1.8931,1.8677,1.8624,0.0,0.0,1.8828,1.9049,1.9374,1.9668,2.0062,2.0544,2.0931,2.1211,2.1211,2.1211,2.1211,2.1211,2.1211,2.1211,2.1211,2.1211,2.1211,2.1211,2.1211,2.1211,2.1211,2.1211,2.1211,2.1211,2.1211,2.1211,2.1146,2.0838,2.0716,2.0716,2.0716,2.0845,2.1089,2.0838,2.0551,2.022,0.0,1.9815,1.9815,1.9815,1.9815,1.9815,1.9815,1.9649,1.9424,1.9424,1.9424,1.9424,0.0,0.0,0.0,0.0,0.0,0.0,0.0,0.0,0.0,0.0,0.0,0.0,0.0,0.0,0.0,0.0,0.0,0.0,0.0,0.0,1.9012,1.8873,1.7921,1.6786,1.5371,1.4304,1.3485,1.2771,1.1446,1.0846,1.0785,1.0122,1.0183,1.0846,1.0846,1.1567,1.2831,1.3545,1.4495,1.5628,0.0,0.0,0.0,0.0,0.0,0.0,0.0,0.0,0.0,0.0,1.7485,1.7485,1.7485,0.0,0.0,0.0,0.0,0.0,1.8212,1.8361,1.8484,1.8457,1.8571,1.8651,1.8517,1.849,1.8444,1.8283,1.8487,1.8698,1.8671,1.9145,1.9857,2.0551,2.0838,2.0967,2.1153,2.1211,2.1211,2.1211,2.1211,2.1211,2.1211,2.1211,2.1211,2.1211,2.1211,2.1211,2.1211,2.1211,2.1211,2.1211,2.1211,2.1211,2.1211,2.1024,2.0967,2.0967,2.0967,2.1024,2.1211,2.1024,2.0788,2.0493,0.0,2.0155,2.0263,2.0155,2.004,2.004,2.004,1.9873,1.9649,1.9649,1.9649,1.9591,0.0,0.0,0.0,0.0,0.0,0.0,0.0,0.0,0.0,0.0,0.0,0.0,0.0,0.0,0.0,0.0,0.0,0.0,0.0,1.9018,1.8891,1.8692,1.8366,1.7751,1.6747,1.5965,1.5095,1.4143,1.2826,1.1989,1.1692,1.1027,1.1088,1.1692,1.2053,1.2886,1.4202,1.5213,1.5752,1.6107,0.0,0.0,0.0,0.0,0.0,0.0,0.0,0.0,0.0,0.0,0.0,0.0,0.0,0.0,0.0,1.7492,1.7629,1.7823,1.7828,1.8049,1.8223,1.7996,1.8163,1.837,1.8297,1.8277,1.8237,1.8022,1.8175,1.8364,1.8215,1.8894,1.972,2.04,2.0601,2.078,2.1024,2.1146,2.1211,2.1211,2.1211,2.1211,2.1211,2.1211,2.1211,2.1211,2.1211,2.1211,2.1211,2.1211,2.1211,2.1211,2.1211,2.1211,2.1211,2.1211,2.1211,2.1211,2.1211,2.1211,2.1211,2.1211,2.1024,2.0658,2.0443,2.0436,2.0658,2.0378,2.027,2.027,2.027,2.0097,1.9815,1.97,1.9758,1.9758,0.0,0.0,0.0,0.0,0.0,0.0,0.0,0.0,0.0,0.0,0.0,0.0,0.0,0.0,0.0,0.0,0.0,0.0,0.0,1.8849,1.8704,1.8686,1.8179,1.7901,1.7775,1.636,1.5575,1.5456,1.4202,1.2951,1.1752,1.2886,1.2826,1.1752,1.3006,1.4262,1.5451,1.5575,1.629,1.7361,1.7479,0.0,0.0,0.0,0.0,0.0,0.0,0.0,0.0,0.0,0.0,0.0,0.0,0.0,1.7117,1.7156,1.7135,1.7178,1.7152,1.7434,1.7642,1.7622,1.7849,1.7949,1.7709,1.7649,1.7722,1.7935,1.8009,1.8182,1.8764,1.9341,1.9788,1.9866,2.0321,2.0716,2.0716,2.1024,2.1211,2.1211,2.1211,2.1211,2.1211,2.1211,2.1211,2.1211,2.1211,2.1211,2.1211,2.1211,2.1211,2.1211,2.1211,2.1211,2.1211,2.1211,2.1211,2.1211,2.1211,2.1211,2.1211,2.1211,2.1024,2.0658,2.0443,2.0436,2.0658,2.0378,2.027,2.027,2.027,2.0097,1.9758,1.954,1.9591,1.9758,0.0,0.0,0.0,0.0,0.0,0.0,0.0,0.0,0.0,0.0,0.0,1.9078,1.9078,0.0,0.0,0.0,0.0,0.0,0.0,1.8831,1.8613,1.845,1.8076,1.7799,1.763,1.7056,1.6767,1.6767,1.551,1.4202,1.2951,1.3485,1.3844,1.4138,1.4679,1.5569,1.6767,1.6767,1.7067,1.7485,1.7485,1.7485,0.0,0.0,0.0,0.0,0.0,0.0,0.0,0.0,1.7485,1.7455,1.7292,1.7171,1.7026,1.6688,1.6839,1.7076,1.6892,1.7244,1.7582,1.7582,1.7669,1.7729,1.7609,1.7582,1.7669,1.7929,1.8196,1.8504,1.9092,1.9401,1.9591,1.9758,2.0155,2.0493,2.0658,2.0967,2.1211,2.1211,2.1211,2.1211,2.1211,2.1211,2.1211,2.1211,2.1211,2.1211,2.1211,2.1211,2.1211,2.1211,2.1211,2.1211,2.1211,2.1211,2.1211,2.1211,2.1211,2.1211,2.1211,2.1211,2.1146,2.0967,2.0673,2.0608,2.0716,2.0601,2.0436,2.0328,2.0493,2.0385,2.0097,1.9989,2.0046,2.0046,0.0,0.0,0.0,0.0,0.0,0.0,0.0,0.0,1.9078,0.0,0.0,0.0,0.0,1.9078,0.0,0.0,0.0,0.0,1.8957,1.871,1.8438,1.8173,1.7895,1.7666,1.7485,1.7485,1.7485,1.7485,1.6644,1.5569,1.4321,1.4738,1.5154,1.5634,1.6048,1.6703,1.7485,1.7485,1.7485,1.7485,1.7485,1.7485,0.0,0.0,0.0,0.0,0.0,0.0,0.0,0.0,1.7424,1.7328,1.7147,1.6978,1.6773,1.6392,1.6604,1.6937,1.6734,1.7153,1.7582,1.7582,1.7582,1.7582,1.7582,1.7655,1.7816,1.8123,1.8497,1.8891,1.9292,1.9424,1.9482,1.9649,1.9931,2.0213,2.0378,2.0788,2.1024,2.1024,2.1146,2.1211,2.1211,2.1211,2.1211,2.1211,2.1211,2.1211,2.1211,2.1211,2.1211,2.1211,2.1211,2.1211,2.1211,2.1211,2.1211,2.1211,2.1211,2.1375,2.1767,2.1375,2.1432,2.1702,2.101,2.078,2.0845,2.0716,2.0551,2.0328,2.0385,2.0385,2.0277,2.0155,2.022,2.0213,0.0,0.0,0.0,0.0,0.0,0.0,0.0,0.0,1.9078,1.9078,1.9078,0.0,0.0,0.0,0.0,0.0,0.0,0.0,1.8704,1.8438,1.8167,1.7883,1.7624,1.7485,1.7485,1.7485,1.7485,1.7485,1.7485,1.6826,1.5634,1.6885,1.6826,1.5693,1.6944,1.7485,1.7485,1.7485,1.7485,1.7485,1.7485,1.7485,1.7485,0.0,0.0,0.0,0.0,0.0,0.0,0.0,1.7304,1.7092,1.7086,1.6724,1.6302,1.6284,1.6468,1.6677,1.6677,1.7153,1.7582,1.7582,1.7582,1.7582,1.7582,1.7822,1.8075,1.843,1.8965,1.9424,1.9424,1.9424,1.9424,1.9424,1.9649,1.9815,1.9815,2.0321,2.0716,2.0716,2.1024,2.1211,2.1211,2.1211,2.1211,2.1211,2.1211,2.1211,2.1211,2.1211,2.1211,2.1211,2.1211,2.1211,2.1211,2.1211,2.1211,2.1211,2.1211,2.1816,2.2982,2.1759,2.1873,2.2918,2.1395,2.0902,2.1153,2.0838,2.0551,2.027,1.9924,1.9989,2.027,1.9931,2.004,2.027,0.0,0.0,0.0,0.0,0.0,0.0,0.0,0.0,1.9078,1.9078,1.9078,0.0,0.0,0.0,0.0,0.0,0.0,0.0,1.8692,1.8251,1.7962,1.7877,1.7624,1.7485,1.7485,1.7485,1.7485,1.7485,1.7485,1.7303,1.6944,1.7303,1.7303,1.6944,1.7303,1.7485,1.7485,1.7485,1.7485,1.7485,1.7485,1.7485,1.7485,0.0,0.0,0.0,0.0,0.0,0.0,0.0,0.0,0.0,1.6658,1.6423,1.6247,1.606,1.6219,1.6477,1.663,1.7001,1.7384,1.7529,1.7582,1.7582,1.7582,1.7822,1.8135,1.8691,1.9098,1.9424,1.9424,1.9424,1.9424,1.9424,1.9649,1.9815,1.9815,2.0321,2.0716,2.0716,2.1024,2.1211,2.1211,2.1211,2.1211,2.1211,2.1211,2.1211,2.1211,2.1211,2.1211,2.1211,2.1211,2.1211,2.1211,2.1211,2.1211,2.1211,2.2036,2.2644,2.2982,2.1759,2.1873,2.2918,2.1645,2.0967,2.0838,2.0716,2.0551,2.0328,2.0687,2.0565,2.0328,2.0378,2.0378,2.027,0.0,0.0,0.0,0.0,0.0,0.0,1.9078,1.9078,1.9078,1.9078,1.9078,1.9078,0.0,0.0,0.0,1.8927,1.8776,0.0,1.8378,1.8058,1.7829,1.7726,1.7569,1.7485,1.7485,1.7485,1.7485,1.7485,1.7485,1.7485,1.7485,1.7485,1.7485,1.7485,1.7485,1.7485,1.7485,1.7661,1.7726,1.7726,1.7837,1.7778,1.7726,0.0,0.0,0.0,0.0,0.0,0.0,0.0,0.0,0.0,1.6398,1.6217,1.6151,1.61,1.6264,1.653,1.6849,1.7113,1.7378,1.7582,1.7582,1.7642,1.7889,1.809,1.839,1.8978,1.9239,1.9424,1.9424,1.9424,1.9424,1.9424,1.9533,1.9649,1.9649,2.0155,2.0551,2.0551,2.091,2.1211,2.1211,2.1211,2.1211,2.1211,2.1211,2.1211,2.1211,2.1211,2.1211,2.1211,2.1211,2.1211,2.1211,2.1211,2.1211,2.1211,2.2425,2.3247,2.3631,2.2425,2.2531,2.3575,2.1923,2.1089,2.0902,2.0902,2.0673,2.0328,2.0795,2.0737,2.0328,2.0608,2.0608,2.0378,0.0,0.0,1.9078,1.9078,0.0,0.0,1.9078,1.9078,1.9078,1.9078,1.9078,1.9066,0.0,0.0,0.0,1.8674,1.8625,1.8402,0.0,1.7853,1.7732,1.7491,1.7485,1.7485,1.7485,1.7485,1.7485,1.7485,1.7485,1.7485,1.7485,1.7485,1.7543,1.7543,1.7485,1.7543,1.7602,1.7908,1.8025,1.8083,1.8305,1.8252,1.8025,1.8025,0.0,0.0,0.0,0.0,0.0,0.0,0.0,0.0,1.6308,1.6085,1.5945,1.6164,1.6477,1.6736,1.7067,1.7325,1.7582,1.7582,1.7582,1.7742,1.835,1.849,1.8657,1.9303,1.9424,1.9424,1.9424,1.9424,1.9424,1.9424,1.9424,1.9424,1.9424,1.9873,2.027,2.027,2.0802,2.1146,2.1146,2.1211,2.1211,2.1211,2.1211,2.1211,2.1211,2.1211,2.1211,2.1211,2.1211,2.1211,2.1211,2.1211,2.1211,2.1211,2.2539,2.3687,2.4671,2.3519,2.3528,2.4283,2.2256,2.1318,2.1211,2.1211,2.0859,2.0385,2.0666,2.0551,2.0385,2.0666,2.0716,2.0666,0.0,0.0,1.9078,1.9078,0.0,0.0,1.9078,1.9078,1.9078,1.9078,1.9078,1.9,1.8794,1.877,0.0,1.8402,1.8173,1.7998,1.7883,1.7678,1.7539,1.7485,1.7485,1.7485,1.7485,1.7485,1.7485,1.7485,1.7485,1.7485,1.7485,1.7485,1.7661,1.7908,1.7608,1.7772,1.8188,1.8083,1.8142,1.8305,1.8363,1.8363,1.8305,1.8305,1.8135,0.0,0.0,0.0,0.0,0.0,0.0,0.0,1.6096,1.5934,1.5891,1.5945,1.6158,1.6424,1.6736,1.706,1.7331,1.7536,1.7582,1.7742,1.835,1.849,1.8657,1.9303,1.9424,1.9424,1.9424,1.9424,1.9424,1.9424,1.9424,1.9424,1.9424,1.9707,1.9931,1.9931,2.0443,2.078,2.078,2.1024,2.1211,2.1211,2.1211,2.1211,2.1211,2.1211,2.1211,2.1211,2.1211,2.1211,2.1211,2.1211,2.1211,2.1211,2.3359,2.445,2.4671,2.3519,2.2652,2.1979,2.2425,2.2093,2.1211,2.1211,2.0967,2.0666,2.0967,2.0902,2.0666,2.0967,2.0902,2.0716,0.0,0.0,0.0,0.0,0.0,0.0,0.0,0.0,1.9078,1.9078,1.8963,1.8837,1.8704,1.8571,0.0,0.0,1.7956,1.7823,1.7696,1.7557,1.7485,1.7485,1.7485,1.7485,1.7485,1.7485,1.7485,1.7485,1.7485,1.7485,1.7485,1.7485,1.7602,1.7784,1.7726,1.7901,1.8194,1.8369,1.8538,1.8648,1.8829,1.8771,1.8648,1.8648,1.8397,1.7999,1.7826,0.0,0.0,0.0,0.0,0.0,0.0,0.0,1.5945,1.6051,1.6264,1.6583,1.6849,1.7166,1.743,1.7582,1.7582,1.7702,1.817,1.8384,1.8617,1.9065,1.9265,1.9424,1.9424,1.9424,1.9424,1.9424,1.9424,1.9424,1.9424,1.9649,1.9815,1.9815,2.0321,2.0716,2.0716,2.1024,2.1211,2.1211,2.1211,2.1211,2.1211,2.1211,2.1211,2.1211,2.1211,2.1211,2.1211,2.1057,2.0976,2.0976,2.3143,2.4187,2.4205,2.4526,2.3424,2.1268,2.2482,2.2312,2.1211,2.1211,2.1024,2.0716,2.1089,2.1024,2.0716,2.1089,2.1089,2.0888,0.0,0.0,0.0,0.0,0.0,0.0,0.0,0.0,0.0,1.9012,1.8819,1.865,1.8553,1.8348,1.8106,0.0,0.0,0.0,1.7497,1.7485,1.7485,1.7485,1.7485,1.7485,1.7485,1.7485,1.7485,1.7485,1.7485,1.7485,1.7485,1.7543,1.7602,1.7661,1.796,1.8142,1.8259,1.8713,1.8933,1.8997,1.9301,1.9243,1.8991,1.8945,1.8544,1.8052,1.7774,1.726,1.6781,1.6781,0.0,0.0,0.0,0.0,1.6105,1.6318,1.6583,1.6842,1.712,1.7378,1.7582,1.7582,1.7582,1.7662,1.7922,1.8237,1.851,1.8851,1.9158,1.9424,1.9424,1.9424,1.9424,1.9424,1.9424,1.9424,1.9424,1.9591,1.9758,1.9758,2.0213,2.0551,2.0608,2.0902,2.1146,2.1211,2.1211,2.1211,2.1211,2.1159,2.1123,2.1123,2.1072,2.1042,2.1042,2.0772,2.0696,2.0903,2.2753,2.3605,2.3684,2.546,2.4433,2.118,2.2677,2.2482,2.1211,2.1211,2.1024,2.078,2.1089,2.1024,2.0831,2.1023,2.1123,2.1022,0.0,0.0,0.0,0.0,0.0,0.0,0.0,0.0,0.0,0.0,1.871,1.8505,1.8034,1.795,1.7823,1.7557,1.7533,1.7521,1.7485,0.0,0.0,1.7485,1.7485,1.7485,1.7485,1.7485,1.7485,1.7485,1.7485,1.7485,1.7485,1.7784,1.8077,1.8305,1.8305,1.8661,1.9191,1.9004,1.9062,1.9366,1.9366,1.9366,1.9281,1.9021,1.866,1.8304,1.8058,1.7546,1.706,1.706,1.6816,0.0,0.0,0.0,1.6624,1.663,1.6902,1.712,1.7179,1.7378,1.7582,1.7582,1.7582,1.7662,1.7922,1.8022,1.8209,1.8755,1.9158,1.9424,1.9424,1.9424,1.9424,1.9424,1.9424,1.9424,1.9424,1.9424,1.9424,1.9424,1.97,2.004,2.0328,2.0608,2.0902,2.1211,2.1211,2.1211,2.1211,2.094,2.0786,2.0786,2.0516,2.0307,2.0307,2.0263,2.0726,2.1673,2.2995,2.3605,2.3658,2.4956,2.3804,2.0913,2.3381,2.3247,2.1211,2.1211,2.1153,2.1146,2.1211,2.1153,2.1117,2.0832,2.0786,2.0686,0.0,0.0,0.0,0.0,0.0,0.0,0.0,0.0,0.0,0.0,0.0,1.8137,1.7961,1.7744,1.7612,1.7491,1.7485,1.7485,1.7485,1.7485,1.7485,1.7485,1.7485,1.7485,1.7485,1.7485,1.7485,1.7485,1.7485,1.7602,1.7784,1.8077,1.8194,1.82,1.8532,1.8823,1.912,1.9185,1.9243,1.9424,1.9424,1.9265,1.9105,1.8971,1.8605,1.8128,1.7886,1.7495,1.7154,1.7154,1.6951,1.673,1.6902,0.0,0.0,0.0,1.6955,1.7226,1.7378,1.7529,1.7582,1.7582,1.7582,1.7615,1.7756,1.7869,1.8069,1.8322,1.8671,1.8978,1.9363,1.9424,1.9424,1.9424,1.9424,1.9424,1.9424,1.9424,1.9424,1.9424,1.9649,1.9931,2.027,2.0402,2.0593,2.0883,2.0772,2.0669,2.0669,2.0475,2.0394,2.0394,2.0256,2.0183,2.0183,2.0062,2.0712,2.2214,2.3339,2.3901,2.391,2.5344,2.4262,2.1416,2.3278,2.2753,2.0669,2.0669,2.0669,2.0669,2.0669,2.0669,2.0647,2.0446,2.0394,2.0406,0.0,0.0,0.0,0.0,0.0,0.0,0.0,0.0,0.0,0.0,0.0,1.7913,1.7906,0.0,0.0,0.0,1.7485,1.7485,1.7485,1.7485,1.7485,1.7485,1.7485,1.7485,1.7485,1.7485,1.7485,1.7485,1.7602,1.7784,1.8031,1.8363,1.8421,1.8259,1.8771,1.9055,1.9055,1.9301,1.9424,1.9417,1.9285,1.9125,1.8911,1.8701,1.8368,1.7982,1.768,1.7409,1.7226,1.7279,1.7113,1.6895,1.7226,1.7113,0.0,0.0,0.0,1.7331,1.7536,1.7582,1.7582,1.7582,1.7582,1.7582,1.7582,1.7762,1.7896,1.7975,1.8223,1.8537,1.9052,1.9145,1.9145,1.9145,1.9145,1.9145,1.9145,1.9145,1.9145,1.9145,1.9368,1.959,1.9925,2.0012,2.0158,2.0429,2.0314,2.0183,2.0183,2.0164,2.012,2.012,2.004,1.9989,1.9989,2.0325,2.0888,2.1692,2.3343,2.3939,2.375,2.5185,2.4416,2.2034,2.3414,2.2712,2.0604,2.0604,2.0604,2.0604,2.0292,2.0183,2.0176,2.0142,2.012,2.0069,0.0,0.0,0.0,0.0,0.0,0.0,0.0,0.0,0.0,0.0,0.0,1.7906,1.8016,1.7673,1.7485,1.7485,1.7485,1.7485,1.7485,1.7485,1.7485,1.7485,1.7485,0.0,1.7485,1.7485,1.7485,1.7485,1.7849,1.7966,1.8025,1.8596,1.8874,1.8881,1.9243,1.9366,1.9366,1.9366,1.9424,1.9339,1.9058,1.8938,1.8865,1.8249,1.8015,1.7955,1.7716,1.7444,1.7226,1.7483,1.7378,1.7226,1.7483,1.7582,1.7529,0.0,0.0,0.0,1.7582,1.7582,1.7582,1.7582,1.7582,1.7582,1.7582,1.7595,1.7689,1.7935,1.8002,1.8109,1.8477,1.8537,1.8537,1.8537,1.8537,1.8537,1.8537,1.8537,1.8537,1.8537,1.8537,1.8697,1.8967,1.9278,1.9539,1.9807,2.0073,2.0183,2.0183,1.9952,1.9837,1.9837,1.9484,1.9323,1.9323,2.1369,2.1404,1.948,2.2634,2.3592,2.2634,2.371,2.3587,2.2536,2.4333,2.3816,2.1711,2.1711,2.1711,2.1603,2.0604,2.0183,2.0146,1.9894,1.9837,1.9793,0.0,0.0,0.0,0.0,0.0,0.0,0.0,0.0,0.0,0.0,0.0,0.0,0.0,1.8129,1.8071,1.8071,1.8071,1.8071,1.8071,1.7901,1.7849,1.7849,1.7602,1.7485,1.7485,1.7485,1.7602,1.7849,1.7966,1.82,1.8596,1.8823,1.8997,1.9243,1.9366,1.9424,1.9424,1.9424,1.9259,1.9072,1.8965,1.8698,1.8282,1.8075,1.7869,1.7736,1.7622,1.7529,1.7483,1.7582,1.7529,1.7483,1.7582,1.7582,1.7582,1.7582,1.7582,1.7582,1.7582,1.7582,1.7582,1.7582,1.7582,1.7582,1.7582,1.7582,1.7615,1.7722,1.7749,1.7782,1.7889,1.8223,1.849,1.849,1.849,1.849,1.849,1.849,1.849,1.849,1.849,1.8601,1.8857,1.9008,1.916,1.9438,1.9573,1.9623,1.9623,1.9513,1.95,1.95,1.9338,1.9279,1.9279,2.1438,2.2089,2.1387,2.3908,2.4922,2.4569,2.4971,2.4156,2.2601,2.4618,2.3871,2.1206,2.1206,2.1206,2.1102,2.0031,1.9623,1.9601,1.9491,1.95,1.9433,0.0,0.0,0.0,0.0,0.0,1.8298,1.8411,1.8425,1.8415,1.8532,0.0,0.0,0.0,0.0,1.8421,1.8421,1.8421,1.8421,1.8421,1.8252,1.8142,1.8142,1.7901,1.7778,1.7667,1.7778,1.7843,1.7972,1.82,1.8538,1.8874,1.9004,1.9185,1.9424,1.9424,1.9424,1.9417,1.9259,1.9105,1.8905,1.8711,1.8342,1.7982,1.7876,1.7762,1.7582,1.7582,1.7582,1.7582,1.7582,1.7582,1.7582,1.7582,1.7582,1.7582,1.7582,1.7582,1.7582,1.7582,1.7582,1.7582,1.7582,1.7582,1.7582,1.7582,1.7582,1.7582,1.7582,1.7582,1.7582,1.7582,1.7916,1.8183,1.8183,1.8183,1.8183,1.8183,1.8183,1.8183,1.8183,1.8183,1.8292,1.8449,1.8534,1.8684,1.8957,1.9081,1.9227,1.9279,1.9279,1.9279,1.9279,1.9628,1.9828,1.9828,2.1988,2.2835,2.2542,2.4667,2.5528,2.5177,2.5538,2.4716,2.3144,2.4922,2.3859,2.0936,2.1285,2.1234,2.0783,1.9732,1.9279,1.9279,1.9279,1.9279,1.9279,1.7859,1.7713,1.7608,1.7966,1.8025,1.8083,1.8363,1.8421,1.8532,1.8874,0.0,0.0,0.0,0.0,0.0,1.8421,1.8421,1.8421,1.8421,1.8421,1.8415,1.8415,1.8421,1.8311,1.8031,1.8252,1.8311,1.8031,1.8596,1.8939,1.8939,1.9243,1.9424,1.9424,1.9417,1.941,1.9332,1.9045,1.8911,1.8844,1.8222,1.7989,1.7949,1.7695,1.7582,1.7582,1.7582,1.7582,1.7582,1.7582,1.7582,1.7582,1.7582,1.7582,1.7582,1.7582,1.7582,1.7582,0.0,0.0,0.0,1.7582,1.7582,1.7582,1.7582,1.7582,1.7582,1.7582,1.7582,1.7582,1.7582,1.7582,1.7582,1.7582,1.7582,1.7582,1.7582,1.7582,1.7582,1.7582,1.7582,1.7582,1.7582,1.7852,1.8115,1.837,1.8705,1.9026,1.9279,1.9279,1.9279,1.9279,2.0336,2.0885,2.0885,2.2985,2.3543,2.2584,2.4667,2.5167,2.4187,2.5226,2.5118,2.4137,2.5216,2.3859,2.0987,2.2038,2.1887,2.0834,1.9732,1.9324,1.9324,1.9324,1.9279,1.9279,1.7587,1.7774,1.7908,1.7966,1.8369,1.8655,1.8765,1.8946,1.9185,0.0,0.0,0.0,1.9243,1.9185,1.9127,1.9127,1.9127,1.9127,1.9127,1.8887,1.8765,1.8765,1.8532,1.8363,1.8305,1.8363,1.848,1.8655,1.8823,1.9004,1.9243,1.9366,1.9424,1.9417,1.9145,1.9045,1.9038,1.8958,1.8621,1.8222,1.8055,1.7856,1.7702,1.7615,1.7582,1.7582,1.7582,1.7582,1.7582,1.7582,1.7582,1.7582,1.7582,1.7582,1.7582,1.7582,1.7582,1.7582,1.7582,0.0,0.0,0.0,0.0,0.0,1.7582,1.7582,1.7582,1.7582,1.7582,1.7582,1.7582,1.7582,1.7582,1.7582,1.7582,1.7582,1.7582,1.7582,1.7582,1.7582,1.7582,1.7582,1.7582,1.7852,1.8115,1.837,1.8705,1.9026,1.9279,1.9279,1.9279,1.9279,1.9583,2.013,2.0885,2.224,2.3185,2.3683,2.5069,2.5538,2.5274,2.5586,2.5118,2.4137,2.5216,2.3859,2.0987,2.2038,2.2341,2.1887,2.0034,1.9776,2.038,1.9583,1.9279,1.9279,1.7726,1.796,1.8194,1.8369,1.8648,1.8939,1.912,1.9243,1.9424,0.0,0.0,0.0,1.9424,1.9424,1.9424,1.9424,1.9424,1.9424,1.9424,1.9243,1.912,1.912,1.8946,1.8771,1.859,1.8771,1.8829,1.8874,1.9055,1.9185,1.9424,1.9424,1.9299,1.9172,1.8998,1.8791,1.8502,1.8502,1.8308,1.7982,1.7903,1.7742,1.7582,1.7582,1.7582,1.7582,1.7582,1.7582,1.7582,1.7582,1.7582,1.7582,1.7582,1.7582,1.7582,1.7582,1.7582,1.7582,1.7582,1.7582,1.7582,1.7582,0.0,0.0,1.7582,1.7582,1.7582,1.7582,1.7582,1.7582,1.7582,1.7582,1.7582,1.7582,1.7582,1.7582,1.7582,1.7582,1.7582,1.7582,1.7582,1.7582,1.7582,1.7747,1.801,1.837,1.8586,1.8855,1.9279,1.9279,1.9532,1.9931,2.038,2.1132,2.224,2.3302,2.4156,2.4756,2.5382,2.5693,2.5693,2.5693,2.5382,2.4805,2.543,2.4115,2.1633,2.2743,2.2634,2.1633,1.9983,1.9983,2.0783,1.968,1.9279,1.9279,0.0,1.8252,1.8532,1.8881,1.8933,1.9062,1.9366,1.9424,1.9424,0.0,1.9424,1.9424,1.9424,1.9424,1.9424,1.9424,1.9424,1.9424,1.9424,1.9424,1.9424,1.9424,1.9424,1.9243,1.8939,1.9243,1.9243,1.8939,1.9243,1.9424,1.9424,1.9332,1.9178,1.8918,1.8851,1.8482,1.7989,1.7955,1.7942,1.7916,1.7695,1.7582,1.7582,1.7582,1.7582,1.7582,1.7582,1.7582,1.7582,1.7582,1.7582,1.7582,1.7582,1.7582,1.7582,1.7582,1.7582,1.7582,1.7582,1.7582,1.7582,1.7582,1.7582,0.0,1.7582,1.7582,1.7582,1.7582,1.7582,1.7582,1.7582,1.7582,1.7582,1.7582,1.7582,1.7582,1.7582,1.7582,1.7582,1.7582,1.7582,1.7582,1.7582,1.7582,1.7793,1.8318,1.8422,1.8691,1.9227,1.9279,1.9732,2.068,2.1735,2.2835,2.389,2.4971,2.5586,2.5693,2.5693,2.5693,2.5693,2.5693,2.5693,2.5693,2.5693,2.447,2.2584,2.3642,2.2894,2.0987,1.9879,2.013,2.0936,1.9732,1.9279,1.9279,1.8305,1.859,1.8823,1.8874,1.912,1.9307,1.9366,1.9424,1.9424,1.9424,1.9424,1.9424,1.9424,1.9424,1.9424,1.9424,1.9424,1.9424,1.9424,1.9424,1.9424,1.9424,1.9424,1.9366,1.9307,1.9366,1.9366,1.9307,1.9366,1.9424,1.9366,1.9125,1.8978,1.8905,1.8375,1.8095,1.7975,1.7776,1.7669,1.7669,1.7609,1.7582,1.7582,1.7582,1.7582,1.7582,1.7582,1.7582,1.7582,1.7582,1.7582,1.7582,1.7582,1.7582,1.7582,1.7582,1.7582,1.7582,1.7582,1.7582,1.7582,1.7582,1.7582,0.0,1.7582,1.7582,1.7582,1.7582,1.7582,1.7582,1.7582,1.7582,1.7582,1.7582,1.7582,1.7582,1.7582,1.7582,1.7582,1.7582,1.7582,1.7582,1.7582,1.7582,1.774,1.8069,1.8548,1.8869,1.8974,1.9175,1.9376,1.9628,2.0629,2.1735,2.2785,2.389,2.4864,2.5693,2.5693,2.5693,2.5693,2.5693,2.5693,2.5693,2.5693,2.447,2.2584,2.3642,2.3335,2.2089,2.0987,2.1234,2.1937,2.0027,1.9279,1.9279,1.8648,1.8946,1.912,1.912,1.9301,1.9424,1.9424,1.9424,1.9424,1.9424,1.9424,1.9424,1.9424,1.9424,1.9424,1.9424,1.9424,1.9424,1.9424,1.9424,1.9424,1.9424,1.9424,1.9424,1.9424,1.9424,1.9424,1.9424,1.9424,1.9292,1.9145,1.8991,1.8764,1.8422,1.8122,1.7909,1.7802,1.7649,1.7582,1.7582,1.7582,1.7582,1.7582,1.7582,1.7582,1.7582,1.7582,1.7582,1.7582,1.7582,1.7582,1.7582,1.7582,1.7582,1.7582,1.7582,1.7996,1.8408,1.8408,1.8819,1.9235,1.9235,1.9235,0.0,0.0,1.8819,1.8408,1.8408,1.7996,1.7582,1.7582,1.7582,1.7582,1.7582,1.7582,1.7582,1.7582,1.7582,1.7582,1.7582,1.7582,1.7582,1.7582,1.7582,1.7694,1.7964,1.8548,1.8921,1.8921,1.9175,1.9532,2.0078,2.1132,2.2181,2.3294,2.4353,2.5167,2.5693,2.5693,2.5693,2.5693,2.5693,2.5693,2.5693,2.5693,2.4766,2.3384,2.4461,2.4254,2.3135,2.154,2.154,2.224,2.0078,1.9628,2.0034,1.8997,1.9185,1.9424,1.9424,1.9424,1.9424,1.9424,1.9424,1.9424,1.9424,1.9424,1.9482,1.9707,1.9764,1.9764,1.9764,1.9764,1.9649,1.9424,1.9424,1.9424,1.9424,1.9424,1.9424,1.9424,1.9424,1.9397,1.9279,1.9279,1.9132,1.8838,1.8784,1.8442,1.7989,1.7929,1.7816,1.7582,1.7582,1.7582,1.7582,1.7582,1.7615,1.7675,1.7736,1.7756,1.7749,1.7695,1.7629,1.7582,1.7582,1.7582,1.7582,1.7582,1.7582,1.7582,1.7582,1.8199,1.8923,1.9124,1.9849,2.0621,2.0834,2.0885,2.0885,0.0,0.0,0.0,1.9539,1.8662,1.7891,1.7891,1.774,1.7582,1.7582,1.7535,1.7502,1.7502,1.7448,1.7455,1.7569,1.7582,1.7582,1.7582,1.7582,1.7694,1.7911,1.8496,1.8817,1.8817,1.9123,1.968,2.0585,2.1836,2.2935,2.3791,2.5069,2.5693,2.5693,2.5693,2.5693,2.5693,2.5693,2.5693,2.5693,2.5693,2.5069,2.4187,2.5274,2.5069,2.389,2.1988,2.1735,2.224,2.0078,1.9983,2.0739,1.9366,1.9366,1.9424,1.9424,1.9424,1.9424,1.9424,1.9424,1.9424,1.9424,1.9424,1.9822,2.0895,2.101,2.101,2.101,2.101,2.0551,1.9482,1.9424,1.9424,1.9424,1.9424,1.9424,1.9424,1.9424,1.9239,1.8978,1.8978,1.8824,1.8537,1.8215,1.8055,1.7982,1.7756,1.7615,1.7582,1.7582,1.7582,1.7582,1.7582,1.7749,1.7969,1.8283,1.839,1.835,1.8035,1.7816,1.7582,1.7582,1.7582,1.7582,1.7582,1.7582,1.7582,1.7582,1.7687,1.7996,1.8916,1.928,1.9642,2.0672,2.0885,2.0885,2.0885,0.0,2.0731,2.0731,0.0,1.902,1.902,0.0,0.0,1.7582,1.742,1.7253,1.7253,1.6974,1.7001,1.7522,1.7582,1.7582,1.7582,1.7582,1.7635,1.7635,1.816,1.8482,1.8482,1.9011,1.9376,1.948,2.1438,2.2534,2.2685,2.4667,2.5693,2.5693,2.5693,2.5693,2.5693,2.5693,2.5693,2.5693,2.5693,2.5069,2.4187,2.5274,2.5069,2.3989,2.2785,2.2383,2.224,2.0078,1.9983,2.0739,1.9424,1.9424,1.9424,1.9424,1.9424,1.9424,1.9424,1.9424,1.9424,1.9424,1.9424,1.9591,2.0104,2.0162,2.0443,2.1117,2.1174,2.1288,2.146,2.1517,2.1174,2.05,2.0443,2.0104,1.9424,1.9199,1.9052,1.8925,1.8751,1.8524,1.823,1.8049,1.7896,1.7769,1.7642,1.7582,1.7582,1.7582,1.7689,1.7869,1.8036,1.829,1.8475,1.8317,1.8337,1.845,1.8102,1.7909,1.7822,1.7642,1.7996,1.8506,1.8506,1.8975,1.9391,1.8715,1.8975,1.9591,2.0055,2.0621,2.1395,2.2518,2.282,2.282,2.282,2.2316,2.181,2.181,0.0,0.0,0.0,0.0,0.0,0.0,1.7992,1.7795,1.7795,1.7675,1.7446,1.7092,1.7074,1.7141,1.7367,1.738,1.7454,1.7569,1.7943,1.824,1.8415,1.8959,1.9279,1.9279,2.1387,2.2484,2.2484,2.4618,2.5693,2.5693,2.5693,2.5693,2.5693,2.5693,2.5693,2.5693,2.5693,2.543,2.5069,2.5528,2.543,2.4913,2.385,2.3044,2.224,2.0078,2.038,2.1684,1.9424,1.9424,1.9424,1.9424,1.9424,1.954,1.9815,1.9597,1.954,1.988,1.9873,2.0046,2.0328,2.0666,2.1231,2.2135,2.2191,2.2418,2.2982,2.2974,2.258,2.1737,2.168,2.1244,2.0252,1.997,1.9773,1.9549,1.9387,1.912,1.8812,1.8812,1.8685,1.8513,1.8199,1.8199,1.8461,1.8146,1.8337,1.884,1.921,1.9569,1.9766,1.8759,1.849,1.8577,1.8308,1.8129,1.7955,1.7789,1.838,1.9176,1.9176,2.0004,2.0731,1.9901,2.0261,2.0987,2.1242,2.1912,2.2778,2.3895,2.4202,2.4202,2.4202,2.3538,2.2987,2.2987,2.2114,0.0,0.0,0.0,1.9199,1.9199,0.0,1.8487,1.8487,1.8413,1.8038,1.7229,1.685,1.6794,1.7058,1.7079,1.7166,1.7328,1.7909,1.8419,1.8735,1.953,1.9935,1.9724,2.1532,2.2484,2.2484,2.4362,2.543,2.5693,2.5693,2.5693,2.5693,2.5693,2.5693,2.5693,2.5693,2.5693,2.5693,2.5693,2.5693,2.5586,2.4501,2.3434,2.2282,2.0731,2.1132,2.2391,1.9424,1.9424,1.9424,1.9424,1.9424,1.9764,2.0945,2.0162,1.9822,2.1002,2.1117,2.1574,2.2757,2.3935,2.4667,2.4667,2.4667,2.4214,2.3095,2.2974,2.2982,2.2918,2.2926,2.2759,2.2293,2.2269,2.1938,2.1223,2.1207,2.1078,2.0798,2.0798,2.079,2.0731,1.9642,1.9746,2.0723,1.9642,1.9805,2.083,2.1222,2.1777,2.2151,2.0123,1.9152,1.8911,1.8898,1.8475,1.7995,1.7982,1.8508,1.9176,1.9176,2.0004,2.0885,2.0885,2.0885,2.114,2.2173,2.2476,2.2778,2.3895,2.4202,2.4202,2.4202,2.4152,2.4152,2.4152,2.3238,2.2476,2.2476,2.1245,2.0237,2.0237,1.9619,0.0,0.0,1.8941,1.8605,1.8211,1.7299,1.6707,1.672,1.672,1.6727,1.6734,1.8094,1.9159,1.9537,2.1007,2.1528,2.0877,2.1937,2.2484,2.2484,2.3592,2.4658,2.5693,2.5693,2.5693,2.5693,2.5693,2.5693,2.5693,2.5693,2.5693,2.5693,2.5693,2.5693,2.5586,2.4501,2.3434,2.2484,2.2433,2.2433,2.2484,1.954,1.9424,1.9424,1.9424,1.9424,1.954,1.9938,2.0328,2.0723,2.1174,2.1907,2.2248,2.1851,2.2191,2.2418,2.2418,2.2418,2.2918,2.4103,2.4214,2.4214,2.4214,2.4214,2.3766,2.2799,2.2331,2.1965,2.1682,2.123,2.0996,2.0885,2.0885,2.0885,2.0834,1.9694,1.9945,2.1081,1.9945,2.0404,2.1872,2.2505,2.2292,2.1636,2.1749,2.1726,2.1598,2.1372,2.1146,2.089,2.0445,2.0948,2.1748,2.1469,2.2156,2.2929,2.2165,2.1962,2.2064,0.0,2.2476,2.2778,2.3895,2.4202,2.4202,2.4202,2.4202,2.4202,2.4202,2.3895,2.3646,2.3646,2.2449,2.1409,2.1117,2.0674,2.0225,0.0,1.987,1.952,1.8699,1.8439,1.8334,1.8334,1.7768,1.7764,1.8641,1.8559,0.0,2.0085,2.0841,2.1357,2.157,2.2617,2.3283,2.3543,2.4609,2.5323,2.5693,2.5693,2.5693,2.5693,2.5693,2.5693,2.5693,2.5693,2.5693,2.5693,2.5693,2.5693,2.5635,2.5323,2.451,2.3484,2.2735,2.2484,2.2584,2.0838,2.0666,2.0385,1.954,1.9424,1.954,1.9989,2.0328,2.0723,2.1117,2.1851,2.2248,2.1851,2.1851,2.2021,2.2418,2.2078,2.2692,2.4667,2.4778,2.5008,2.5404,2.5459,2.4994,2.4069,2.359,2.328,2.3146,2.255,2.2316,2.2256,2.2122,2.1853,2.1395,2.0313,2.0562,2.1794,2.0834,2.1611,2.3529,2.4284,2.4119,2.3463,2.4253,2.3695,2.254,2.276,2.2766,2.2589,2.2025,2.2399,2.3032,2.28,2.3394,2.4053,2.3338,2.3088,2.3088,2.3088,2.3088,0.0,2.4003,2.4202,2.4202,2.4202,2.4202,2.4202,2.4202,2.4202,2.4202,2.4202,2.3305,2.2465,2.2039,2.1652,2.1257,0.0,2.0808,2.0583,1.9894,1.9358,1.9074,1.9074,1.8526,1.8523,1.9304,1.9154,1.9555,0.0,2.1419,2.1925,2.2206,2.2898,2.3474,2.3877,2.4598,2.5179,2.5693,2.5693,2.5693,2.5693,2.5693,2.5693,2.5693,2.5693,2.5693,2.5693,2.5693,2.5693,2.5693,2.5693,2.502,2.4038,2.375,2.3651,2.3759,2.303,2.2974,2.2305,1.9989,1.9482,1.9764,2.0952,2.022,1.9989,2.1117,2.1402,2.1851,2.2974,2.3087,2.3544,2.4612,2.3656,2.3488,2.4723,2.4778,2.5348,2.6527,2.6591,2.6399,2.6058,2.6021,2.5828,2.5451,2.5005,2.4803,2.4776,2.4422,2.3664,2.2526,2.1446,2.1751,2.2996,2.233,2.3435,2.5749,2.6522,2.7028,2.7314,2.7431,2.5113,2.1975,2.3159,2.345,2.3163,2.2834,2.2963,2.3255,2.3186,2.3648,2.4202,2.4202,2.4202,2.4202,2.4202,2.4202,2.4202,2.4202,2.4202,0.0,2.4202,2.4202,2.4202,2.4202,2.4202,2.4202,2.4202,2.384,2.3398,2.2995,2.2565,2.2144,2.1751,2.1696,2.1696,2.1696,2.0076,1.8926,1.8926,1.888,1.888,1.8926,1.996,2.0895,2.1603,2.2737,2.3199,2.285,2.2868,2.3061,2.3512,2.3588,2.4294,2.5654,2.5674,2.5693,2.5693,2.5693,2.5693,2.5693,2.5693,2.5693,2.5693,2.5693,2.5693,2.5693,2.5693,2.5069,2.4295,2.5274,2.5635,2.5693,2.3207,2.2974,2.2813,2.2191,2.0608,1.9482,1.9822,2.1117,2.2191,2.2523,2.4103,2.5008,2.439,2.4334,2.4103,2.3488,2.3207,2.3488,2.4723,2.4778,2.5348,2.6527,2.6591,2.6536,2.6435,2.6177,2.5966,2.5865,2.546,2.5069,2.4785,2.4675,2.4354,2.3746,2.2802,2.3311,2.4835,2.4029,2.4887,2.6835,2.7372,2.6985,2.6182,2.7574,2.678,2.5041,2.6018,2.6354,2.6217,2.5827,2.5452,2.5039,2.4789,2.4464,2.4202,2.4202,2.4202,2.4202,2.4202,2.4202,2.4202,2.4202,2.4202,2.4202,0.0,0.0,2.4202,2.4202,2.4202,2.4202,2.4202,2.4119,2.3868,2.3407,2.2748,2.2144,2.1751,2.1696,2.1696,2.1696,2.1275,2.0952,2.0952,2.0303,2.0212,2.0907,2.0619,2.0934,2.2138,2.2504,2.2926,2.3518,2.3527,2.3729,2.4142,2.4515,2.4879,2.5244,2.5576,2.5693,2.5693,2.5693,2.5693,2.5693,2.5693,2.5693,2.5693,2.5693,2.5693,2.5693,2.5693,2.5528,2.5226,2.4707,2.502,2.5693,2.4723,2.4158,2.3768,2.3768,2.2248,2.0945,2.0945,2.2135,2.2974,2.2974,2.4158,2.5,2.4982,2.4475,2.4197,2.4133,2.3631,2.3855,2.5093,2.5148,2.5716,2.6899,2.6954,2.6954,2.6954,2.6721,2.6537,2.643,2.6033,2.5675,2.5341,2.5024,2.4578,2.3889,2.35,2.3969,2.5043,2.5549,2.6499,2.7675,2.798,2.7565,0.0,2.7906,2.778,2.7114,2.7638,2.7701,2.7555,2.7166,2.671,2.6139,2.5615,2.5093,2.4581,2.4306,2.4202,2.4202,2.4202,2.4202,2.4202,2.4202,2.4202,2.4202,2.4301,2.4341,2.4341,0.0,2.4341,2.4291,2.4202,2.4202,2.4073,2.3563,2.2812,2.2199,2.198,2.1797,2.1696,2.1696,2.1696,2.1696,2.1696,2.1221,2.1132,2.1651,2.1221,2.1356,0.0,2.2397,2.2723,2.3452,2.3506,2.3711,2.4141,2.457,2.4883,2.5116,2.5527,2.5693,2.5693,2.5693,2.5693,2.5693,2.5693,2.5693,2.5693,2.5693,2.5693,2.5693,2.5693,2.5693,2.5635,2.502,2.5177,2.5693,2.6136,2.5404,2.4778,2.4778,2.3935,2.3311,2.348,2.3368,2.3263,2.3255,2.3424,2.403,2.5351,2.4561,2.445,2.5735,2.4893,2.4718,2.579,2.5854,2.63,2.7368,2.7377,2.7377,2.7377,2.7377,2.7269,2.7043,2.6689,2.6386,2.6109,2.5586,2.4798,2.3874,2.4155,2.4437,2.4895,2.6906,2.7959,2.8291,2.8291,2.8291,2.8291,2.8291,2.8291,2.8291,2.8291,2.8121,2.7906,2.7647,2.721,2.6759,2.6191,2.5647,2.5138,2.4535,2.4337,2.4301,2.4251,2.4251,2.4251,2.4202,2.4202,2.4301,2.444,2.4538,2.4529,2.4529,2.4529,2.4489,2.4301,2.4202,2.4073,2.3563,2.2858,2.2346,2.2327,2.1943,2.1696,2.1696,2.1696,0.0,2.1696,2.1696,2.1696,2.1696,2.1696,2.1909,0.0,0.0,2.2618,2.3101,2.3091,2.3276,2.3701,2.418,2.4609,2.499,2.5498,2.5693,2.5693,2.5693,2.5693,2.5693,2.5693,2.5693,2.5693,2.5693,2.5693,2.5693,2.5693,2.5693,2.5693,2.5693,2.5693,2.5684,2.3824,2.427,2.4778,2.4778,2.4612,2.4889,2.61,2.5276,2.4548,2.4799,2.5698,2.6482,2.698,2.6808,2.6808,2.7034,2.6871,2.6862,2.7088,2.7088,2.7206,2.7377,2.7377,2.7377,2.7377,2.7377,2.7377,2.7323,2.7248,2.704,2.6658,2.6559,2.6243,2.575,2.6007,2.6515,2.7139,2.7853,2.8223,2.8291,2.8291,2.8291,2.8291,2.8291,2.8291,2.8291,2.8291,2.8291,2.8237,2.8184,2.7743,2.7165,2.7046,2.6336,2.5497,2.5381,2.5057,2.4735,2.4538,2.444,2.439,2.4251,2.4341,2.444,2.4489,2.4677,2.4833,2.4833,2.4833,2.4735,2.4489,0.0,2.4073,2.3563,2.3096,2.2675,2.2327,2.1943,2.1696,2.1696,2.1696,2.1696,2.1696,2.1696,2.1696,2.1696,2.1696,2.1909,2.2388,0.0,2.2618,0.0,2.3091,2.313,0.0,0.0,2.4453,2.4541,2.5304,2.5693,2.5693,2.5693,2.5693,2.5693,2.5693,2.5693,2.5693,2.5693,2.5693,2.5693,2.5693,2.5693,2.5693,2.5693,2.5693,2.5586,2.5008,2.534,2.5789,2.5944,2.5935,2.6218,2.7098,2.66,2.6209,2.6309,2.6871,2.7314,2.7638,2.7638,2.7701,2.7862,2.7862,2.7862,2.7862,2.7862,2.7862,2.7862,2.7862,2.7862,2.7862,2.7862,2.7799,2.7638,2.7638,2.7488,2.7128,2.7017,2.6903,2.6754,2.7033,2.7484,2.7998,2.8203,2.8291,2.8291,2.8291,2.8291,2.8291,2.8291,2.8291,2.8291,2.8291,2.8291,2.8291,2.8291,2.8101,2.7738,2.741,2.6906,2.6429,2.6047,2.5585,2.5204,2.5114,2.4895,2.4686,2.4597,2.4637,2.4735,2.4883,2.503,2.5088,2.5088,2.5088,2.5039,2.4784,2.4489,0.0,2.4082,2.3568,2.3142,2.294,2.2382,2.1998,2.1998,2.1815,2.1696,2.1696,2.1696,2.1696,2.1696,2.1696,2.1909,2.2388,0.0,2.2618,0.0,0.0,0.0,2.3091,0.0,2.4414,2.4424,2.5265,2.5693,2.5693,2.5693,2.5693,2.5693,2.5693,2.5693,2.5693,2.5693,2.5693,2.5693,2.5693,2.5693,2.5693,2.5693,2.5693,2.5635,2.5916,2.6072,2.6345,2.66,2.6645,2.6871,2.7422,2.7485,2.7485,2.7485,2.7485,2.7647,2.796,2.796,2.8067,2.8291,2.8291,2.8291,2.8291,2.8291,2.8291,2.8291,2.8291,2.8291,2.8291,2.8291,2.8184,2.796,2.796,2.7814,2.746,2.7468,2.7448,2.7458,2.7688,2.7988,2.8291,0.0,2.8291,2.8291,2.8291,2.8291,2.8291,2.8291,2.8291,2.8291,2.8291,2.8291,2.8291,2.8291,2.8291,2.8232,2.768,2.7462,2.7274,2.6668,2.6225,2.5882,2.5736,2.5419,2.5095,2.496,2.4932,2.5039,2.5235,2.5333,2.5391,2.5391,2.5333,2.5235,2.503,2.4784,0.0,2.4538,2.3999,2.3595,2.3499,2.2794,2.2282,2.2282,2.1934,2.1696,2.1696,2.1696,2.1696,2.1696,2.1731,2.1954,2.2397,2.2441,2.2662,0.0,0.0,2.3091,2.3091,0.0,2.4414,2.4424,2.5265,2.5693,2.5693,2.5693,2.5693,2.5693,2.5693,2.5693,2.5693,2.5693,2.5693,2.5693,2.5693,2.5693,2.5693,2.5693,2.5693,2.5693,2.3768,2.442,2.536,2.5351,2.5571,2.6236,2.7628,2.7853,2.7853,2.7853,2.7853,2.796,2.8237,2.8237,2.8291,2.8291,2.8291,2.8291,2.8291,2.8291,2.8291,2.8291,2.8291,2.8291,2.8291,2.8291,2.8291,2.8237,2.8237,2.8043,2.7682,2.8013,2.8179,2.8179,2.8232,0.0,0.0,2.8291,2.8291,2.8291,2.8291,2.8291,2.8291,2.8291,2.8291,2.8291,2.8291,2.8291,2.8291,2.8291,2.8291,2.8281,2.8242,2.7978,2.7656,2.7565,2.7243,2.6722,2.6133,2.5948,2.5724,2.5085,2.5088,2.5284,2.5284,2.5489,2.5635,2.5635,2.5489,2.5284,2.5284,2.5039,2.4784,0.0,2.4145,2.3788,2.3538,2.2794,2.2282,2.2282,2.1934,2.1696,2.1696,2.1696,2.1696,2.1696,2.1919,2.2176,2.2397,2.2618,2.2882,2.3091,2.3091,2.3091,2.3091,2.3939,2.4414,2.4424,2.5265,2.5693,2.5693,2.5693,2.5693,2.5693,2.5693,2.5693,2.5693,2.5693,2.5693,2.5693,2.5693,2.5693,2.5693,2.5693,2.5693,2.5693,2.5817,2.6145,2.6581,2.6799,2.6907,2.7232,2.8014,2.813,2.813,2.813,2.813,2.8184,2.8291,2.8291,2.8291,2.8291,2.8291,2.8291,2.8291,2.8291,2.8291,2.8291,2.8291,2.8291,2.8291,2.8291,2.8291,2.8291,2.8291,2.8203,2.8047,2.8213,2.8291,0.0,0.0,2.8291,2.8291,2.8291,2.8291,2.8291,2.8291,2.8291,2.8291,2.8291,2.8291,2.8291,2.8291,2.8291,2.8291,2.8291,2.8291,2.8291,2.8291,2.8174,2.8047,2.8047,2.7744,2.7373,2.7094,2.6625,2.6188,2.5865,2.5682,2.5538,2.5538,2.5635,2.5693,2.5693,2.5586,2.5538,2.5538,2.5333,2.5088,2.4981,2.4701,2.4442,2.4345,2.385,2.3392,2.3177,2.2793,2.2457,2.215,2.1998,2.1919,2.1919,2.1874,2.2008,2.2397,2.2485,2.275,2.3101,0.0,2.3218,2.3525,2.4121,2.4551,2.4814,2.5439,2.5693,2.5693,2.5693,2.5693,2.5693,2.5693,2.5693,2.5693,2.5693,2.5693,2.5693,2.5693,2.5693,2.5693,2.5693,2.5693,2.5693,2.7377,2.7485,2.7638,2.7853,2.796,2.8067,2.8291,2.8291,2.834,2.8467,2.8476,2.8428,2.8301,2.8291,2.8291,2.8291,2.8291,2.8291,2.8291,2.8291,2.8291,2.8291,2.8291,2.8291,2.8291,2.8291,2.8291,2.8291,2.8291,2.8232,2.8105,2.8105,0.0,0.0,2.8291,2.8291,2.8291,2.8291,2.8291,2.8291,2.8291,2.8291,2.8291,2.8291,2.8291,2.8291,2.8291,2.8291,2.8291,2.8291,2.8291,2.8291,2.8291,2.8291,2.8291,2.8291,2.8086,2.7822,2.7748,2.7226,2.6699,2.6455,2.6162,2.5849,2.5713,2.5693,2.5693,2.5693,2.5693,2.5693,2.5693,2.5538,2.5382,2.5333,0.0,2.4981,2.4932,2.4533,2.4117,2.3636,2.3312,2.2905,2.2346,2.223,2.2185,2.2185,2.1998,2.2043,2.2397,2.2485,0.0,0.0,0.0,0.0,2.3789,2.4336,2.4756,2.5116,2.5527,2.5693,2.5693,2.5693,2.5693,2.5693,2.5693,2.5693,2.5693,2.5693,2.5693,2.5693,2.5693,2.5693,2.5693,2.5693,2.5693,2.5693,2.7377,2.7691,2.7906,2.7906,2.813,2.8291,2.8291,2.8291,2.8437,2.8857,2.8916,2.875,2.834,2.8291,2.8291,2.8291,2.8291,2.8291,2.8291,2.8291,2.8291,2.8291,2.8291,2.8291,2.8291,2.8291,2.8291,2.8291,2.8291,2.8086,2.7728,0.0,2.7891,2.8291,2.8291,2.8291,2.8291,2.8291,2.8291,2.8291,2.8291,2.8291,2.8291,2.8291,2.8291,2.8291,2.8291,2.8291,2.8291,2.8291,2.8291,2.8291,2.8291,2.8291,2.8291,2.8291,2.8291,2.8193,2.7836,2.7708,2.7503,2.6602,2.6387,2.6269,2.5791,2.5693,2.5693,2.5693,2.5693,2.5693,2.5693,2.5693,2.5586,2.5333,0.0,2.5186,2.4932,2.4533,2.407,2.3392,2.3175,2.286,2.2188,2.2264,2.2397,2.2397,2.2388,2.2388,0.0,0.0,0.0,2.3091,2.3555,0.0,2.3789,2.4675,2.5106,2.5116,2.5527,2.5693,2.5693,2.5693,2.5693,2.5693,2.5693,2.5693,2.5693,2.5693,2.5693,2.5693,2.5693,2.5693,2.5693,2.5693,2.5693,2.5693,2.8391,2.8503,2.87,2.9001,2.9105,2.916,2.916,2.916,2.9209,2.9346,2.9365,2.9316,2.918,2.8896,2.8603,2.831,2.8291,2.8291,2.8291,2.8291,2.8291,2.8291,2.8291,2.8291,2.8291,2.8291,2.8291,2.8291,0.0,0.0,0.0,2.8096,2.8164,2.8291,2.8291,2.8291,2.8291,2.8291,2.8291,2.8291,2.8291,2.8291,2.8291,2.8291,2.8291,2.8291,2.8291,2.8291,2.8291,2.8291,2.8291,2.8291,2.8291,2.8291,2.8291,2.8291,2.8291,2.8262,2.8125,2.7933,2.765,2.7386,2.6816,2.6357,2.6211,2.5947,2.5693,2.5693,2.5693,2.5693,2.5693,2.5693,2.5684,2.5586,2.5586,0.0,2.544,2.5324,2.5073,2.4582,2.4512,2.426,2.3734,2.3604,2.3444,2.3102,2.2957,0.0,0.0,0.0,0.0,0.0,2.3721,0.0,2.4705,2.4979,2.5225,2.5527,2.5625,2.5693,2.5693,2.5693,2.5693,2.5693,2.5693,2.5693,2.5693,2.5693,2.5693,2.5693,2.5693,2.5693,2.5693,2.5693,2.5693,2.5693,2.9111,2.916,2.9248,2.9521,2.9626,2.9626,2.9626,2.9626,2.9629,2.9785,2.9805,2.9805,2.9805,2.956,2.917,2.8584,2.8525,2.8467,2.8301,2.8291,2.8291,2.8291,2.8291,2.8291,2.8291,2.8291,0.0,2.8291,2.8291,2.8291,2.8291,2.8291,2.8291,2.8291,2.8291,2.8291,2.8291,2.8291,2.8291,2.8291,2.8291,2.8291,2.8291,2.8291,2.8291,2.8291,2.8291,2.8291,2.8291,2.8291,2.8291,2.8291,2.8291,2.8291,2.8291,2.8291,2.8291,2.8291,2.8291,2.8096,2.7861,2.7757,2.7266,2.6787,2.6465,2.6172,2.5937,2.5723,2.5693,2.5693,2.5693,2.5693,2.5693,2.5693,2.5693,2.5693,2.5693,2.5693,2.5518,2.5022,2.5021,2.4902,2.4324,2.4239,2.4077,2.3806,2.3659,0.0,0.0,0.0,2.3316,2.4014,2.4189,2.4531,2.5106,2.5234,2.5459,2.5693,2.5693,2.5693,2.5693,2.5693,2.5693,2.5693,2.5693,2.5693,2.5693,2.5693,2.5693,2.5693,2.5693,2.5693,2.5693,2.5693,2.5693,2.5693,2.9665,2.9619,2.9675,2.9658,2.9658,2.9658,2.9658,2.9658,2.9805,3.0195,3.0244,3.0244,3.0244,3.0244,2.9912,2.9082,0.0,2.875,2.8359,2.831,2.8291,2.8291,2.8291,2.8291,2.8291,2.8291,2.8291,2.8291,2.8291,2.8291,2.8291,2.8291,2.8291,2.8291,2.8291,2.8291,2.8291,2.8291,2.8291,2.8291,2.8291,2.8291,2.8291,2.8291,2.8291,2.8291,2.8291,2.8291,2.8291,2.8291,2.8291,2.8291,2.8291,2.8291,2.8291,2.8291,2.8291,2.8291,2.8291,2.8291,2.8203,2.7865,2.7738,2.7503,2.6621,2.6406,2.6279,2.582,2.5713,2.5693,2.5693,2.5693,2.5693,2.5693,2.5693,2.5693,2.5693,2.5693,2.5479,2.4813,2.4965,0.0,2.4282,2.4373,2.4492,0.0,2.4463,0.0,0.0,0.0,2.3779,2.4453,2.4853,2.5135,2.5165,2.5527,2.5693,2.5693,2.5693,2.5693,2.5693,2.5693,2.5693,2.5693,2.5693,2.5693,2.5693,2.5693,2.5693,2.5693,2.5693,2.5693,2.5693,2.5693,2.5693,2.5693,2.999,3.0049,3.0156,3.0518,3.0576,3.0576,3.0576,3.0576,3.0615,3.0713,3.0723,3.0723,3.0723,3.0723,3.0508,2.9941,2.9297,2.8877,2.8779,2.8467,2.8291,2.8291,2.8291,2.8291,2.8291,2.8291,2.8291,2.8291,2.8291,2.8291,2.8291,2.8291,2.8291,2.8291,2.8291,2.8291,2.8291,2.8291,2.8291,2.8291,2.8291,2.8291,2.8291,2.8291,2.8291,2.8291,2.8291,2.8291,2.8291,2.8291,2.8291,2.8291,2.8291,2.8291,2.8291,2.8291,2.8291,2.8291,2.8291,2.8291,2.8271,2.8164,2.791,2.7529,2.6992,2.6621,2.6357,2.626,2.5967,2.5693,2.5693,2.5693,2.5693,2.5693,2.5693,2.5693,2.5693,2.5693,2.5645,2.5489,2.5528,2.5489,2.5343,2.5372,2.5283,0.0,0.0,2.4912,2.4912,2.4767,2.4758,2.4912,2.5057,2.5234,2.5528,2.5635,2.5693,2.5693,2.5693,2.5693,2.5693,2.5693,2.5693,2.5693,2.5693,2.5693,2.5693,2.5693,2.5693,2.5693,2.5693,2.5693,2.5693,2.5693,2.5693,2.5693,3.0469,3.0518,3.0596,3.085,3.0889,3.0889,3.0889,3.0889,3.0889,3.0889,3.0889,3.0889,3.0889,3.0889,3.0791,3.0537,2.9717,2.9131,2.8926,2.8525,2.8291,2.8291,2.8291,2.8291,2.8291,2.8291,2.8291,2.8291,2.8291,2.8291,2.8291,2.8291,2.8291,2.8291,2.8291,2.8291,2.8291,2.8291,2.8291,2.8291,2.8291,2.8291,2.8291,2.8291,2.8291,2.8291,2.8291,2.8291,2.8291,2.8291,2.8291,2.8291,2.8291,2.8291,2.8291,2.8291,2.8291,2.8291,2.8291,2.8291,2.8291,2.8291,2.8125,2.7842,2.7412,2.7139,2.6855,2.6465,2.6201,2.5977,2.5723,2.5693,2.5693,2.5693,2.5693,2.5693,2.5693,2.5693,2.5693,2.5693,2.5693,2.5693,2.5693,2.5693,2.5586,2.5391,2.5371,0.0,2.5371,2.5371,2.5371,2.5371,2.5371,2.5488,2.5693,2.5693,2.5693,2.5693,2.5693,2.5693,2.5693,2.5693,2.5693,2.5693,2.5693,2.5693,2.5693,2.5693,2.5693,2.5693,2.5693,2.5693,2.5693,2.5693,2.5693,2.5713,3.0889,3.0889,3.0889,3.0889,3.0889,3.0889,3.0889,3.0889,3.0889,3.0889,3.0889,3.0889,3.0889,3.0889,3.0889,3.0889,3.0137,2.9482,2.9043,2.8623,2.8359,2.8291,2.8291,2.8291,2.8291,2.8291,2.8291,2.8291,2.8291,2.8291,2.8291,2.8291,2.8291,2.8291,2.8291,2.8291,2.8291,2.8291,2.8291,2.8291,2.8291,2.8291,2.8291,2.8291,2.8291,2.8291,2.8291,2.8291,2.8291,2.8291,2.8291,2.8291,2.8291,2.8291,2.8291,2.8291,2.8291,2.8291,2.8291,2.8291,2.8291,2.8291,2.8291,2.8203,2.7894,2.7767,2.7513,2.6728,2.6475,2.6279,2.5908,2.5732,2.5693,2.5693,2.5693,2.5693,2.5693,0.0,2.5693,2.5693,2.5693,2.5693,2.5693,2.5693,2.5693,2.5693,2.5693,2.5693,2.5693,2.5693,2.5693,2.5693,2.5693,2.5693,2.5693,2.5693,2.5693,2.5693,2.5693,2.5693,2.5693,2.5693,2.5693,2.5693,2.5693,2.5693,2.5693,2.5693,2.5693,2.5693,2.5693,2.5693,2.5693,2.5693,2.5732,2.584,3.0889,3.0889,3.0889,3.0889,3.0889,3.0889,3.0889,3.0889,3.0889,3.0889,3.0889,3.0889,3.0889,3.0889,3.0889,3.0889,3.04,2.9922,2.9502,2.9062,2.8662,2.831,2.8291,2.8291,2.8291,2.8291,2.8291,2.8291,2.8291,2.8291,2.8291,2.8291,2.8291,2.8291,2.8291,2.8291,2.8291,2.8291,2.8291,2.8291,2.8291,2.8291,2.8291,2.8291,2.8291,2.8291,2.8291,2.8291,2.8291,2.8291,2.8291,2.8291,2.8291,2.8291,2.8291,2.8291,2.8291,2.8291,2.8291,2.8291,2.8291,2.8291,2.8291,2.8271,2.8213,2.792,2.7679,2.7552,2.6894,2.6367,2.6299,2.5986,2.5693,2.5693,2.5693,2.5693,2.5693,0.0,2.5693,2.5693,2.5693,2.5693,2.5693,2.5693,2.5693,2.5693,2.5693,2.5693,2.5693,2.5693,2.5693,2.5693,2.5693,2.5693,2.5693,2.5693,2.5693,2.5693,2.5693,2.5693,2.5693,2.5693,2.5693,2.5693,2.5693,2.5693,2.5693,2.5693,2.5693,2.5693,2.5693,2.5693,2.5693,2.5693,2.5967,2.6299,3.0889,3.0889,3.0889,3.0889,3.0889,3.0889,3.0889,3.0889,3.0889,3.0889,3.0889,3.0889,3.0889,3.0889,3.0889,3.0889,3.0693,3.0381,2.9932,2.9287,2.8838,2.8643,2.8418,2.8291,2.8291,2.8291,2.8291,2.8291,2.8291,2.8291,2.8291,2.8291,2.8291,2.8291,2.8291,2.8291,2.8291,2.8291,2.8291,2.8291,2.8291,2.8291,2.8291,2.8291,2.8291,2.8291,2.8291,2.8291,2.8291,2.8291,2.8291,2.8291,2.8291,2.8291,2.8291,2.8291,2.8291,2.8291,2.8291,2.8291,2.8291,2.8291,2.8291,2.8291,2.8291,2.8144,2.7939,2.7767,2.7405,2.7002,2.6768,2.6377,2.6084,2.6084,2.584,2.5693,2.5693,2.5693,2.5693,2.5693,2.5693,2.5693,2.5693,2.5693,2.5693,2.5693,2.5693,2.5693,2.5693,2.5693,2.5693,2.5693,2.5693,2.5693,2.5693,2.5693,2.5693,2.5693,2.5693,2.5693,2.5693,2.5693,2.5693,2.5693,2.5693,2.5693,2.5693,2.5693,2.5693,2.5693,2.5693,2.583,2.6084,2.6084,2.6357,2.6758,3.0889,3.0889,3.0889,3.0889,3.0889,3.0889,3.0889,3.0889,3.0889,3.0889,3.0889,3.0889,3.0889,3.0889,3.0889,3.0889,3.0889,3.0742,3.0381,2.9639,2.9131,2.8926,2.8516,2.8291,2.8291,2.8291,2.8291,2.8291,2.8291,2.8291,2.8291,2.8291,2.8291,2.8291,2.8291,2.8291,2.8291,2.8291,2.8291,2.8291,2.8291,2.8291,2.8291,2.8291,2.8291,2.8291,2.8291,2.8291,2.8291,2.8291,2.8291,2.8291,2.8291,2.8291,2.8291,2.8291,2.8291,2.8291,2.8291,2.8291,2.8291,2.8291,2.8291,2.8291,2.8291,2.8291,2.8203,2.7881,2.7787,2.7568,2.7226,2.6816,2.6504,2.6406,0.0,2.5801,2.5703,2.5693,2.5693,2.5693,2.5693,2.5693,2.5693,2.5693,2.5693,2.5693,2.5693,2.5693,2.5693,2.5693,2.5693,2.5693,2.5693,2.5693,2.5693,2.5693,2.5693,2.5693,2.5693,2.5693,2.5693,2.5693,2.5693,2.5693,2.5693,2.5693,2.5693,2.5693,2.5742,2.584,2.584,2.6152,2.6533,2.6533,2.6797,2.7217,3.0889,3.0889,3.0889,3.0889,3.0889,3.0889,3.0889,3.0889,3.0889,3.0889,3.0889,3.0889,3.0889,3.0889,3.0889,3.0889,3.0889,3.0879,3.084,3.0371,2.9746,2.8955,2.8516,2.8291,2.8291,2.8291,2.8291,2.8291,2.8291,2.8291,2.8291,2.8291,2.8291,2.8291,2.8291,2.8291,2.8291,2.8291,2.8291,2.8291,2.8291,2.8291,2.8291,2.8291,2.8291,2.8291,2.8291,2.8291,2.8291,2.8291,2.8291,2.8291,2.8291,2.8291,2.8291,2.8291,2.8291,2.8291,2.8291,2.8291,2.8291,2.8291,2.8291,2.8291,2.8291,2.8291,2.8281,2.8252,2.7939,2.7708,2.7679,2.7266,2.6846,2.6455,0.0,0.0,2.5742,2.5693,2.5693,2.5693,2.5693,2.5693,2.5693,2.5693,2.5693,2.5693,2.5693,2.5693,2.5693,2.5693,2.5693,2.5693,2.5693,2.5693,2.5693,2.5693,2.5693,2.5693,2.5693,2.5693,2.5693,2.5693,2.5693,2.5693,2.5693,2.5693,2.5693,2.5693,2.5977,2.6338,2.6338,2.6602,2.6973,2.6973,2.7246,2.7679,3.0889,3.0889,3.0889,3.0889,3.0889,3.0889,3.0889,3.0889,3.0889,3.0889,3.0889,3.0889,3.0889,3.0889,3.0889,3.0889,3.0889,3.0889,3.0889,3.0723,3.0117,2.8975,2.876,2.8564,2.8301,2.8291,2.8291,2.8291,2.8291,2.8291,2.8291,2.8291,2.8291,2.8291,2.8291,2.8291,2.8291,2.8291,2.8291,2.8291,2.8291,2.8291,2.8291,2.8291,2.8291,2.8291,2.8291,2.8291,2.8291,2.8291,2.8291,2.8291,2.8291,2.8291,2.8291,2.8291,2.8291,2.8291,2.8291,2.8291,2.8291,2.8291,2.8291,2.8291,2.8291,2.8291,2.8291,2.8291,2.8164,2.8057,2.8057,2.7705,2.7363,2.7207,0.0,2.6719,2.6553,2.6309,2.6143,2.6143,2.5908,2.5693,2.5693,2.5693,2.5693,2.5693,2.5693,2.5693,2.5693,2.5693,2.5693,2.5693,2.5693,2.5693,2.5693,2.5693,2.5693,2.5693,2.5693,2.5693,2.5693,2.5693,2.5693,2.5693,2.5693,2.5889,2.6143,2.6143,2.6396,2.6777,2.6777,2.7041,2.7412,2.7412,2.7685,2.8057,3.0889,3.0889,3.0889,3.0889,3.0889,3.0889,3.0889,3.0889,3.0889,3.0889,3.0889,3.0889,3.0889,3.0889,3.0889,3.0889,3.0889,3.0889,3.0889,3.0889,3.042,2.9365,2.9199,2.8926,2.8496,2.8496,2.8428,2.8291,2.8291,2.8291,2.8291,2.8291,2.8291,2.8291,2.8291,2.8291,2.8291,2.8291,2.8291,2.8291,2.8291,2.8291,2.8291,2.8291,2.8291,2.8291,2.8291,2.8291,2.8291,2.8291,2.8291,2.8291,2.8291,2.8291,2.8291,2.8291,2.8291,2.8291,2.8291,2.8291,2.8291,2.8291,2.8291,2.8291,2.8291,2.8291,2.8291,2.8291,2.8291,2.8291,2.8291,2.8057,2.7875,2.7738,2.7412,2.7168,2.7031,2.6768,2.6592,2.6592,2.6318,2.6093,2.6093,2.6093,2.6093,2.6093,2.6093,2.6093,2.6093,2.6093,2.6093,2.6093,2.6093,2.6093,2.6093,2.582,2.5693,2.5693,2.5693,2.5693,2.5693,2.583,2.5947,2.5947,2.6035,2.6309,2.6592,2.6592,2.6836,2.7217,2.7217,2.748,2.7861,2.7861,2.8047,2.8291,3.0889,3.0889,3.0889,3.0889,3.0889,3.0889,3.0889,3.0889,3.0889,3.0889,3.0889,3.0889,3.0889,3.0889,3.0889,3.0889,3.0889,3.0889,3.0889,3.0889,3.0684,3.0225,2.9795,2.9375,2.8935,2.8926,2.8721,2.8301,2.8301,2.8301,2.8301,2.8291,2.8291,2.8291,2.8291,2.8291,2.8291,2.8291,2.8291,2.8291,2.8291,2.8291,2.8291,2.8291,2.8291,2.8291,2.8291,2.8291,2.8291,2.8291,2.8291,2.8291,2.8291,2.8291,2.8291,2.8291,2.8291,2.8291,2.8291,2.8291,2.8291,2.8291,2.8291,2.8291,2.8291,2.8291,2.8291,2.8291,2.8291,2.8291,2.8291,2.8291,2.8154,2.7796,2.7718,2.7519,2.709,2.7021,2.7021,2.7021,2.7012,2.7012,2.7012,2.7012,2.7012,2.7012,2.7012,2.7012,2.7012,2.7012,2.7012,2.7012,2.7012,2.7012,2.7012,2.6122,2.5703,2.5703,2.5703,2.5703,2.5713,2.6191,2.6396,2.6416,2.6836,2.7012,2.7021,2.7021,2.7275,2.7718,2.7718,2.793,2.8291,2.8291,2.8291,2.8291,3.0889,3.0889,3.0889,3.0889,3.0889,3.0889,3.0889,3.0889,3.0889,3.0889,3.0889,3.0889,3.0889,3.0889,3.0889,3.0889,3.0889,3.0889,3.0889,3.0889,3.083,3.0693,3.0254,2.9814,2.9385,2.9375,2.9316,2.9189,2.8887,2.873,2.8721,2.8428,2.8291,2.8291,2.8291,2.8291,2.8291,2.8291,2.8291,2.8291,2.8291,2.8291,2.8291,2.8291,2.8291,2.8291,2.8291,2.8291,2.8291,2.8291,2.8291,2.8291,2.8291,2.8291,2.8291,2.8291,2.8291,2.8291,2.8291,2.8291,2.8291,2.8291,2.8291,2.8291,2.8291,2.8291,2.8291,2.8291,2.8291,2.8291,2.8291,2.8291,2.8252,2.8125,2.8105,2.8066,2.793,2.7656,2.7471,2.7471,2.7207,2.7012,2.7012,2.7012,2.7012,2.7012,2.7012,2.7012,2.7012,2.7012,2.7012,2.7012,2.7012,2.7012,2.7012,2.6758,2.6631,2.6631,2.6631,2.6631,2.6641,2.6768,2.6826,2.6836,2.6963,2.7187,2.7471,2.7471,2.7725,2.8105,2.8105,2.8184,2.8291,2.8291,2.8291,2.8291,3.0889,3.0889,3.0889,3.0889,3.0889,3.0889,3.0889,3.0889,3.0889,3.0889,3.0889,3.0889,3.0889,3.0889,3.0889,3.0889,3.0889,3.0889,3.0889,3.0889,3.0889,3.0889,3.0625,3.0264,2.9824,2.9824,2.9736,2.9626,2.9307,2.918,2.917,2.8916,2.8799,2.8789,2.8623,2.8545,2.8535,2.8359,2.8291,2.8291,2.8291,2.8291,2.8291,2.8291,2.8291,2.8291,2.8291,2.8291,2.8291,2.8291,2.8291,2.8291,2.8291,2.8291,2.8291,2.8291,2.8291,2.8291,2.8291,2.8291,2.8291,2.8291,2.8291,2.8291,2.8291,2.8291,2.8291,2.8291,2.8291,2.8291,2.8291,2.8291,2.8291,2.8291,2.8291,2.8291,2.8291,2.8076,2.792,2.792,2.7685,2.7519,2.7519,2.7519,2.7519,2.7519,2.7519,2.7519,2.7519,2.7519,2.7519,2.7519,2.7519,2.7519,2.7519,2.7519,2.7353,2.7012,2.7012,2.7012,2.7021,2.7197,2.7275,2.7285,2.7451,2.7666,2.792,2.792,2.8066,2.8291,2.8291,2.8291,2.8291,2.8291,2.8291,2.8291,3.0889,3.0889,3.0889,3.0889,3.0889,3.0889,3.0889,3.0889,3.0889,3.0889,3.0889,3.0889,3.0889,3.0889,3.0889,3.0889,3.0889,3.0889,3.0889,3.0889,3.0889,3.0889,3.0889,3.0693,3.0264,3.0264,3.0068,2.9744,2.9648,2.9629,2.9629,2.9646,2.9626,2.9551,2.915,2.8975,2.8955,2.8564,2.8408,2.8408,2.8408,2.8389,2.835,2.835,2.833,2.8291,2.8291,2.8291,2.8291,2.8291,2.8291,2.8291,2.8291,2.8291,2.8291,2.8291,2.8291,2.8291,2.8291,2.8291,2.8291,2.8291,2.8291,2.8291,2.8291,2.8291,2.8291,2.8291,2.8291,2.8291,2.8291,2.8291,2.8291,2.8291,2.8291,2.8291,2.8291,2.8291,2.8291,2.8291,2.8291,2.8291,2.8291,2.8291,2.8291,2.8291,2.8291,2.8291,2.8291,2.8291,2.8291,2.8291,2.8291,2.8291,2.8291,2.8291,2.79,2.7129,2.7129,2.7129,2.7139,2.7539,2.7777,2.7744,2.8125,2.8291,2.8291,2.8291,2.8291,2.8291,2.8291,2.8291,2.8291,2.8291,2.8291,2.8291,3.0889,3.0889,3.0889,3.0889,3.0889,3.0889,3.0889,3.0889,3.0889,3.0889,3.0889,3.0889,3.0889,3.0889,3.0889,3.0889,3.0889,3.0889,3.0889,3.0889,3.0889,3.0889,3.0889,3.084,3.0742,3.0742,3.0693,3.0605,3.0244,3.0059,3.0049,2.9726,2.9626,2.9626,2.9473,2.9434,2.9424,2.9336,2.9297,2.9297,2.9297,2.9092,2.8779,2.8779,2.8574,2.8291,2.8291,2.8291,2.8291,2.8291,2.8291,2.8291,2.8291,2.8291,2.8291,2.8291,2.8291,2.8291,2.8291,2.8291,2.8291,2.8291,2.8291,2.8291,2.8291,2.8291,2.8291,2.8291,2.8291,2.8291,2.8291,2.8291,2.8291,2.8291,2.8291,2.8291,2.8291,2.8291,2.8291,2.8291,2.8291,2.8291,2.8291,2.8291,2.8291,2.8291,2.8291,2.8291,2.8291,2.8291,2.8291,2.8291,2.8291,2.8291,2.8291,2.8291,2.8203,2.8018,2.8018,2.8018,2.8018,2.8115,2.8154,2.8164,2.8252,2.8291,2.8291,2.8291,2.8291,2.8291,2.8291,2.8291,2.8291,2.8291,2.8291,2.8291,3.0889,3.0889,3.0889,3.0889,3.0889,3.0889,3.0889,3.0889,3.0889,3.0889,3.0889,3.0889,3.0889,3.0889,3.0889,3.0889,3.0889,3.0889,3.0889,3.0889,3.0889,3.0889,3.0889,3.0889,3.0889,3.0889,3.0889,3.0889,3.0644,3.0527,3.0518,3.0303,3.0205,3.0185,2.9971,2.9863,2.9853,2.9658,2.9626,2.9626,2.9626,2.9434,2.9228,2.9228,2.9092,2.8906,2.8906,2.8769,2.8594,2.8594,2.8457,2.8291,2.8291,2.8291,2.8291,2.8291,2.8291,2.8291,2.8291,2.8291,2.8291,2.8291,2.8291,2.8291,2.8291,2.8291,2.8291,2.8291,2.8291,2.8291,2.8291,2.8291,2.8291,2.8291,2.8291,2.8291,2.8291,2.8291,2.8291,2.8291,2.8291,2.8291,2.8291,2.8291,2.8291,2.8291,2.8291,2.8291,2.8291,2.8291,2.8291,2.8291,2.8291,2.8291,2.8291,2.8291,2.8291,2.8291,2.8291,2.8291,2.8291,2.8291,2.8291,2.8291,2.8291,2.8291,2.8291,2.8291,2.8291,2.8291,2.8291,2.8291,2.8291,2.8291,2.8291,2.8291,3.0889,3.0889,3.0889,3.0889,3.0889,3.0889,3.0889,3.0889,3.0889,3.0889,3.0889,3.0889,3.0889,3.0889,3.0889,3.0889,3.0889,3.0889,3.0889,3.0889,3.0889,3.0889,3.0889,3.0889,3.0889,3.0889,3.0889,3.0889,3.0889,3.0889,3.0889,3.0889,3.0889,3.0869,3.0488,3.0322,3.0293,2.9941,2.9795,2.9795,2.9795,2.9746,2.9678,2.9678,2.9629,2.9626,2.9626,2.9336,2.9033,2.9033,2.8799,2.8496,2.8428,2.8398,2.8389,2.831,2.8291,2.8291,2.8291,2.8291,2.8291,2.8291,2.8291,2.8291,2.8291,2.8291,2.8291,2.8291,2.8291,2.8291,2.8291,2.8291,2.8291,2.8291,2.8291,2.8291,2.8291,2.8291,2.8291,2.8291,2.8291,2.8291,2.8291,2.8291,2.8291,2.8291,2.8291,2.8291,2.8291,2.8291,2.8291,2.8291,2.8291,2.8291,2.8291,2.8291,2.8291,2.8291,2.8291,2.8291,2.8291,2.8291,2.8291,2.8291,2.8291,2.8291,2.8291,2.8291,2.8291,2.8291,2.8291,2.8291,2.8291,2.8291,2.8291,2.8291,3.0889,3.0889,3.0889,3.0889,3.0889,3.0889,3.0889,3.0889,3.0889,3.0889,3.0889,3.0889,3.0889,3.0889,3.0889,3.0889,3.0889,3.0889,3.0889,3.0889,3.0889,3.0889,3.0889,3.0889,3.0889,3.0889,3.0889,3.0889,3.0889,3.0889,3.0889,3.0889,3.0889,3.0889,3.083,3.0801,3.0791,3.0732,3.0713,3.0713,3.0713,3.0469,3.0107,3.0107,2.9893,2.9626,2.9626,2.9531,2.9482,2.9482,2.9443,2.9326,2.8955,2.8838,2.876,2.8398,2.8291,2.8291,2.8291,2.8291,2.8291,2.8291,2.8291,2.8291,2.8291,2.8291,2.8291,2.8291,2.8291,2.8291,2.8291,2.8291,2.8291,2.8291,2.8291,2.8291,2.8291,2.8291,2.8291,2.8291,2.8291,2.8291,2.8291,2.8291,2.8291,2.8291,2.8291,2.8291,2.8291,2.8291,2.8291,2.8291,2.8291,2.8291,2.8291,2.8291,2.8291,2.8291,2.8291,2.8291,2.8291,2.8291,2.8291,2.8291,2.8291,2.8291,2.8291,2.8291,2.8291,2.8291,2.8291,2.8291,2.8291,2.8291,2.8291,2.8291,3.0889,3.0889,3.0889,3.0889,3.0889,3.0889,3.0889,3.0889,3.0889,3.0889,3.0889,3.0889,3.0889,3.0889,3.0889,3.0889,3.0889,3.0889,3.0889,3.0889,3.0889,3.0889,3.0889,3.0889,3.0889,3.0889,3.0889,3.0889,3.0889,3.0889,3.0889,3.0889,3.0889,3.0889,3.0889,3.0889,3.0889,3.0889,3.0889,3.0889,3.0889,3.0771,3.0586,3.0586,3.0469,3.0303,3.0303,3.0146,2.9922,2.9922,2.9766,2.9531,2.9346,2.9277,2.9248,2.9062,2.9004,2.8955,2.8711,2.8643,2.8584,2.835,2.8291,2.8291,2.8291,2.8291,2.8291,2.8291,2.8291,2.8291,2.8291,2.8291,2.8291,2.8291,2.8291,2.8291,2.8291,2.8291,2.8291,2.8291,2.8291,2.8291,2.8291,2.8291,2.8291,2.8291,2.8291,2.8291,2.8291,2.8291,2.8291,2.8291,2.8291,2.8291,2.8291,2.8291,2.8291,2.8291,2.8291,2.8291,2.8291,2.8291,2.8291,2.8291,2.8291,2.8291,2.8291,2.8291,2.8291,2.8291,2.8291,2.8291,2.8291,2.8291,2.8291,2.8291]}]]